[[{"header":{"parameterUnit":"m.s-1","parameterCategory":1,"la1":30.6,"la2":29.2853,"lo1":-89.7004,"lo2":-87.6739,"dy":0.0162,"dx":0.0183,"nx":112,"ny":82,"refTime":"2024-07-15T00:00:00:Z","depth":0,"parameterNumber":2,"parameterNumberName":"U-component_of_WINDS"},"data":[0.0,0.0,0.0,0.0,0.0,0.0,0.0,0.0,0.0,0.0,0.0,0.0,0.0,0.0,0.0,0.0,0.0,0.0,0.0,0.0,0.0,0.0,0.0,0.0,0.0,0.0,0.0,0.0,0.0,0.0,0.0,0.0,0.0,0.0,0.0,0.0,0.0,0.0,0.0,0.0,0.0,0.0,0.0,0.0,0.0,0.0,0.0,0.0,0.0,0.0,0.0,0.0,0.0,0.0,0.0,0.0,0.0,0.0,0.0,0.0,0.0,0.0,0.0,0.0,0.0,0.0,0.0,0.0,0.0,0.0,0.0,0.0,0.0,0.0,0.0,0.0,0.0,0.0,0.0,0.0,0.0,0.0,0.0,0.0,0.0,0.0,0.0,0.0,0.0,0.0,0.0,-2.1758,-2.4658,-2.7012,-2.8236,-2.7178,-2.5121,-2.2039,0.0,0.0,0.0,0.0,0.0,0.0,0.0,0.0,0.0,0.0,0.0,0.0,0.0,0.0,0.0,0.0,0.0,0.0,0.0,0.0,0.0,0.0,0.0,0.0,0.0,0.0,0.0,0.0,0.0,0.0,0.0,0.0,0.0,0.0,0.0,0.0,0.0,0.0,0.0,0.0,0.0,0.0,0.0,0.0,0.0,0.0,0.0,0.0,0.0,0.0,0.0,0.0,0.0,0.0,0.0,0.0,0.0,0.0,0.0,0.0,0.0,0.0,0.0,0.0,0.0,0.0,0.0,0.0,0.0,0.0,0.0,0.0,0.0,0.0,0.0,0.0,0.0,0.0,0.0,0.0,0.0,0.0,0.0,0.0,0.0,0.0,0.0,0.0,0.0,0.0,0.0,0.0,0.0,0.0,0.0,0.0,0.0,0.0,0.0,0.0,0.0,0.0,0.0,0.0,-2.1426,-2.6085,-2.6535,-2.7053,-2.8429,-2.6827,-2.4837,-2.2688,0.0,0.0,0.0,0.0,0.0,0.0,0.0,0.0,0.0,0.0,0.0,0.0,0.0,0.0,0.0,0.0,0.0,0.0,0.0,0.0,0.0,0.0,0.0,0.0,0.0,0.0,0.0,0.0,0.0,0.0,0.0,0.0,0.0,0.0,0.0,0.0,0.0,0.0,0.0,0.0,0.0,0.0,0.0,0.0,0.0,0.0,0.0,0.0,0.0,0.0,0.0,0.0,0.0,0.0,0.0,0.0,0.0,0.0,0.0,0.0,0.0,0.0,0.0,0.0,0.0,0.0,0.0,0.0,0.0,0.0,0.0,0.0,0.0,0.0,0.0,0.0,0.0,0.0,0.0,0.0,0.0,0.0,0.0,0.0,0.0,0.0,0.0,0.0,0.0,0.0,0.0,0.0,0.0,0.0,0.0,0.0,0.0,0.0,0.0,0.0,0.0,0.0,0.0,-2.0786,-2.3077,-2.7634,-2.7513,-2.7495,-2.8506,-2.6767,-2.4627,-2.2313,-1.9645,0.0,0.0,0.0,0.0,0.0,0.0,0.0,0.0,0.0,0.0,0.0,0.0,0.0,0.0,0.0,0.0,0.0,0.0,0.0,0.0,0.0,0.0,0.0,0.0,0.0,0.0,0.0,0.0,0.0,0.0,0.0,0.0,0.0,0.0,0.0,0.0,0.0,0.0,0.0,0.0,0.0,0.0,0.0,0.0,0.0,0.0,0.0,0.0,0.0,0.0,0.0,0.0,0.0,0.0,0.0,0.0,0.0,0.0,0.0,0.0,0.0,0.0,0.0,0.0,0.0,0.0,0.0,0.0,0.0,0.0,0.0,0.0,0.0,0.0,0.0,0.0,0.0,0.0,0.0,0.0,0.0,0.0,0.0,0.0,0.0,0.0,0.0,0.0,0.0,0.0,0.0,0.0,0.0,0.0,0.0,0.0,0.0,0.0,0.0,0.0,0.0,0.0,-2.2996,-2.432,-2.7964,-2.7914,-2.7809,-2.8308,-2.6378,-2.4148,-2.1844,-1.8912,0.0,0.0,0.0,0.0,0.0,0.0,0.0,0.0,0.0,0.0,0.0,0.0,0.0,0.0,0.0,0.0,0.0,0.0,0.0,0.0,0.0,0.0,0.0,0.0,0.0,0.0,0.0,0.0,0.0,0.0,0.0,0.0,0.0,0.0,0.0,0.0,0.0,0.0,0.0,0.0,0.0,0.0,0.0,0.0,0.0,0.0,0.0,0.0,0.0,0.0,0.0,0.0,0.0,0.0,0.0,0.0,0.0,0.0,0.0,0.0,0.0,0.0,0.0,0.0,0.0,0.0,0.0,0.0,0.0,0.0,0.0,0.0,0.0,0.0,0.0,0.0,0.0,0.0,0.0,0.0,0.0,0.0,0.0,0.0,0.0,0.0,0.0,0.0,0.0,0.0,0.0,0.0,0.0,0.0,0.0,0.0,0.0,0.0,0.0,0.0,0.0,0.0,-2.2832,-2.4582,-2.7375,-2.763,-2.7615,-2.766,-2.5264,-2.3161,-2.1784,-1.8075,0.0,0.0,0.0,0.0,0.0,0.0,0.0,0.0,0.0,0.0,0.0,0.0,0.0,0.0,0.0,0.0,0.0,0.0,0.0,0.0,0.0,0.0,0.0,0.0,0.0,0.0,0.0,0.0,0.0,0.0,0.0,0.0,0.0,0.0,0.0,0.0,0.0,0.0,0.0,0.0,0.0,0.0,0.0,0.0,0.0,0.0,0.0,0.0,0.0,0.0,0.0,0.0,0.0,0.0,0.0,0.0,0.0,0.0,0.0,0.0,0.0,0.0,0.0,0.0,0.0,0.0,0.0,0.0,0.0,0.0,0.0,0.0,0.0,0.0,0.0,0.0,0.0,0.0,0.0,0.0,0.0,0.0,0.0,0.0,0.0,0.0,0.0,0.0,0.0,0.0,0.0,0.0,0.0,0.0,0.0,0.0,0.0,0.0,0.0,0.0,0.0,0.0,-2.2218,-2.4051,0.0,-2.6927,-2.6924,-2.6966,-2.4858,-2.2666,-2.0583,0.0,0.0,0.0,0.0,0.0,0.0,0.0,0.0,0.0,0.0,0.0,0.0,0.0,0.0,0.0,0.0,0.0,0.0,0.0,0.0,0.0,0.0,0.0,0.0,0.0,0.0,0.0,0.0,0.0,0.0,0.0,0.0,0.0,0.0,0.0,0.0,0.0,0.0,0.0,0.0,0.0,0.0,0.0,0.0,0.0,0.0,0.0,0.0,0.0,0.0,0.0,0.0,0.0,0.0,0.0,0.0,0.0,0.0,0.0,0.0,0.0,0.0,0.0,0.0,0.0,0.0,0.0,0.0,0.0,0.0,0.0,0.0,0.0,0.0,0.0,0.0,0.0,0.0,0.0,0.0,0.0,0.0,0.0,0.0,0.0,0.0,0.0,0.0,0.0,0.0,0.0,0.0,0.0,0.0,0.0,0.0,0.0,0.0,0.0,0.0,0.0,0.0,-2.021,-2.2039,-2.3916,0.0,-2.636,-2.6319,-2.6583,-2.4148,-2.1794,-1.9818,0.0,0.0,0.0,0.0,0.0,0.0,0.0,0.0,0.0,0.0,0.0,0.0,0.0,0.0,0.0,0.0,0.0,0.0,0.0,0.0,0.0,0.0,0.0,0.0,0.0,0.0,0.0,0.0,0.0,0.0,0.0,0.0,0.0,0.0,0.0,0.0,0.0,0.0,0.0,0.0,0.0,0.0,0.0,0.0,0.0,0.0,0.0,0.0,0.0,0.0,0.0,0.0,0.0,0.0,0.0,0.0,0.0,0.0,0.0,0.0,0.0,0.0,0.0,0.0,0.0,0.0,0.0,0.0,0.0,0.0,0.0,0.0,0.0,0.0,0.0,0.0,0.0,0.0,0.0,0.0,0.0,0.0,0.0,0.0,0.0,0.0,0.0,0.0,0.0,0.0,0.0,0.0,0.0,0.0,0.0,0.0,0.0,0.0,0.0,0.0,0.0,0.0,-2.0255,-2.2398,-2.4343,-2.6348,-2.5985,-2.586,-2.6508,-2.2944,-2.0407,0.0,0.0,0.0,0.0,0.0,0.0,0.0,0.0,0.0,0.0,0.0,0.0,0.0,0.0,0.0,0.0,0.0,0.0,0.0,0.0,0.0,0.0,0.0,0.0,0.0,0.0,0.0,0.0,0.0,0.0,0.0,0.0,0.0,0.0,0.0,0.0,0.0,0.0,0.0,0.0,0.0,0.0,0.0,0.0,0.0,0.0,0.0,0.0,0.0,0.0,0.0,0.0,0.0,0.0,0.0,0.0,0.0,0.0,0.0,0.0,0.0,0.0,0.0,0.0,0.0,0.0,0.0,0.0,0.0,0.0,0.0,0.0,0.0,0.0,0.0,0.0,0.0,0.0,0.0,0.0,0.0,0.0,0.0,0.0,0.0,0.0,0.0,0.0,0.0,0.0,0.0,0.0,0.0,0.0,0.0,0.0,0.0,0.0,0.0,0.0,0.0,0.0,0.0,-1.963,-2.1744,-2.3369,-2.4443,-2.4337,-2.4283,-2.4538,-2.2144,-2.0147,-1.9051,0.0,0.0,0.0,0.0,0.0,0.0,0.0,0.0,0.0,0.0,0.0,0.0,0.0,0.0,0.0,0.0,0.0,0.0,0.0,0.0,0.0,0.0,0.0,0.0,0.0,0.0,0.0,0.0,0.0,0.0,0.0,0.0,0.0,0.0,0.0,0.0,0.0,0.0,0.0,0.0,0.0,0.0,0.0,0.0,0.0,0.0,0.0,0.0,0.0,0.0,0.0,0.0,0.0,0.0,0.0,0.0,0.0,0.0,0.0,0.0,0.0,0.0,0.0,0.0,0.0,0.0,0.0,0.0,0.0,0.0,0.0,0.0,0.0,0.0,0.0,0.0,0.0,0.0,0.0,0.0,0.0,0.0,0.0,0.0,0.0,0.0,0.0,0.0,0.0,0.0,0.0,0.0,0.0,0.0,0.0,0.0,0.0,0.0,0.0,0.0,0.0,0.0,-1.9041,-2.1254,-2.2804,-2.3255,-2.3468,-2.3618,-2.3688,-2.1815,-2.0202,-1.9173,0.0,0.0,0.0,0.0,0.0,0.0,0.0,0.0,0.0,0.0,0.0,0.0,0.0,0.0,0.0,0.0,0.0,0.0,0.0,0.0,0.0,0.0,0.0,0.0,0.0,0.0,0.0,0.0,0.0,0.0,0.0,0.0,0.0,0.0,0.0,0.0,0.0,0.0,0.0,0.0,0.0,0.0,0.0,0.0,0.0,0.0,0.0,0.0,0.0,0.0,0.0,0.0,0.0,0.0,0.0,0.0,0.0,0.0,0.0,0.0,0.0,0.0,0.0,0.0,0.0,0.0,0.0,0.0,0.0,0.0,0.0,0.0,0.0,0.0,0.0,0.0,0.0,0.0,0.0,0.0,0.0,0.0,0.0,0.0,0.0,0.0,0.0,0.0,0.0,0.0,0.0,0.0,0.0,0.0,0.0,0.0,0.0,0.0,0.0,0.0,0.0,0.0,-1.8544,-2.087,-2.24,-2.2498,-2.3052,-2.344,-2.3493,-2.1844,-2.0515,-1.9836,0.0,0.0,0.0,0.0,0.0,0.0,0.0,0.0,0.0,0.0,0.0,0.0,0.0,0.0,0.0,0.0,0.0,0.0,0.0,0.0,0.0,0.0,0.0,0.0,0.0,0.0,0.0,0.0,0.0,0.0,0.0,0.0,0.0,0.0,0.0,0.0,0.0,0.0,0.0,0.0,0.0,0.0,0.0,0.0,0.0,0.0,0.0,0.0,0.0,0.0,0.0,0.0,0.0,0.0,0.0,0.0,0.0,0.0,0.0,0.0,-2.0687,0.0,0.0,0.0,0.0,0.0,0.0,0.0,0.0,0.0,0.0,0.0,0.0,0.0,0.0,0.0,0.0,0.0,0.0,0.0,0.0,0.0,0.0,0.0,0.0,0.0,0.0,0.0,0.0,0.0,0.0,0.0,0.0,0.0,0.0,0.0,0.0,0.0,0.0,0.0,0.0,0.0,-1.8545,-2.0189,-2.1175,-2.1211,-2.1751,-2.2104,-2.2132,-2.1735,-2.1212,-2.0535,-1.8341,0.0,0.0,0.0,0.0,0.0,0.0,0.0,0.0,0.0,0.0,0.0,0.0,0.0,0.0,0.0,0.0,0.0,0.0,0.0,0.0,0.0,0.0,0.0,0.0,0.0,0.0,0.0,0.0,0.0,0.0,0.0,0.0,0.0,0.0,0.0,0.0,0.0,0.0,0.0,0.0,0.0,0.0,0.0,0.0,0.0,0.0,0.0,0.0,0.0,0.0,0.0,0.0,0.0,0.0,0.0,0.0,0.0,0.0,0.0,0.0,-2.3156,0.0,0.0,0.0,0.0,0.0,0.0,0.0,0.0,0.0,0.0,0.0,0.0,0.0,0.0,0.0,0.0,0.0,0.0,0.0,0.0,0.0,0.0,0.0,0.0,0.0,0.0,0.0,0.0,0.0,0.0,0.0,0.0,0.0,0.0,0.0,0.0,0.0,0.0,0.0,0.0,-1.8549,-1.9904,-2.0718,-2.0746,-2.1578,-2.2018,-2.1724,-2.1993,-2.1889,-2.1226,-1.9283,0.0,0.0,0.0,0.0,0.0,0.0,0.0,0.0,0.0,0.0,0.0,0.0,0.0,0.0,0.0,0.0,0.0,0.0,0.0,0.0,0.0,0.0,0.0,0.0,0.0,0.0,0.0,0.0,0.0,0.0,0.0,0.0,0.0,0.0,0.0,0.0,0.0,0.0,0.0,0.0,0.0,0.0,0.0,0.0,0.0,0.0,0.0,0.0,0.0,0.0,0.0,0.0,0.0,-3.0306,-3.0473,-3.0471,-2.9703,-2.966,-3.0104,-2.7744,-2.7212,-2.7786,0.0,0.0,0.0,0.0,0.0,0.0,0.0,0.0,0.0,0.0,0.0,0.0,0.0,0.0,0.0,0.0,0.0,0.0,0.0,0.0,0.0,0.0,0.0,0.0,0.0,-2.4571,-2.3673,0.0,0.0,0.0,0.0,0.0,0.0,0.0,0.0,0.0,0.0,0.0,0.0,-1.8584,-1.9757,-2.0553,-2.0829,-2.1816,-2.2301,-2.1917,-2.2484,-2.2538,-2.1739,-2.0139,-1.8565,0.0,0.0,0.0,0.0,0.0,0.0,0.0,0.0,0.0,0.0,0.0,0.0,0.0,0.0,0.0,0.0,0.0,0.0,0.0,0.0,0.0,0.0,0.0,0.0,0.0,0.0,0.0,0.0,0.0,0.0,0.0,0.0,-1.7501,-1.9425,0.0,0.0,0.0,0.0,0.0,0.0,0.0,0.0,0.0,0.0,0.0,0.0,0.0,-2.9534,-2.9989,-3.2409,-3.366,-3.3795,-3.5768,-3.6075,-3.4846,-3.4159,-3.3914,-3.3932,-3.2874,0.0,-2.8257,-2.7337,0.0,0.0,0.0,0.0,0.0,0.0,0.0,0.0,0.0,0.0,0.0,0.0,0.0,0.0,0.0,0.0,0.0,0.0,0.0,0.0,0.0,0.0,-2.7844,-2.7919,-2.6616,-2.5375,0.0,-2.1772,-1.8398,-1.804,-1.6801,0.0,0.0,0.0,0.0,0.0,0.0,0.0,-1.8621,-1.9453,-2.0322,-2.1381,-2.1677,-2.202,-2.2535,-2.3135,-2.2966,-2.1769,-2.144,-2.0438,-1.8506,-1.7234,0.0,0.0,0.0,0.0,0.0,0.0,0.0,0.0,0.0,0.0,0.0,0.0,0.0,0.0,0.0,0.0,0.0,0.0,0.0,0.0,0.0,0.0,0.0,0.0,0.0,0.0,0.0,0.0,0.0,-1.8209,-2.1036,-2.1722,-2.2866,-2.2744,0.0,0.0,0.0,0.0,0.0,0.0,0.0,0.0,0.0,-3.2203,-3.2972,-3.3685,-3.4372,-3.5725,-3.662,-3.7043,-3.756,-3.7502,-3.6878,-3.6574,-3.621,-3.5731,-3.5004,-3.3829,-3.228,-3.0142,-2.8168,-2.6344,0.0,0.0,0.0,0.0,-2.3969,-2.4059,-2.5181,-2.5533,0.0,-2.4223,0.0,0.0,0.0,0.0,0.0,0.0,0.0,0.0,0.0,0.0,0.0,-2.9071,-2.8426,-2.7583,-2.7185,-2.4351,-2.156,0.0,-1.9877,-1.8976,-1.7316,0.0,0.0,0.0,0.0,0.0,-1.9735,-2.0104,-2.0754,-2.193,-2.1848,-2.1969,-2.2649,-2.3246,-2.3056,-2.1784,-2.1695,-2.0961,-1.9331,-1.8326,-1.7385,0.0,0.0,0.0,0.0,0.0,0.0,0.0,0.0,0.0,0.0,0.0,0.0,0.0,0.0,0.0,0.0,0.0,0.0,0.0,0.0,0.0,0.0,0.0,0.0,0.0,0.0,0.0,0.0,-2.1328,-2.3849,-2.3839,-2.5625,-2.5837,0.0,0.0,0.0,0.0,0.0,0.0,-3.169,-3.328,-3.4765,-3.6109,-3.6769,-3.7321,-3.7801,-3.8231,-3.8734,-3.9259,-3.8662,-3.828,-3.8092,-3.8092,-3.7645,-3.6888,-3.6163,-3.5856,-3.5623,-3.2407,-3.0668,-2.9797,-2.7685,-2.6767,-2.6707,-2.735,-2.7171,-2.6856,-2.8517,-2.8652,-2.7974,-2.7126,0.0,-2.5974,-2.3849,0.0,0.0,0.0,0.0,-2.6025,-2.7859,-2.8697,-2.9265,-2.9924,-2.972,-2.9175,-2.843,-2.6329,-2.4139,0.0,-2.2231,-2.1448,-1.9167,0.0,0.0,0.0,0.0,-1.9798,-2.0779,-2.0928,-2.1377,-2.2538,-2.2235,-2.2216,-2.2875,-2.3207,-2.2892,-2.1769,-2.1545,-2.0917,-1.9753,-1.9211,-1.8642,-1.7968,0.0,0.0,0.0,0.0,0.0,0.0,0.0,0.0,0.0,0.0,0.0,0.0,0.0,0.0,0.0,0.0,0.0,0.0,0.0,0.0,0.0,0.0,0.0,0.0,0.0,0.0,0.0,0.0,0.0,-2.5531,-2.8178,0.0,0.0,0.0,0.0,-3.0919,-3.2553,-3.4243,-3.5899,-3.7514,-3.831,-3.8146,-3.959,-3.9909,-3.8918,-3.9622,-4.0011,-4.0045,-3.9995,-3.9577,-3.8854,-3.8854,-3.8442,-3.7706,-3.6903,-3.6553,-3.6337,-3.3562,-3.2003,-3.1329,-3.0552,-2.9894,-2.9487,-3.0073,-2.9909,-2.9517,-3.0163,-2.9998,-2.9592,-3.0088,-2.9445,-2.8308,-2.754,-2.6881,0.0,0.0,-2.7874,-2.8697,-3.0013,-3.0387,-3.0582,-3.1241,-3.0367,-2.9566,-3.0207,-2.7625,-2.498,0.0,-2.2802,-2.1524,-2.1417,0.0,-2.0292,-1.9737,-2.0201,-2.0817,-2.1408,-2.152,-2.2007,-2.3234,-2.2931,-2.2897,-2.3508,-2.3056,-2.2448,-2.1739,-2.1111,-2.0438,-1.9738,-1.9678,-1.9331,-1.8672,-1.6713,0.0,0.0,0.0,0.0,0.0,0.0,0.0,0.0,0.0,0.0,0.0,0.0,0.0,0.0,0.0,0.0,0.0,0.0,0.0,0.0,0.0,0.0,0.0,0.0,0.0,0.0,0.0,0.0,-2.8155,-3.0939,0.0,0.0,-3.2179,-3.3628,-3.4486,-3.6046,-3.7679,-3.9297,-4.0432,-4.087,-4.0574,-4.1099,-4.0839,-3.9706,-3.9977,-4.0096,-4.0096,-4.0096,-3.9662,-3.8908,-3.9437,-3.8995,-3.7777,-3.7515,-3.7084,-3.6492,-3.5028,-3.4038,-3.3365,-3.2691,-3.2287,-3.2138,-3.2347,-3.2287,-3.2138,-3.2347,-3.2287,-3.1988,-3.1331,-3.0283,-2.9217,-2.8963,-2.8723,-2.8678,-2.928,-2.9639,-3.0043,-3.0898,-3.1137,-3.1197,-3.1451,-3.1128,-3.0557,-2.9885,-2.8344,-2.6666,-2.5137,-2.3597,-2.2321,-2.165,-2.1608,-2.1386,-2.0517,-2.1142,-2.1794,-2.1995,-2.2074,-2.2445,-2.3301,-2.2979,-2.2942,-2.3551,-2.3062,-2.2418,-2.1739,-2.1062,-2.0408,-1.9738,-1.9708,-1.9588,-1.9346,-1.7819,-1.607,0.0,0.0,0.0,0.0,0.0,0.0,0.0,0.0,0.0,0.0,0.0,0.0,0.0,0.0,0.0,0.0,0.0,0.0,0.0,0.0,0.0,0.0,0.0,0.0,0.0,0.0,-2.9821,-3.0689,-3.334,-3.4881,-3.4316,-3.5701,-3.7129,-3.823,-3.9313,-4.0506,-4.1846,-4.2415,-4.2432,-4.1814,-4.181,-4.1241,-4.0096,-4.0096,-4.0096,-4.0096,-4.0096,-3.9808,-3.9315,-3.9876,-3.9252,-3.7793,-3.7793,-3.7189,-3.6196,-3.5701,-3.5235,-3.4786,-3.4337,-3.4173,-3.4173,-3.4173,-3.4023,-3.3799,-3.3574,-3.3499,-3.335,-3.2452,-3.1614,-3.0851,-3.0642,-3.0567,-3.0612,-3.0791,-3.0851,-3.0928,-3.1391,-3.1511,-3.1511,-3.1511,-3.1511,-3.1159,-2.9914,-2.8896,-2.7717,-2.6029,-2.4458,-2.3095,-2.2209,-2.2347,-2.2347,-2.1606,-2.2121,-2.2673,-2.2923,-2.3045,-2.3257,-2.3729,-2.3512,-2.3415,-2.3603,-2.2853,-2.2179,-2.1724,-2.0857,-2.0168,-1.9723,-1.9708,-1.9708,-1.9708,-1.8204,-1.6393,-1.4267,0.0,0.0,0.0,0.0,0.0,0.0,0.0,0.0,0.0,0.0,0.0,0.0,0.0,0.0,0.0,0.0,0.0,0.0,0.0,0.0,0.0,0.0,0.0,-2.6658,-2.9045,-3.1409,-3.3034,-3.5357,-3.7033,-3.7594,-3.909,-4.0653,-4.2213,-4.2341,-4.2671,-4.346,-4.3515,-4.2977,-4.1853,-4.181,-4.1241,-4.0096,-4.0096,-4.0096,-4.0096,-4.0096,-4.0096,-4.0096,-4.007,-3.9226,-3.7793,-3.7764,-3.689,-3.5504,-3.5504,-3.5504,-3.5504,-3.5504,-3.5504,-3.5504,-3.5504,-3.5085,-3.4444,-3.3784,-3.3544,-3.3529,-3.3529,-3.3514,-3.338,-3.2736,-3.2542,-3.2378,-3.172,-3.1525,-3.1525,-3.1511,-3.1511,-3.1511,-3.1511,-3.1511,-3.1278,-3.0419,-2.9193,-2.7934,-2.7025,-2.5338,-2.3841,-2.3233,-2.3108,-2.3108,-2.3108,-2.3138,0.0,-2.4205,-2.438,-2.4461,-2.449,-2.457,-2.4335,-2.3655,-2.2428,-2.1695,-2.1695,-2.0441,-1.9708,-1.9738,-1.9738,-1.972,-1.972,-1.7844,-1.6019,-1.4252,0.0,0.0,0.0,0.0,0.0,0.0,0.0,0.0,0.0,0.0,0.0,0.0,0.0,0.0,0.0,0.0,0.0,0.0,0.0,0.0,0.0,0.0,-3.1126,-3.0503,-3.217,-3.4128,-3.5936,-3.8198,-3.9964,-4.0899,-4.1901,-4.2707,-4.313,-4.3167,-4.3276,-4.3496,-4.3515,-4.2977,-4.1853,-4.181,-4.1241,-4.0096,-4.0096,-4.0096,-4.0096,-4.0096,-4.0096,-4.007,-3.9489,-3.8707,-3.7764,-3.7174,-3.6384,-3.5504,-3.5504,-3.5504,-3.5504,-3.5504,-3.5504,-3.5504,-3.5504,-3.5385,-3.519,-3.5011,-3.4622,-3.4234,-3.4234,-3.3888,-3.3469,-3.3275,-3.323,-3.3095,-3.2392,-3.2213,-3.2108,-3.163,-3.1511,-3.1511,-3.1511,-3.1511,-3.1117,-2.9659,-2.9053,-2.8207,-2.6309,-2.5208,-2.4418,-2.3853,-2.3384,-2.3108,-2.3108,-2.359,0.0,-2.4263,-2.4818,-2.5018,-2.454,-2.457,-2.4335,-2.3655,-2.2428,-2.1695,-2.1695,-2.0441,-1.9914,-2.0408,-2.0438,-2.0254,-1.9861,-1.7705,-1.6166,0.0,0.0,0.0,0.0,0.0,0.0,0.0,0.0,0.0,0.0,0.0,0.0,0.0,0.0,0.0,0.0,0.0,0.0,0.0,0.0,0.0,0.0,-3.2763,-3.4828,-3.535,-3.5867,-3.6876,-3.8845,-4.0224,-4.1498,-4.2677,-4.3222,-4.3515,-4.3515,-4.3515,-4.3515,-4.3515,-4.3515,-4.2977,-4.1853,-4.181,-4.1241,-4.0096,-4.0096,-4.0096,-4.0096,-4.0096,-4.0096,-4.007,-3.9262,-3.8497,0.0,-3.6934,-3.6165,-3.5504,-3.5504,-3.5504,0.0,0.0,0.0,0.0,0.0,-3.575,-3.5522,-3.5863,-3.5478,-3.4906,-3.4906,-3.4651,-3.4277,-3.3993,-3.3903,-3.3709,-3.2781,-3.2512,-3.2333,-3.1675,-3.1511,-3.1511,-3.1511,-3.1511,-3.1161,-2.9827,-2.9254,-2.8511,-2.681,-2.5762,0.0,-2.4443,-2.3647,-2.3215,-2.3543,-2.4002,-2.4509,-2.5147,-2.5621,-2.5792,-2.5404,-2.5147,-2.4739,-2.4066,-2.2847,0.0,0.0,0.0,-2.0597,-2.0715,-2.0695,0.0,0.0,0.0,0.0,0.0,0.0,0.0,0.0,-1.5056,-1.5337,0.0,0.0,0.0,0.0,0.0,0.0,0.0,0.0,0.0,0.0,0.0,0.0,0.0,0.0,0.0,0.0,-3.681,-3.798,-4.0203,-3.9677,-3.9673,-4.1323,-4.1576,-4.2123,-4.3371,-4.3515,-4.3515,-4.3515,-4.3515,-4.3515,-4.3515,0.0,0.0,0.0,0.0,-4.1328,-4.0096,-4.018,-4.018,-4.0096,-4.0096,-4.0096,-4.007,-3.9262,-3.8497,-3.7764,-3.6934,-3.6165,-3.5504,-3.5504,-3.5554,-3.5619,-3.5537,-3.5504,-3.5587,-3.6337,-3.6134,-3.5619,-3.6337,0.0,0.0,-3.5504,-3.5504,-3.5385,-3.4771,-3.4563,-3.4249,-3.2976,-3.2572,-3.2333,-3.1675,-3.1511,-3.1511,-3.1511,-3.1511,-3.1248,-3.0359,-2.9535,-2.8716,-2.7769,-2.6499,-2.5468,-2.4992,-2.4053,-2.356,-2.4218,-2.4423,-2.5007,-2.6336,-2.6563,-2.6619,-2.6598,0.0,0.0,-2.4664,-2.349,-2.2763,-2.2703,-2.2149,-2.1508,-2.0838,-2.0817,-2.0286,-1.914,-1.9051,-1.8727,-1.8204,-1.8267,-1.8329,-1.8342,-1.6735,-1.6835,0.0,0.0,0.0,0.0,0.0,0.0,0.0,0.0,0.0,0.0,0.0,0.0,0.0,0.0,0.0,-3.6009,-3.852,-4.0632,-4.1765,-4.228,-4.2285,-4.1596,-4.2082,-4.2739,-4.3426,-4.3515,-4.3515,-4.3515,-4.3515,-4.3515,-4.3515,-4.3515,0.0,-4.1853,-4.2373,-4.1852,-4.0113,-4.0679,-4.0679,-4.0096,0.0,0.0,-4.007,-3.9262,-3.8497,-3.7764,-3.6934,-3.6165,-3.5504,-3.5504,-3.5831,-3.6337,-3.5718,-3.5504,-3.5587,-3.6337,-3.6134,-3.5619,-3.6337,-3.6117,-3.5504,-3.5504,-3.5504,-3.5489,-3.5355,-3.4921,0.0,-3.3529,-3.2916,-3.2333,-3.1675,-3.1511,-3.1511,-3.1511,-3.1511,-3.1087,-2.9566,-2.9129,-2.8556,-2.704,-2.6123,-2.5608,-2.5693,-2.5153,-2.4626,-2.4329,-2.5315,-2.6176,-2.6457,-2.7008,-2.7195,-2.6662,-2.6482,-2.5914,-2.4709,-2.3879,-2.3227,-2.2733,-2.2583,-2.2209,-2.1528,-2.1506,-2.0966,-1.9837,-1.9272,-1.8727,-1.8204,-1.8619,-1.9058,-1.9459,-1.8279,-1.8355,0.0,0.0,0.0,0.0,0.0,0.0,0.0,0.0,0.0,0.0,0.0,-3.1182,0.0,0.0,-3.7389,-3.9038,-4.0653,-4.1992,-4.2782,-4.324,-4.3245,-4.2576,-4.285,-4.3214,-4.3462,-4.3515,-4.3515,-4.3515,-4.3515,-4.368,-4.4085,-4.3798,-4.3433,-4.2965,-4.3014,-4.2462,-4.1213,-4.1204,-4.1018,-4.0646,-4.0282,-4.0096,-4.0045,-3.887,-3.8149,-3.7719,-3.6554,-3.5831,-3.5504,-3.5504,-3.5911,-3.6554,-3.6196,-3.6305,-3.6692,-3.707,-3.6722,-3.6117,-3.6477,-3.6117,-3.5504,-3.5504,-3.5504,-3.5504,-3.5504,-3.5265,-3.4786,-3.3784,-3.326,-3.2781,-3.1765,-3.1511,-3.1511,-3.1511,-3.1511,-3.1161,-2.9919,-2.9659,-2.9286,-2.7986,-2.7518,-2.725,-2.7089,-2.687,-2.6419,-2.5536,-2.6041,-2.6642,-2.7008,-2.7382,-2.7465,-2.7151,-2.6806,-2.6318,-2.5674,-2.4687,-2.3834,-2.3176,-2.2875,-2.241,-2.1741,-2.1412,-2.0826,-1.9933,-1.9564,-1.9277,-1.9007,-1.9572,-1.9987,-2.0251,-1.9974,-2.0275,0.0,0.0,0.0,0.0,0.0,0.0,0.0,0.0,-2.9375,-3.0483,-3.2988,-3.5404,-3.6743,-3.8303,-4.0047,-4.1992,-4.2433,-4.2763,-4.3423,-4.3515,-4.3515,-4.3515,-4.3515,-4.3515,-4.3515,-4.3515,-4.3515,-4.3515,-4.3515,-4.3811,-4.4492,-4.4062,-4.3844,-4.3913,-4.3582,-4.3065,-4.2313,-4.1847,-4.1491,-4.1204,-4.0595,-4.0248,-4.0045,-3.8652,-3.7921,-3.769,-3.6179,-3.5504,-3.5504,-3.5636,-3.6149,-3.6813,-3.6813,-3.7411,-3.8234,-3.8064,-3.7499,-3.6813,-3.6813,-3.6352,-3.5701,-3.5569,-3.5504,-3.5504,-3.5504,-3.5415,-3.507,-3.3993,-3.3499,-3.3066,-3.1974,-3.16,-3.1511,-3.1511,-3.1511,-3.1278,-3.0464,-3.0299,-3.0042,-2.916,-2.9002,-2.8872,-2.8477,-2.835,-2.7937,-2.687,-2.6715,-2.693,-2.7509,-2.76,-2.76,-2.76,-2.7121,-2.6746,-2.6602,-2.5495,-2.45,-2.3849,-2.3221,-2.2557,-2.1734,-2.122,-2.064,-2.0,-2.0075,-2.0125,-2.0125,-2.0629,-2.0905,-2.1018,-2.1443,-2.1882,-2.1389,-2.2241,0.0,-2.6077,-2.6883,-2.8448,0.0,0.0,-3.4194,-3.6379,-3.8097,-3.9258,-3.946,-4.0818,-4.1992,-4.2268,-4.2892,-4.3387,-4.3496,-4.3515,-4.3515,-4.3515,-4.3515,-4.3515,-4.3515,-4.3515,-4.3515,-4.3515,-4.3515,-4.3615,-4.3889,-4.3846,-4.3654,-4.3305,-4.385,-4.3572,-4.2313,-4.2878,-4.2479,-4.1204,-4.1119,-4.073,-4.007,-3.9166,-3.8414,-3.769,-3.6179,-3.5504,-3.5554,-3.6196,-3.695,-3.7661,-3.7661,-3.8569,-3.9756,-3.9032,-3.8302,-3.7661,-3.7661,-3.713,-3.6368,-3.5701,-3.5504,-3.5504,-3.5504,-3.507,-3.4593,-3.4444,-3.3529,-3.2587,-3.2437,-3.1944,-3.1511,-3.1511,-3.1511,-3.1278,-3.0464,-3.0299,-3.0042,-2.916,-2.9002,-2.9028,-2.9153,-2.8684,-2.8095,-2.7474,-2.7427,-2.7524,-2.76,-2.76,-2.76,-2.76,-2.7525,-2.7255,-2.6632,-2.5914,-2.5187,-2.453,-2.3917,-2.3022,-2.1748,-2.1573,-2.1212,-2.0618,-2.1081,-2.1305,-2.1305,-2.1395,-2.1644,-2.2133,-2.2184,-2.2246,-2.453,0.0,0.0,0.0,-2.928,-3.135,-3.3665,-3.5069,-3.6364,-3.815,-3.9714,-4.0884,-4.1227,-4.2231,-4.3002,0.0,-4.3277,-4.3515,-4.3515,-4.3515,-4.3515,-4.3515,-4.3515,-4.3515,-4.3515,-4.3515,-4.3515,-4.3515,-4.3616,-4.3917,-4.4478,-4.425,-4.423,-4.4541,-4.4507,-4.4211,-4.365,-4.3487,-4.3088,-4.2489,-4.2049,-4.1441,-4.0704,-3.9468,-3.7998,-3.643,-3.5765,-3.575,-3.6165,-3.6477,-3.7336,-3.8442,-3.8442,-3.9129,-3.9952,-3.8707,-3.833,-3.8386,-3.795,-3.7263,-3.6554,-3.6259,-3.5831,-3.5504,-3.5504,-3.5295,-3.4996,-3.4623,-3.3799,-3.2991,-3.2617,-3.1989,-3.1511,-3.1511,-3.1511,-3.1278,-3.0464,-3.0673,-3.0748,-2.9919,-3.0133,-3.0467,-3.0573,-3.0013,-2.9394,-2.8815,-2.8077,-2.76,-2.76,-2.76,-2.76,-2.76,-2.76,-2.733,-2.6647,-2.6333,-2.5899,-2.5217,-2.4206,-2.3392,-2.284,-2.1983,-2.1417,-2.1169,-2.1408,-2.1493,-2.1493,-2.1807,-2.2083,-2.2322,-2.2606,-2.2757,-2.5917,0.0,0.0,-2.9036,-3.1534,-3.3886,-3.4503,-3.6262,-3.8033,-3.9033,-4.0281,-4.1264,-4.1505,-4.2195,0.0,-4.2741,-4.3032,-4.3268,-4.3268,-4.341,-4.3515,-4.3515,-4.3375,-4.3268,-4.3268,-4.341,-4.3427,-4.3286,-4.3589,-4.4009,-4.4468,-4.4375,-4.4595,-4.5224,-4.4841,-4.4615,-4.4615,-4.4012,-4.3639,-4.3375,-4.2861,-4.2219,-4.1439,-3.9699,-3.7759,-3.5782,-3.5587,-3.5926,-3.6615,-3.6843,-3.7716,-3.8908,-3.8908,-3.9394,-3.9927,-3.8596,-3.8442,-3.8799,-3.8064,-3.7263,-3.6584,-3.6353,-3.5958,-3.5504,-3.5504,-3.5504,-3.5355,-3.4698,-3.4039,-3.335,-3.2677,-3.1989,-3.1511,-3.1511,-3.1511,-3.1351,-3.0777,-3.1087,-3.1322,-3.0748,-3.1087,-3.1511,-3.1511,-3.0928,-3.0298,-2.9696,-2.8618,-2.7809,-2.7615,-2.76,-2.76,-2.76,-2.76,-2.7405,-2.6926,-2.6881,-2.6499,-2.5636,-2.4489,-2.3676,-2.3291,-2.2273,-2.1719,-2.1719,-2.187,-2.1945,-2.1945,-2.2347,-2.2506,-2.2518,-2.292,-2.3108,0.0,0.0,-2.972,-3.1775,-3.3901,-3.609,-3.8311,-3.9271,-3.9713,-3.9753,-4.0291,-4.0514,-3.9809,-4.0306,-4.0783,-4.0783,-4.188,-4.2713,-4.2713,-4.3178,-4.3515,-4.3515,-4.3032,-4.2713,0.0,-4.3196,-4.3286,-4.2769,-4.3395,-4.3636,-4.3263,-4.3919,-4.4396,-4.4637,-4.4598,-4.4615,-4.4615,-4.4581,-4.4164,-4.3392,-4.3375,-4.298,-4.2192,-3.994,-3.806,-3.6523,-3.5814,-3.5926,-3.6661,-3.7456,-3.8218,-3.8908,-3.8908,-3.9394,-3.9995,-3.9166,-3.8881,-3.8799,-3.8064,-3.7263,-3.6461,-3.575,-3.5537,-3.5504,-3.5504,-3.5504,-3.5355,-3.4698,-3.4039,-3.335,-3.2677,-3.1989,-3.1511,-3.1511,-3.1511,-3.1511,-3.1467,-3.1467,-3.1511,-3.1467,-3.1467,-3.1511,-3.1511,-3.0928,-3.0298,-2.9696,-2.9011,-2.8323,-2.769,-2.76,-2.76,-2.76,-2.76,-2.7585,-2.757,-2.757,-2.698,-2.5582,-2.484,-2.3877,-2.2497,-2.2324,-2.2284,-2.2284,-2.2782,-2.3058,-2.3058,-2.307,-2.3083,-2.3083,-2.3095,-2.3108,0.0,0.0,-3.1945,-3.3566,-3.5596,-3.7394,-3.8169,-3.8822,-3.9378,-3.9743,-3.9177,-3.8687,-3.8842,-3.9079,-3.9396,-3.9893,-4.076,-4.1674,-4.2563,-4.2864,-4.3105,-4.3444,-4.3032,0.0,0.0,0.0,0.0,-4.2121,-4.2904,-4.3523,-4.3769,-4.462,-4.5311,-4.5783,-4.5425,-4.5205,-4.5205,-4.4786,-4.4479,-4.4181,-4.3673,-4.3003,-4.2221,-3.9937,-3.8329,-3.7297,-3.6553,-3.6661,-3.7456,-3.8218,-3.8978,-3.9705,-3.9705,-3.9876,-4.007,-3.9808,-3.9342,-3.8935,-3.9226,-3.8816,-3.7987,-3.7265,-3.6677,-3.6134,-3.5636,-3.5504,-3.5459,-3.522,-3.4352,-3.344,-3.3215,-3.2333,-3.1511,-3.1511,-3.1511,-3.1511,-3.1511,-3.1511,-3.1511,-3.1511,-3.1511,-3.1511,-3.1511,-3.1316,-3.0821,-2.9771,-2.8663,-2.7869,-2.763,-2.76,-2.76,-2.76,-2.76,-2.76,-2.76,-2.76,-2.7176,-2.622,-2.5487,-2.4668,-2.3698,-2.3131,-2.2832,-2.2832,-2.3007,-2.3108,-2.3108,-2.3108,-2.3108,-2.3108,-2.3108,-2.3108,0.0,-3.2481,-3.3885,-3.5542,-3.7152,-3.8361,-3.8361,-3.8681,-3.8788,-3.8048,-3.7145,-3.6467,-3.6319,-3.6501,-3.7093,-3.8402,-3.9371,-4.0464,-4.1858,-4.2223,-4.2598,-4.316,-4.2967,0.0,0.0,0.0,0.0,-4.1508,-4.2742,-4.3617,-4.381,-4.5093,-4.6014,-4.6383,-4.579,-4.5511,-4.5511,-4.4906,-4.4615,-4.4598,-4.4079,-4.33,-4.2249,-4.0504,-3.9149,-3.8104,-3.7363,-3.7469,-3.8234,-3.8718,-3.9368,-4.0096,-4.0096,-4.0096,-4.0096,-4.0096,-3.9782,-3.9342,-3.9584,-3.8962,-3.7987,-3.7528,-3.6828,-3.6117,-3.5636,-3.5504,-3.5415,-3.4921,-3.4158,-3.338,-3.2916,-3.2138,-3.1511,-3.1511,-3.1511,-3.1511,-3.1511,-3.1511,-3.1511,-3.1511,-3.1511,-3.1511,-3.1511,-3.1301,-3.0806,-2.9771,-2.8663,-2.7869,-2.763,-2.76,-2.76,-2.76,-2.76,-2.76,-2.76,-2.76,-2.728,-2.6537,-2.581,-2.5063,-2.4321,-2.3543,-2.3108,-2.3108,-2.3108,-2.3108,-2.3108,-2.3108,-2.3108,-2.3108,-2.3108,-2.3108,-3.1693,-3.3505,-3.5601,-3.7623,-3.8564,-3.8988,-3.8988,-3.887,-3.7939,-3.503,-3.432,-3.3778,0.0,0.0,-3.4015,-3.6271,-3.7756,-3.917,-4.0695,-4.1437,-4.205,0.0,0.0,0.0,0.0,0.0,0.0,-4.1169,0.0,-4.392,-4.3489,-4.5358,-4.6454,-4.6454,-4.584,-4.552,-4.5511,-4.4906,-4.4615,-4.4615,-4.4615,-4.3819,-4.2337,-4.1544,-4.0369,-3.8903,-3.8193,-3.8246,-3.8908,-3.8935,-3.9411,-4.0096,-4.0096,-4.0096,-4.0096,-4.0096,-4.007,-3.9927,-3.9166,-3.793,-3.6722,-3.6661,-3.618,-3.5554,-3.5504,-3.5504,-3.5235,-3.3918,-3.3529,-3.32,-3.1884,-3.1525,-3.1511,-3.1511,-3.1511,-3.1511,-3.1511,-3.1511,-3.1511,-3.1511,-3.1511,-3.1511,-3.1511,-3.0928,-3.0313,-2.9714,-2.9041,-2.8353,-2.769,-2.76,-2.76,-2.76,-2.76,-2.76,-2.76,-2.76,-2.728,-2.6537,-2.581,-2.5063,-2.4321,-2.3543,-2.3108,-2.3108,-2.3108,-2.3108,-2.3108,-2.3108,-2.3108,-2.3108,-2.3108,-2.3108,-3.4979,-3.6716,-3.8209,-3.9295,-3.9277,-3.8988,-3.8988,-3.7263,-3.5267,-3.3947,-3.1918,-3.0091,-2.9127,0.0,0.0,-3.3998,-3.6418,0.0,-4.0625,-4.1557,0.0,0.0,0.0,-4.3877,-4.4027,-4.3961,0.0,0.0,-4.3814,-4.4512,-4.5487,-4.6546,-4.715,-4.715,-4.6501,-4.5965,-4.5494,-4.4906,-4.4615,-4.4615,-4.4615,-4.4079,-4.3088,-4.1793,-4.0694,-3.9743,-3.8963,-3.8718,-3.8935,-3.9542,-3.9927,-4.0096,-4.0096,-4.0096,-4.0096,-4.0096,-3.9731,-3.9166,-3.8962,-3.8646,-3.8213,-3.7674,-3.695,-3.6228,-3.5668,-3.5504,-3.5325,-3.4488,-3.3873,-3.3305,-3.2452,-3.1869,-3.1511,-3.1511,-3.1511,-3.1511,-3.1511,-3.1511,-3.1511,-3.1511,-3.1511,-3.1511,-3.1511,-3.0928,-3.0447,-3.0298,-2.9325,-2.8353,-2.769,-2.76,-2.76,-2.76,-2.76,-2.76,-2.76,-2.76,-2.728,-2.6537,-2.581,-2.5063,-2.4321,-2.3543,-2.3108,-2.3108,-2.3108,-2.3108,-2.3108,-2.3108,-2.3108,-2.3108,-2.3108,-2.3108,-3.7168,-3.8623,-3.9588,-3.9994,-3.9554,-3.865,-3.7313,-3.5453,-3.3339,-3.0954,-2.9127,0.0,0.0,0.0,0.0,0.0,0.0,0.0,-3.9785,-4.0717,-4.1561,0.0,-4.3261,0.0,-4.4942,-4.5043,-4.5337,0.0,-4.5412,-4.543,-4.6254,-4.6991,-4.7406,-4.7406,-4.6478,-4.5707,-4.5115,-4.4759,-4.4615,-4.4615,-4.4231,-4.3673,-4.2868,-4.173,-4.0798,-4.0064,0.0,-3.9437,-3.9463,-3.9927,-4.0096,-4.0096,-4.0096,-4.0096,-4.0096,-4.0096,-3.9808,-3.9437,-3.9437,-3.8978,-3.8302,-3.7528,-3.6753,-3.6023,-3.5619,-3.5504,-3.5355,-3.4698,-3.4234,-3.3709,-3.2766,-3.2213,-3.1854,-3.157,-3.1511,-3.1511,-3.1511,-3.1511,-3.1511,-3.1511,-3.1511,-3.1511,-3.1511,-3.1182,-3.0823,-3.0552,-2.9669,-2.8786,-2.8139,-2.7779,-2.76,-2.76,-2.76,-2.76,-2.76,-2.76,-2.7408,-2.7008,-2.6283,-2.5701,-2.5287,-2.4525,-2.4121,-2.4121,-2.4121,-2.3959,-2.3632,-2.3959,-2.3754,-2.3108,-2.3454,-2.3454,-3.8548,-3.9622,-4.0079,-3.9977,-3.9334,-3.7939,-3.5013,-3.3558,-3.163,-2.7418,0.0,0.0,-2.5304,0.0,-2.8601,-3.1532,0.0,-3.6417,-3.8667,-3.9723,-4.0721,-4.1985,-4.2923,-4.4143,-4.5925,-4.6166,-4.6726,-4.7961,-4.6959,-4.6353,-4.6434,-4.7045,-4.732,-4.715,-4.6007,-4.5142,-4.4615,-4.4615,-4.4564,-4.4418,-4.3741,-4.298,-4.2117,-4.1491,-4.0798,-4.0096,0.0,0.0,-4.0096,-4.0096,-4.0096,-4.0096,-4.0096,-4.0096,-4.0096,-4.0096,-4.002,-3.9927,-3.9927,-3.8995,-3.769,-3.701,-3.618,-3.5504,-3.5504,-3.5504,-3.5355,-3.4698,-3.4503,-3.4204,-3.2856,-3.2512,-3.2318,-3.166,-3.1511,-3.1511,-3.1511,-3.1511,-3.1511,-3.1511,-3.1511,-3.1511,-3.1511,-3.1511,-3.1301,-3.0731,-3.0103,-2.946,-2.8816,-2.8079,-2.76,-2.76,-2.76,-2.76,-2.76,-2.76,-2.76,-2.76,-2.6904,-2.651,-2.651,-2.5783,-2.5398,-2.5398,-2.5398,-2.5091,-2.4452,-2.5091,-2.4667,-2.3275,-2.3972,-2.3855,-3.9462,-4.0011,-3.996,-3.9326,-3.8183,-3.6558,-3.4134,-3.1613,0.0,0.0,0.0,-2.3748,-2.3021,-2.5084,0.0,-3.0091,0.0,0.0,0.0,0.0,-4.1323,0.0,0.0,0.0,0.0,0.0,0.0,0.0,0.0,-4.6628,-4.7186,-4.7334,-4.691,-4.5858,-4.5142,-4.4692,-4.4615,-4.4615,-4.4265,-4.3623,-4.346,-4.2682,-4.139,-4.1271,-4.0798,-4.0096,-4.0096,0.0,-4.0096,-4.0096,-4.0096,-4.0096,-4.0096,-4.0096,-4.0096,-4.0096,-3.9662,-3.9113,-3.9113,-3.8525,-3.7793,-3.7632,-3.6631,-3.5504,-3.5504,-3.5504,-3.5355,-3.4698,-3.4503,-3.4204,-3.2856,-3.2512,-3.2318,-3.166,-3.1511,-3.1511,-3.1511,-3.1511,-3.1511,-3.1511,-3.1511,-3.1511,-3.1511,-3.1511,-3.1466,-3.1346,-3.0776,-3.0118,-2.9517,-2.8364,-2.76,-2.76,-2.76,-2.76,-2.76,-2.76,-2.76,-2.76,-2.6904,-2.651,-2.651,-2.5783,-2.5398,-2.5398,-2.5398,-2.5342,-2.5203,-2.5342,-2.4951,-2.4089,-2.4234,-2.3855,-3.9148,-3.9808,-3.9926,-3.9174,-3.7895,-3.5898,-3.2459,0.0,0.0,0.0,0.0,-2.2733,-2.2364,0.0,0.0,0.0,0.0,0.0,0.0,0.0,0.0,0.0,0.0,0.0,0.0,0.0,0.0,0.0,0.0,-4.6548,-4.6864,-4.6571,-4.5982,-4.5062,-4.4748,-4.4615,-4.4615,-4.4181,-4.3792,-4.3375,-4.2615,-4.1897,-4.1187,-4.0798,-4.0434,-4.0096,-4.0096,0.0,-4.0096,-4.0096,-4.0096,-4.0096,-4.0096,-4.0096,-4.0096,-4.0096,-3.9876,-3.9516,-3.9516,-3.9005,-3.8358,-3.8358,-3.7322,-3.6054,-3.6054,-3.5814,-3.5429,-3.51,-3.5011,-3.4696,-3.3365,-3.3021,-3.2766,-3.1735,-3.1511,-3.1511,-3.1511,-3.1511,-3.1511,-3.1511,-3.1511,-3.1511,-3.1511,-3.1511,-3.1511,-3.1511,-3.0913,-3.0402,-3.0103,-2.8921,-2.8004,-2.763,-2.76,-2.76,-2.76,-2.76,-2.76,-2.76,-2.728,-2.706,-2.706,-2.6733,-2.6534,-2.6534,-2.6534,-2.6162,-2.5398,-2.5783,-2.5161,-2.3679,-2.4089,-2.3855,-3.8548,-3.9436,-3.969,-3.8937,-3.754,-3.5187,-3.0852,-2.8551,0.0,0.0,0.0,-2.2296,-2.2296,0.0,0.0,0.0,0.0,0.0,0.0,0.0,0.0,0.0,0.0,0.0,0.0,0.0,0.0,0.0,0.0,0.0,-4.5969,-4.5561,-4.4934,-4.4124,-4.4276,-4.4276,-4.4124,-4.3487,-4.3071,-4.2902,-4.1762,-4.1119,-4.0933,-4.0367,-4.0096,-4.0096,-4.0096,0.0,0.0,-4.0096,-4.0096,-4.0096,-4.0096,-4.0096,-4.0096,-4.0096,-4.0096,-4.0096,-4.0096,-3.9705,-3.9166,-3.9166,-3.7987,-3.6615,-3.6615,-3.6086,-3.5504,-3.5504,-3.5504,-3.519,-3.3844,-3.3499,-3.3155,-3.1824,-3.1511,-3.1511,-3.1511,-3.1511,-3.1511,-3.1511,-3.1511,-3.1511,-3.1511,-3.1511,-3.1511,-3.1511,-3.1047,-3.0672,-3.0522,-2.9505,-2.8547,-2.7899,-2.769,-2.76,-2.76,-2.76,-2.76,-2.76,-2.76,-2.76,-2.76,-2.76,-2.76,-2.76,-2.76,-2.6941,-2.5646,-2.639,-2.5659,-2.3619,-2.4381,-2.425,-3.8396,-3.9039,-3.892,-3.8193,-3.6332,-3.3728,-2.9958,0.0,0.0,0.0,-2.2296,-2.2296,-2.2296,0.0,0.0,0.0,0.0,0.0,0.0,0.0,0.0,0.0,0.0,0.0,0.0,0.0,0.0,0.0,0.0,0.0,-4.4555,-4.4649,-4.401,-4.2567,-4.3166,-4.32,-4.2506,-4.2422,-4.2066,-4.1407,-4.1271,-4.0849,-4.0197,-4.013,-4.0096,-4.0096,-4.0096,0.0,0.0,-4.0096,-4.0096,-4.0096,-4.0096,-4.0096,-4.0096,-4.0096,-4.0096,-4.0096,-4.0096,-4.0045,-3.9995,-3.9995,-3.8453,-3.6615,-3.6615,-3.6086,-3.5504,-3.5504,-3.5504,-3.519,-3.3844,-3.3499,-3.3155,-3.1824,-3.1511,-3.1511,-3.1511,-3.1511,-3.1511,-3.1511,-3.1511,-3.1511,-3.1511,-3.1511,-3.1511,-3.1511,-3.1451,-3.1182,-3.0582,-2.9909,-2.9235,-2.8577,-2.7974,-2.76,-2.76,-2.76,-2.76,-2.76,-2.76,-2.76,-2.76,-2.76,-2.76,-2.76,-2.76,-2.7188,-2.6404,-2.7137,-2.6692,-2.5203,-2.596,-2.5536,-3.6349,-3.7635,-3.8159,-3.7415,-3.552,-3.2983,-2.9738,0.0,0.0,-2.2753,-2.2296,-2.2296,-2.2296,-2.2533,-2.3173,0.0,0.0,0.0,0.0,0.0,0.0,0.0,0.0,0.0,0.0,0.0,0.0,0.0,0.0,0.0,-4.2501,-4.2964,-4.2912,-4.2303,-4.2574,-4.2591,-4.2286,-4.1863,-4.1491,-4.1204,-4.0747,-4.0383,-4.0096,-4.0096,-4.0096,-4.0096,-4.0096,0.0,0.0,-4.0096,-4.0096,-4.0096,-4.0096,-4.0096,-4.0096,-4.0096,-4.0096,-4.0096,-4.0096,-4.0096,-4.0096,-4.0096,-3.8843,-3.7338,-3.7338,-3.6477,-3.5504,-3.5504,-3.5205,-3.4666,-3.3739,-3.2901,-3.2153,-3.163,-3.1511,-3.1511,-3.1511,-3.1511,-3.1511,-3.1511,-3.1511,-3.1511,-3.1511,-3.1511,-3.1511,-3.1511,-3.1511,-3.1406,-3.1137,-3.0223,-2.9517,-2.922,-2.8244,-2.76,-2.76,-2.76,-2.76,-2.76,-2.76,-2.76,-2.76,-2.76,-2.76,-2.76,-2.76,-2.7229,-2.651,-2.68,-2.6416,-2.5398,-2.5701,-2.5287,-3.4349,-3.591,-3.6772,-3.6254,-3.4421,-3.2036,0.0,0.0,-2.4712,-2.2702,-2.2296,-2.2296,-2.2296,-2.2296,-2.2533,0.0,-2.3765,-2.5287,-2.884,0.0,0.0,0.0,0.0,0.0,0.0,0.0,0.0,0.0,0.0,0.0,0.0,-4.1491,-4.1644,-4.1644,-4.1847,-4.1863,-4.1644,-4.1119,-4.0865,-4.0865,-4.0367,-4.0096,-4.0096,-4.0096,-4.0096,-4.0096,0.0,0.0,0.0,-4.0096,-4.0096,-4.0096,-4.0096,-4.0096,-4.0096,-4.0096,-4.0096,-4.0096,-4.0096,-4.0096,-4.0096,-4.0096,-3.9183,-3.8121,-3.8121,-3.689,-3.5504,-3.5504,-3.4861,-3.4038,-3.338,-3.2348,-3.1511,-3.1511,-3.1511,-3.1511,-3.1511,-3.1511,-3.1511,-3.1511,-3.1511,-3.1511,-3.1511,-3.1511,-3.1511,-3.1511,-3.1511,-3.1436,-3.1227,-3.0268,-2.9532,-2.9337,-2.8289,-2.76,-2.76,-2.76,-2.76,-2.76,-2.76,-2.76,-2.76,-2.76,-2.76,-2.76,-2.76,-2.7229,-2.651,-2.6721,-2.6443,-2.5742,-2.6143,-2.5994,-3.2831,-3.3964,-3.4523,-3.4544,-3.2848,-3.0615,0.0,-2.6099,-2.4085,-2.2615,-2.2296,-2.2296,-2.2296,-2.2296,-2.2533,-2.3274,-2.4628,0.0,0.0,0.0,0.0,0.0,0.0,0.0,0.0,0.0,0.0,0.0,0.0,0.0,0.0,-4.0536,-4.013,-4.013,-4.0832,-4.0849,-4.013,-4.013,-4.0113,-4.0113,-4.0096,-4.0096,-4.0096,-4.0096,-4.0096,0.0,0.0,0.0,0.0,-4.0096,-4.0096,-4.0096,-4.0096,-4.0096,-4.0096,-4.0096,-4.0096,-4.0096,-4.0096,-4.0096,-4.0096,-4.0096,-3.9542,-3.8881,-3.8881,-3.7293,-3.5504,-3.5504,-3.4532,-3.335,-3.2691,-3.2004,-3.1511,-3.1511,-3.1511,-3.1511,-3.1511,-3.1511,-3.1511,-3.1511,-3.1511,-3.1511,-3.1511,-3.1511,-3.1511,-3.1511,-3.1511,-3.1256,-3.0612,-2.9968,-2.9367,-2.8682,-2.8004,-2.76,-2.76,-2.76,-2.76,-2.76,-2.76,-2.76,-2.76,-2.76,-2.76,-2.76,-2.76,-2.7229,-2.651,-2.7229,-2.7203,-2.6525,-2.7924,-2.8347,-2.9108,-3.0142,-3.0736,-3.0736,-2.9433,-2.7807,-2.6573,-2.4966,-2.346,-2.2499,-2.2296,-2.2296,-2.2296,-2.2296,-2.2871,-2.4628,0.0,0.0,0.0,0.0,0.0,0.0,0.0,0.0,0.0,0.0,0.0,0.0,0.0,0.0,0.0,-4.0231,-4.0096,-4.0096,-4.0333,-4.035,-4.0096,-4.0096,-4.0096,-4.0096,-4.0096,-4.0096,-4.0096,-4.0096,0.0,0.0,0.0,0.0,0.0,-4.0096,-4.0096,-4.0096,-4.0096,-4.0096,-4.0096,-4.0096,-4.0096,-4.0096,-4.0096,-4.0096,-4.0096,-4.0096,-3.9558,-3.8908,-3.8908,-3.7658,-3.595,-3.4524,-3.3829,-3.3245,-3.2108,-3.166,-3.1511,-3.1511,-3.1511,-3.1511,-3.1511,-3.1511,-3.1511,-3.1511,-3.1511,-3.1511,-3.1511,-3.1511,-3.1511,-3.1511,-3.1511,-3.1421,-3.1212,-3.0253,-2.9532,-2.9322,-2.8274,-2.76,-2.76,-2.76,-2.76,-2.76,-2.76,-2.76,-2.76,-2.76,-2.76,-2.76,-2.8064,-2.8159,-2.795,-2.8159,-2.8159,-2.7938,-2.8301,-2.8626,0.0,-2.764,-2.813,-2.813,-2.7199,-2.6082,-2.5355,-2.4255,-2.319,-2.2448,-2.2296,-2.2296,-2.2296,-2.2296,-2.2753,-2.4122,0.0,0.0,0.0,0.0,0.0,0.0,0.0,0.0,0.0,0.0,0.0,0.0,0.0,0.0,0.0,-4.0096,-4.0096,-4.0096,-4.0096,-4.0096,-4.0096,-4.0096,-4.0096,-4.0096,-4.0096,-4.0096,-4.0096,-4.0096,0.0,0.0,0.0,0.0,0.0,-4.0096,-4.0096,-4.0096,-4.0096,-4.0096,-4.0096,-4.0096,-4.0096,-4.0096,-4.0096,-4.0096,-4.0096,-4.0096,-3.9756,-3.9289,-3.8989,-3.7815,-3.6184,-3.409,-3.3499,-3.3185,-3.1854,-3.1511,-3.1511,-3.1511,-3.1511,-3.1511,-3.1511,-3.1511,-3.1511,-3.1511,-3.1511,-3.1511,-3.1511,-3.1511,-3.1511,-3.1511,-3.1511,-3.1406,-3.1152,-3.0223,-2.9517,-2.9235,-2.8483,-2.7989,-2.7989,-2.775,-2.76,-2.76,-2.76,-2.7705,-2.7974,-2.7735,-2.7839,-2.8349,-2.8502,-2.8727,-2.8966,-2.8966,-2.8966,-2.8981,-2.8807,-2.9088,0.0,-2.5994,-2.6234,-2.6285,-2.5795,-2.5118,-2.4491,-2.3799,0.0,-2.2431,-2.2296,-2.233,-2.2446,-2.2364,-2.2398,-2.2719,0.0,0.0,0.0,0.0,0.0,0.0,0.0,0.0,0.0,0.0,0.0,0.0,0.0,0.0,0.0,-4.0096,-4.0096,-4.0096,-4.0096,-4.0096,-4.0096,-4.0096,-4.0096,-4.0096,-4.0096,-4.0096,-4.0096,-4.0096,0.0,0.0,0.0,0.0,0.0,-4.0096,-4.0096,-4.0096,-4.0096,-4.0096,-4.0096,-4.0096,-4.0096,-4.0096,-4.0096,-4.0096,-4.0096,-4.0096,-4.0096,-3.9952,-3.9139,-3.7873,-3.6245,-3.4182,-3.3546,-3.3185,-3.1854,-3.1511,-3.1511,-3.1511,-3.1511,-3.1511,-3.1511,-3.1511,-3.1511,-3.1511,-3.1511,-3.1511,-3.1511,-3.1511,-3.1511,-3.1511,-3.1511,-3.1256,-3.0597,-2.9968,-2.9352,-2.8667,-2.8607,-2.8607,-2.8607,-2.8079,-2.7735,-2.7735,-2.7735,-2.8019,-2.8652,-2.8079,-2.8334,-2.9592,-2.9026,-2.9041,-2.9666,-2.9726,-2.9726,-2.9654,-2.9521,-2.9796,-2.1894,0.0,-2.1721,-2.2341,-2.2358,-2.2341,0.0,-2.2682,-2.2513,0.0,0.0,-2.2634,-2.378,-2.3054,-2.3412,0.0,0.0,0.0,0.0,0.0,0.0,0.0,0.0,0.0,0.0,0.0,0.0,0.0,0.0,0.0,0.0,-4.0096,-4.0096,-4.0096,-4.0096,-4.0096,-4.0096,-4.0096,-4.0096,-4.0096,-4.0096,-4.0096,-4.0096,-4.0096,0.0,0.0,0.0,0.0,-4.0096,-4.0096,-4.0096,-4.0096,-4.0096,-4.0096,-4.0096,-4.0096,-4.0096,-4.0096,-4.0096,-4.0096,-4.0096,-4.0096,-4.0096,-3.9952,-3.9139,-3.823,-3.7083,-3.5019,-3.3984,-3.3185,-3.1854,-3.1511,-3.1511,-3.1511,-3.1511,-3.1511,-3.1511,-3.1511,-3.1511,-3.1511,-3.1511,-3.1511,-3.1511,-3.1511,-3.1511,-3.1511,-3.1511,-3.1256,-3.0597,-2.9968,-2.9352,-2.8667,-2.8607,-2.8607,-2.8607,-2.8921,-2.9142,-2.9142,-2.9142,-2.9202,-2.934,-2.9217,-2.9292,-2.9592,-2.9894,-3.0133,-3.0283,-3.0793,-3.0806,-3.0298,-3.0772,-3.1071,-1.9865,-2.0664,-2.1379,-2.1789,-2.2192,-2.2538,-2.2759,0.0,0.0,0.0,0.0,0.0,-2.3342,0.0,0.0,0.0,0.0,0.0,0.0,0.0,0.0,0.0,0.0,0.0,0.0,0.0,0.0,0.0,0.0,0.0,0.0,-4.0096,-4.0096,-4.0096,-4.0096,-4.0096,-4.0096,-4.0096,-4.0096,-4.0096,-4.0096,-4.0096,-4.0096,-4.0096,-4.0096,0.0,0.0,0.0,-4.0096,-4.0096,-4.0096,-4.0096,-4.0096,-4.0096,-4.0096,-4.0096,-4.0096,-4.0096,-4.0096,-4.0096,-4.0096,-4.0096,-4.0096,-4.002,-3.9568,-3.8667,-3.7383,-3.5287,-3.3905,-3.2811,-3.1765,-3.1511,-3.1511,-3.1511,-3.1511,-3.1511,-3.1511,-3.1511,-3.1511,-3.1511,-3.1511,-3.1511,-3.1511,-3.1511,-3.1511,-3.1511,-3.1511,-3.1376,-3.1002,-3.0417,-2.9864,-2.952,-2.9475,-2.9475,-2.9475,-3.0088,-3.0223,-2.9651,-2.9606,-2.9726,-2.9998,-2.9756,-2.9714,-2.9998,-3.0642,-3.0821,-3.0507,-3.1167,-3.1152,-3.0522,-3.1182,-3.1511,-1.8916,-2.0899,-2.277,-2.2431,-2.3054,-2.3643,-2.3311,0.0,0.0,0.0,0.0,0.0,0.0,0.0,0.0,0.0,0.0,0.0,0.0,0.0,0.0,0.0,0.0,0.0,0.0,0.0,0.0,0.0,0.0,0.0,0.0,-4.0096,-4.0096,-4.0096,-4.0096,-4.0096,-4.0096,-4.0096,-4.0096,-4.0096,-4.0096,-4.0096,-4.0096,-4.0096,-4.0096,0.0,0.0,0.0,-4.0096,-4.0096,-4.0096,-4.0096,-4.0096,-4.0096,-4.0096,-4.0096,-4.0096,-4.0096,-4.0096,-4.0096,-4.0096,-4.0096,-4.0096,-4.0096,-4.0096,-3.8879,-3.7118,-3.5357,-3.379,-3.245,-3.1704,-3.1511,-3.1511,-3.1511,-3.1511,-3.1511,-3.1511,-3.1511,-3.1511,-3.1511,-3.1511,-3.1511,-3.1511,-3.1511,-3.1511,-3.1511,-3.1511,-3.1466,-3.1361,-3.0838,-3.0462,-3.0372,-3.0447,-3.0507,-3.0507,-3.1107,-3.1032,-2.9953,-2.9879,-3.0118,-3.0642,-3.0163,-3.0118,-3.0657,-3.1212,-3.1212,-3.0657,-3.1212,-3.1212,-3.0672,-3.1241,-3.1511,-2.0398,-2.1942,-2.274,-2.1148,-2.1648,-2.2533,0.0,0.0,0.0,0.0,0.0,0.0,0.0,0.0,0.0,0.0,0.0,0.0,0.0,0.0,0.0,0.0,0.0,0.0,0.0,0.0,0.0,0.0,0.0,0.0,0.0,-4.0096,-4.0096,-4.0096,-4.0096,-4.0096,-4.0096,-4.0096,-4.0096,-4.0096,-4.0096,-4.0096,-4.0096,-4.0096,-4.0096,0.0,0.0,-4.0096,-4.0096,-4.0096,-4.0096,-4.0096,-4.0096,-4.0096,-4.0096,-4.0096,-4.0096,-4.0096,-4.0096,-4.0096,-4.0096,-4.0096,-4.0096,-4.0096,-4.0096,-3.8238,-3.6039,-3.571,-3.4525,-3.3056,-3.1834,-3.1511,-3.1511,-3.1511,-3.1511,-3.1511,-3.1511,-3.1511,-3.1511,-3.1511,-3.1511,-3.1511,-3.1511,-3.1511,-3.1511,-3.1511,-3.1511,-3.1286,-3.0731,-3.0567,-3.0298,-2.9774,-3.0193,-3.0507,-3.0507,-3.1107,-3.1421,-3.1212,-3.1212,-3.1256,-3.1346,-3.1256,-3.1256,-3.1346,-3.1451,-3.1451,-3.1346,-3.1451,-3.1451,-3.1346,-3.1451,-3.1511,-1.9822,-2.1237,-2.2259,-2.124,-2.302,-2.4934,0.0,0.0,0.0,0.0,0.0,0.0,0.0,0.0,0.0,0.0,0.0,0.0,0.0,0.0,0.0,0.0,0.0,0.0,0.0,0.0,0.0,0.0,0.0,0.0,0.0,0.0,-4.0096,-4.0096,-4.0096,-4.0096,-4.0096,-4.0096,-4.0096,-4.0096,-4.0096,-4.0096,-4.0096,-4.0096,-4.0096,-4.0096,0.0,-4.0096,-4.0096,-4.0096,-4.0096,-4.0096,-4.0096,-4.0096,-4.0096,-4.0096,-4.0096,-4.0096,-4.0096,-4.0096,-4.0096,-4.0096,-3.9842,-3.952,-3.952,-3.7744,-3.5672,-3.5305,-3.3865,-3.2273,-3.1657,-3.1511,-3.1511,-3.1511,-3.1511,-3.1511,-3.1511,-3.1511,-3.1511,-3.1511,-3.1511,-3.1511,-3.1511,-3.1511,-3.1511,-3.1511,-3.1511,-3.1391,-3.1077,-3.1032,-3.0913,-3.0672,-3.0853,-3.1032,-3.1032,-3.1316,-3.1511,-3.1511,-3.1511,-3.1511,-3.1511,-3.1511,-3.1511,-3.1511,-3.1511,-3.1511,-3.1511,-3.1511,-3.1511,-3.1511,-3.1511,-3.1511,-1.939,-2.059,-2.1831,-2.191,0.0,0.0,0.0,0.0,0.0,0.0,0.0,0.0,0.0,0.0,0.0,0.0,0.0,0.0,0.0,0.0,0.0,0.0,0.0,0.0,0.0,0.0,0.0,0.0,0.0,0.0,0.0,0.0,-4.0096,-4.0096,-4.0096,-4.0096,-4.0096,-4.0096,-4.0096,-4.0096,-4.0096,-4.0096,-4.0096,-4.0096,-4.0096,-4.0096,-4.0096,-4.0096,-4.0096,-4.0096,-4.0096,-4.0096,-4.0096,-4.0096,-4.0096,-4.0096,-4.0096,-4.0096,-4.0096,-4.0096,-4.0079,-3.991,-3.9469,-3.8954,-3.8785,-3.7203,-3.5379,-3.4838,-3.3137,-3.1511,-3.1511,-3.1511,-3.1511,-3.1511,-3.1511,-3.1511,-3.1511,-3.1511,-3.1511,-3.1511,-3.1511,-3.1511,-3.1511,-3.1511,-3.1511,-3.1511,-3.1511,-3.1511,-3.1511,-3.1511,-3.1511,-3.1511,-3.1511,-3.1511,-3.1511,-3.1511,-3.1511,-3.1511,-3.1511,-3.1511,-3.1511,-3.1511,-3.1511,-3.1511,-3.1511,-3.1511,-3.1511,-3.1511,-3.1511,-3.1511,-3.1511,-3.1511,-2.037,-2.1086,-2.1807,-2.2983,0.0,0.0,0.0,0.0,0.0,0.0,0.0,0.0,0.0,0.0,0.0,0.0,0.0,0.0,0.0,0.0,0.0,0.0,0.0,0.0,0.0,0.0,0.0,0.0,0.0,0.0,0.0,0.0,0.0,-4.0096,-4.0096,-4.0096,-4.0096,-4.0096,-4.0096,-4.0096,-4.0096,-4.0096,-4.0096,-4.0096,-4.0096,-4.0096,-4.0096,-4.0096,-4.0096,-4.0096,-4.0096,-4.0096,-4.0096,-4.0096,-4.0096,-4.0096,-4.0096,-4.0096,-4.0096,-4.0096,-3.9994,-3.9317,-3.9039,-3.887,-3.8193,-3.648,-3.4759,-3.4707,-3.3137,-3.1511,-3.1511,-3.1511,-3.1511,-3.1511,-3.1511,-3.1511,-3.1511,-3.1511,-3.1511,-3.1511,-3.1511,-3.1511,-3.1511,-3.1511,-3.1511,-3.1511,-3.1511,-3.1511,-3.1511,-3.1511,-3.1511,-3.1511,-3.1511,-3.1511,-3.1511,-3.1511,-3.1511,-3.1511,-3.1511,-3.1511,-3.1511,-3.1511,-3.1511,-3.1511,-3.1511,-3.1511,-3.1511,-3.1511,-3.1511,-3.1511,-3.1511,-3.1511,-1.9351,-2.0812,-2.2211,-2.2071,0.0,0.0,0.0,0.0,0.0,0.0,0.0,0.0,0.0,0.0,0.0,0.0,0.0,0.0,0.0,0.0,0.0,0.0,0.0,0.0,0.0,0.0,0.0,0.0,0.0,0.0,0.0,0.0,0.0,-4.0096,-4.0096,-4.0096,-4.0096,-4.0096,-4.0096,-4.0096,-4.0096,-4.0096,-4.0096,-4.0096,-4.0096,-4.0096,-4.0096,-3.9842,-3.9436,-3.9436,-3.914,-3.8717,-3.8717,-3.8717,-3.8717,-3.8717,-3.8717,-3.8717,-3.8717,-3.8717,-3.8684,-3.8413,-3.8007,-3.7591,-3.7297,-3.5729,-3.4024,-3.4024,-3.2784,-3.1511,-3.1511,-3.1511,-3.1511,-3.1511,-3.1511,-3.1511,-3.1511,-3.1511,-3.1511,-3.1511,-3.1511,-3.1511,-3.1511,-3.1511,-3.1511,-3.1511,-3.1511,-3.1511,-3.1511,-3.1511,-3.1511,-3.1511,-3.1511,-3.1511,-3.1511,-3.1511,-3.1511,-3.1511,-3.1511,-3.1511,-3.1511,-3.1511,-3.1511,-3.1511,-3.1511,-3.1511,-3.1511,-3.1511,-3.1511,-3.1511,-3.1511,-3.1511,-1.889,-2.0477,-2.2158,0.0,0.0,0.0,0.0,0.0,0.0,0.0,0.0,0.0,0.0,0.0,0.0,0.0,0.0,0.0,0.0,0.0,0.0,0.0,0.0,0.0,0.0,0.0,0.0,0.0,0.0,0.0,0.0,0.0,0.0,0.0,-3.9419,-3.9419,-3.9419,-3.9419,-3.9419,-3.9419,-3.9419,-3.9656,-4.0096,-3.9859,-3.9757,-3.974,-3.952,-3.9106,-3.865,-3.865,-3.8362,-3.7905,-3.7905,-3.7905,-3.7905,-3.7905,-3.7905,-3.7905,-3.7905,-3.7905,-3.7872,-3.7635,-3.7195,-3.6761,-3.6485,-3.5238,-3.3862,-3.3659,-3.2745,-3.1796,-3.1553,-3.1511,-3.1511,-3.1511,-3.1511,-3.1511,-3.1511,-3.1511,-3.1511,-3.1511,-3.1511,-3.1511,-3.1511,-3.1511,-3.1511,-3.1511,-3.1511,-3.1511,-3.1511,-3.1511,-3.1511,-3.1511,-3.1511,-3.1511,-3.1511,-3.1511,-3.1511,-3.1511,-3.1511,-3.1511,-3.1511,-3.1511,-3.1511,-3.1511,-3.1511,-3.1511,-3.1511,-3.1511,-3.1511,-3.1511,-3.1511,-3.1511,-1.9371,-2.0245,0.0,0.0,0.0,0.0,0.0,0.0,0.0,0.0,0.0,0.0,0.0,0.0,0.0,0.0,0.0,0.0,0.0,0.0,0.0,0.0,0.0,0.0,0.0,0.0,0.0,0.0,0.0,0.0,0.0,0.0,0.0,0.0,-3.7905,-3.7905,-3.7905,-3.7905,-3.7905,-3.7905,-3.7905,-3.8667,-4.0062,-3.9309,-3.8988,-3.8937,-3.8227,-3.7905,-3.7889,-3.7889,-3.7889,-3.7889,-3.7889,-3.7889,-3.7889,-3.7889,-3.7889,-3.7889,-3.7889,-3.7889,-3.777,-3.7032,-3.6795,-3.6643,-3.5836,-3.5121,-3.4455,-3.3786,-3.3119,-3.2437,-3.1697,-3.1511,-3.1511,-3.1511,-3.1511,-3.1511,-3.1511,-3.1511,-3.1511,-3.1511,-3.1511,-3.1511,-3.1511,-3.1511,-3.1511,-3.1511,-3.1511,-3.1511,-3.1511,-3.1496,-3.1496,-3.1511,-3.1511,-3.1511,-3.1511,-3.1511,-3.1511,-3.1511,-3.1511,-3.1511,-3.1511,-3.1511,-3.1511,-3.1511,-3.1511,-3.1511,-3.1511,-3.1511,-3.1511,-3.1511,-3.1511,-3.1511,-1.9317,0.0,0.0,0.0,0.0,0.0,0.0,0.0,0.0,0.0,0.0,0.0,0.0,0.0,0.0,0.0,0.0,0.0,0.0,0.0,0.0,0.0,0.0,0.0,0.0,0.0,0.0,0.0,0.0,0.0,0.0,0.0,0.0,0.0,-3.7905,-3.7905,-3.7905,-3.7905,-3.7905,-3.7905,-3.7905,-3.8125,-3.8548,-3.8328,-3.8227,-3.821,-3.799,-3.7601,-3.7077,-3.6518,-3.6276,-3.6276,-3.6276,-3.6276,-3.6276,-3.6276,-3.6276,-3.6276,-3.6276,-3.6276,-3.6242,-3.6045,-3.596,-3.5904,-3.5667,-3.5121,-3.4455,-3.3786,-3.3119,-3.2437,-3.1697,-3.1511,-3.1511,-3.1511,-3.1511,-3.1511,-3.1511,-3.1511,-3.1511,-3.1511,-3.1511,-3.1511,-3.1511,-3.1511,-3.1511,-3.1511,-3.1511,-3.1511,-3.1511,-3.1077,-3.0972,-3.1451,-3.1511,-3.1511,-3.1511,-3.1511,-3.1511,-3.1511,-3.1511,-3.1511,-3.1511,-3.1511,-3.1511,-3.1511,-3.1511,-3.1511,-3.1511,-3.1511,-3.1511,-3.1511,-3.1511,-3.1511,-2.0271,0.0,0.0,0.0,0.0,0.0,0.0,0.0,0.0,0.0,0.0,0.0,0.0,0.0,0.0,0.0,0.0,0.0,0.0,0.0,0.0,0.0,0.0,0.0,0.0,0.0,0.0,0.0,0.0,0.0,0.0,0.0,0.0,0.0,-3.6992,-3.6992,-3.6992,-3.6992,-3.6992,-3.6992,-3.6992,-3.6992,-3.6986,-3.7313,-3.7449,-3.7449,-3.7127,-3.6738,-3.6282,-3.5785,-3.56,-3.56,-3.56,-3.56,-3.56,-3.56,-3.56,-3.56,-3.56,-3.56,-3.56,-3.56,-3.56,-3.56,-3.56,-3.5121,-3.4455,-3.3786,-3.3119,-3.2437,-3.1697,-3.1511,-3.1511,-3.1511,-3.1511,-3.1511,-3.1511,-3.1511,-3.1511,-3.1511,-3.1511,-3.1511,-3.1511,-3.1511,-3.1511,-3.1511,-3.1511,-3.1511,-3.1511,-3.1137,-3.1047,-3.1466,-3.1511,-3.1511,-3.1511,-3.1511,-3.1511,-3.1511,-3.1511,-3.1511,-3.1511,-3.1511,-3.1511,-3.1511,-3.1511,-3.1511,-3.1511,-3.1511,-3.1511,-3.1496,-3.1227,-3.1092,0.0,0.0,0.0,0.0,0.0,0.0,0.0,0.0,0.0,0.0,0.0,0.0,0.0,0.0,0.0,0.0,0.0,0.0,0.0,0.0,0.0,0.0,0.0,0.0,0.0,0.0,0.0,0.0,0.0,0.0,0.0,0.0,0.0,0.0,-3.56,-3.56,-3.56,-3.56,-3.56,0.0,-3.56,-3.56,-3.5616,-3.6349,-3.6694,-3.666,-3.5926,-3.56,-3.56,-3.56,-3.56,-3.56,-3.56,-3.56,-3.56,-3.56,-3.56,-3.56,-3.56,-3.56,-3.56,-3.56,-3.56,-3.56,-3.56,-3.5184,-3.4528,-3.3811,-3.3172,-3.252,-3.1726,-3.1511,-3.1511,-3.1511,-3.1511,-3.1511,-3.1511,-3.1511,-3.1511,-3.1511,-3.1511,-3.1511,-3.1511,-3.1511,-3.1511,-3.1511,-3.1451,-3.1436,-3.1496,-3.1451,-3.1436,-3.1496,-3.1511,-3.1511,-3.1511,-3.1511,-3.1511,-3.1511,-3.1511,-3.1511,-3.1511,-3.1511,-3.1511,-3.1511,-3.1511,-3.1466,-3.1406,-3.1406,-3.1376,-3.1316,-3.0717,-3.0417,0.0,0.0,0.0,0.0,0.0,0.0,0.0,0.0,0.0,0.0,0.0,0.0,0.0,0.0,0.0,0.0,0.0,0.0,0.0,0.0,0.0,0.0,0.0,0.0,0.0,0.0,0.0,0.0,0.0,0.0,0.0,0.0,0.0,-3.56,-3.56,-3.56,-3.56,-3.56,-3.56,0.0,-3.56,-3.56,-3.56,-3.5769,-3.5853,-3.5859,-3.5667,-3.56,-3.56,-3.56,-3.56,-3.56,-3.56,-3.56,-3.56,-3.56,-3.56,-3.56,-3.56,-3.56,-3.56,-3.56,-3.56,-3.56,-3.56,-3.5492,-3.5138,-3.3937,-3.3495,-3.3077,-3.1838,-3.1511,-3.1511,-3.1511,-3.1511,-3.1511,-3.1511,-3.1511,-3.1511,-3.1511,-3.1511,-3.1511,-3.1511,-3.1511,-3.1511,-3.1511,-3.1047,-3.0926,-3.1436,-3.1032,-3.0926,-3.1451,-3.1511,-3.1511,-3.1511,-3.1511,-3.1511,-3.1511,-3.1511,-3.1511,-3.1511,-3.1511,-3.1511,-3.1511,-3.1511,-3.1241,-3.0731,-3.0731,-3.0477,-2.9998,-2.9849,-2.9774,0.0,0.0,0.0,0.0,0.0,0.0,0.0,0.0,0.0,0.0,0.0,0.0,0.0,0.0,0.0,0.0,0.0,0.0,0.0,0.0,0.0,0.0,0.0,0.0,0.0,0.0,0.0,0.0,0.0,0.0,0.0,-3.5081,-3.525,-3.5583,-3.56,-3.543,-3.5081,-3.5414,-3.5414,-3.5081,-3.5081,-3.4895,-3.4568,-3.5278,-3.56,-3.56,-3.56,-3.56,-3.56,-3.56,-3.56,-3.56,-3.56,-3.56,-3.56,-3.56,-3.56,-3.56,-3.56,-3.56,-3.56,-3.56,-3.56,-3.56,-3.56,-3.5385,-3.4894,-3.3887,-3.3365,-3.2879,-3.1796,-3.1511,-3.1511,-3.1511,-3.1511,-3.1511,-3.1511,-3.1511,-3.1511,-3.1511,-3.1511,-3.1511,-3.1511,-3.1511,-3.1511,-3.1511,-3.1197,-3.1092,-3.1466,-3.1197,-3.1107,-3.1466,-3.1511,-3.1511,-3.1511,-3.1511,-3.1511,-3.1511,-3.1511,-3.1668,-3.2007,-3.1697,-3.1668,-3.2007,-3.1366,-3.102,-3.1043,-3.0385,-2.9894,-2.9592,-2.9265,-2.9116,0.0,0.0,0.0,0.0,0.0,0.0,0.0,0.0,0.0,0.0,0.0,0.0,0.0,0.0,0.0,0.0,0.0,0.0,0.0,0.0,0.0,0.0,0.0,0.0,0.0,0.0,0.0,0.0,0.0,0.0,-3.4269,-3.4303,-3.459,-3.5194,-3.5211,-3.4945,-3.432,-3.4928,-3.4928,-3.4303,-3.4303,-3.3981,-3.344,-3.4653,-3.5278,-3.5397,-3.5397,-3.5397,-3.5397,-3.5261,-3.5211,-3.5228,-3.5346,-3.5397,-3.543,-3.5549,-3.56,-3.56,-3.56,-3.56,-3.56,-3.56,-3.56,-3.56,-3.56,-3.5207,-3.4616,-3.3811,-3.3182,-3.2586,-3.171,-3.1511,-3.1511,-3.1511,-3.1511,-3.1511,-3.1511,-3.1511,-3.1511,-3.1511,-3.1511,-3.1511,-3.1511,-3.1511,-3.1511,-3.1511,-3.1511,-3.1511,-3.1511,-3.1511,-3.1511,-3.1511,-3.1511,-3.1511,-3.1511,-3.1611,-3.1697,-3.1697,-3.1796,-3.2132,-3.2749,-3.2188,-3.2114,-3.2589,-3.1207,-3.0791,-3.1419,-3.0076,-2.9382,-2.9247,-2.8682,-2.8427,0.0,0.0,0.0,0.0,0.0,0.0,0.0,0.0,0.0,0.0,0.0,0.0,0.0,0.0,0.0,0.0,0.0,0.0,0.0,0.0,0.0,0.0,0.0,0.0,0.0,0.0,0.0,0.0,0.0,0.0,-3.3541,-3.3558,-3.3592,-3.3694,-3.3694,-3.366,-3.3558,-3.3643,-3.3643,-3.3558,-3.3558,-3.3508,-3.3406,-3.3609,-3.4049,-3.4641,-3.4641,-3.4641,-3.459,-3.3964,-3.3694,-3.3761,-3.4404,-3.4641,-3.4726,-3.5346,-3.56,-3.56,-3.56,-3.56,-3.56,-3.56,-3.56,-3.56,-3.56,-3.5554,-3.5224,-3.3937,-3.3547,-3.3156,-3.1838,-3.1511,-3.1511,-3.1511,-3.1511,-3.1511,-3.1511,-3.1511,-3.1511,-3.1511,-3.1511,-3.1511,-3.1511,-3.1511,-3.1511,-3.1511,-3.1511,-3.1511,-3.1511,-3.1511,-3.1511,-3.1511,-3.1511,-3.1511,-3.1511,-3.2092,-3.2465,-3.2465,-3.3013,-3.3349,-3.3469,-3.3375,-3.3105,-3.2602,-3.1221,-3.0576,-3.0726,-2.9379,-2.8427,-2.7869,-2.7779,-2.7735,0.0,0.0,0.0,0.0,0.0,0.0,0.0,0.0,0.0,0.0,0.0,0.0,0.0,0.0,0.0,0.0,0.0,0.0,0.0,0.0,0.0,0.0,0.0,0.0,0.0,0.0,0.0,0.0,0.0,-3.2341,-3.2747,-3.278,-3.2966,-3.3389,-3.3406,-3.3203,-3.278,-3.3186,-3.3186,-3.278,-3.278,-3.256,-3.2188,-3.2594,-3.3186,-3.388,-3.388,-3.388,-3.3863,-3.3541,-3.3406,-3.344,-3.3761,-3.388,-3.3981,-3.4709,-3.4979,-3.5047,-3.5447,-3.56,-3.56,-3.56,-3.56,-3.56,-3.56,-3.56,-3.5316,-3.3962,-3.3582,-3.3287,-3.1866,-3.1511,-3.1511,-3.1511,-3.1212,-3.1032,-3.1421,-3.1197,-3.0928,-3.0928,-3.1241,-3.1511,-3.1511,-3.1511,-3.1511,-3.1511,-3.1511,-3.1511,-3.1511,-3.1511,-3.1511,-3.1511,-3.1511,-3.1668,-3.2092,-3.241,-3.2761,-3.3145,-3.3443,-3.3761,-3.4137,-3.3416,-3.321,-3.3677,-3.1618,-3.0376,-3.0037,-2.8693,-2.7899,-2.76,-2.76,-2.76,0.0,0.0,0.0,0.0,0.0,0.0,0.0,0.0,0.0,0.0,0.0,0.0,0.0,0.0,0.0,0.0,0.0,0.0,0.0,0.0,0.0,0.0,0.0,0.0,0.0,0.0,0.0,0.0,0.0,-3.1427,-3.1989,-3.2022,-3.2256,-3.2831,-3.2848,-3.2577,-3.2039,-3.256,-3.256,-3.2022,-3.2022,-3.1735,-3.1207,-3.1769,-3.2307,-3.2848,-3.3034,-3.3119,-3.3102,-3.2916,-3.2848,-3.2865,-3.3051,-3.3119,-3.3203,-3.3947,-3.4218,-3.4303,-3.4839,-3.5042,-3.5042,-3.5042,-3.516,-3.5312,-3.5312,-3.5447,-3.5283,-3.3777,-3.3351,-3.2996,-3.1412,-3.1017,-3.1017,-3.1017,-3.0642,-3.0417,-3.0898,-3.0746,-3.0447,-3.0298,-3.0806,-3.1241,-3.1241,-3.1391,-3.1511,-3.1511,-3.1511,-3.1511,-3.1511,-3.1511,-3.1511,-3.1511,-3.1668,-3.2007,-3.2559,-3.2922,-3.3313,-3.3811,-3.4012,-3.4252,-3.4565,-3.3565,-3.3224,-3.3698,-3.1637,-3.0347,-2.9829,-2.8337,-2.76,-2.76,-2.76,-2.76,0.0,0.0,0.0,0.0,0.0,0.0,0.0,0.0,0.0,0.0,0.0,0.0,0.0,0.0,0.0,0.0,0.0,0.0,0.0,0.0,0.0,0.0,0.0,0.0,0.0,0.0,0.0,0.0,0.0,-3.1207,-3.1258,-3.1258,-3.1258,-3.1309,-3.1309,-3.1292,-3.1258,-3.1292,-3.1292,-3.1258,-3.1258,-3.1241,-3.119,-3.1241,-3.1275,-3.1343,-3.2056,-3.2361,-3.231,-3.1616,-3.1309,-3.1376,-3.209,-3.2361,-3.2446,-3.3186,-3.3457,-3.3457,-3.3508,-3.3525,-3.3525,-3.3525,-3.3998,-3.4556,-3.4556,-3.5064,-3.5205,-3.3202,-3.264,-3.2196,-3.0209,-2.9711,-2.9711,-2.9711,-2.9681,-2.9666,-2.9696,-3.0118,-3.0328,-2.9771,-3.0133,-3.0552,-3.0552,-3.1077,-3.1511,-3.1511,-3.1511,-3.1511,-3.1511,-3.1511,-3.1511,-3.1511,-3.212,-3.2574,-3.2586,-3.3761,-3.4503,-3.4552,-3.5144,-3.5194,-3.453,-3.444,-3.3493,-3.1604,-3.0878,-3.0485,-3.0453,-2.8529,-2.76,-2.76,-2.76,-2.76,0.0,0.0,0.0,0.0,0.0,0.0,0.0,0.0,0.0,0.0,0.0,0.0,0.0,0.0,0.0,0.0,0.0,0.0,0.0,0.0,0.0,0.0,0.0,0.0,0.0,0.0,0.0,0.0,0.0,0.0,-3.121,-3.1449,-3.1468,-3.121,-3.119,-3.119,-3.119,-3.119,-3.119,-3.119,-3.119,-3.119,-3.119,-3.119,-3.119,-3.1207,-3.1481,-3.1599,-3.1582,-3.1309,-3.119,-3.1224,-3.1478,-3.1599,-3.1664,-3.2429,-3.2679,-3.2767,-3.3237,-3.3406,-3.3406,-3.3406,-3.3592,-3.3795,-3.3795,-3.3981,-3.396,-3.2797,-3.2183,-3.1635,-3.049,-2.9898,-2.9502,-2.9056,-2.9067,-2.9007,-2.8438,-2.8801,-2.922,-2.8996,-2.9777,-3.0498,-3.0516,-3.1416,-3.2155,-3.221,-3.2571,-3.2691,-3.2272,-3.2598,-3.2691,-3.2244,-3.2841,-3.3201,-3.3183,-3.3615,-3.4081,-3.451,-3.4329,-3.4286,-3.4489,-3.3596,-3.2731,-3.1989,-3.0924,-3.0,-2.921,-2.8124,-2.76,-2.76,-2.76,-2.76,0.0,0.0,0.0,0.0,0.0,0.0,0.0,0.0,0.0,0.0,0.0,0.0,0.0,0.0,0.0,0.0,0.0,0.0,0.0,0.0,0.0,0.0,0.0,0.0,0.0,0.0,0.0,0.0,0.0,0.0,-3.064,-3.0772,-3.0753,-3.0465,-3.0465,-3.0465,-3.0465,-3.0465,-3.0465,-3.0465,-3.0465,-3.0465,-3.0463,-3.0717,-3.0835,-3.0835,-3.1089,-3.119,-3.119,-3.119,-3.119,-3.119,-3.119,-3.119,-3.1258,-3.1752,-3.1938,-3.2005,-3.2493,-3.2662,-3.2662,-3.2662,-3.2831,-3.3034,-3.3034,-3.3203,-3.3212,-3.2304,-3.1779,-3.1212,-3.0105,-2.9383,-2.8828,-2.8353,-2.8378,-2.8304,-2.772,-2.8139,-2.8584,-2.856,-2.9439,-3.0228,-3.0424,-3.1585,-3.2533,-3.2567,-3.317,-3.3443,-3.2986,-3.3313,-3.3443,-3.2986,-3.3313,-3.3551,-3.3501,-3.3485,-3.3645,-3.4095,-3.3677,-3.3508,-3.3766,-3.2818,-3.2192,-3.1938,-3.085,-2.9805,-2.8803,-2.8198,-2.781,-2.76,-2.76,-2.76,0.0,0.0,0.0,0.0,0.0,0.0,0.0,0.0,0.0,0.0,0.0,0.0,0.0,0.0,0.0,0.0,0.0,0.0,0.0,0.0,0.0,0.0,0.0,0.0,0.0,0.0,0.0,0.0,0.0,-2.9193,-2.9471,-2.9175,-2.8993,-2.8993,-2.8993,-2.8993,-2.8993,-2.8993,-2.8993,-2.8993,-2.8993,-2.8993,-2.9027,-2.9736,-3.0074,-3.0125,-3.0852,-3.1157,-3.1157,-3.119,-3.119,-3.119,-3.119,-3.119,-3.119,-3.119,-3.119,-3.119,-3.119,-3.119,-3.119,-3.119,-3.1684,-3.2276,-3.2276,-3.2763,-3.3064,-3.1745,-3.1379,-3.0931,-2.8999,-2.8067,-2.7625,-2.7585,-2.76,-2.7585,-2.7625,-2.815,-2.8585,-2.8506,-2.9038,-2.9708,-3.0282,-3.1558,-3.2485,-3.2517,-3.3143,-3.3601,-3.3585,-3.3585,-3.3601,-3.3585,-3.3518,-3.3488,-3.3472,-3.3399,-3.3372,-3.3372,-3.3355,-3.3017,-3.2327,-3.2276,-3.1938,-3.1207,-3.0621,-3.0038,-2.9429,-2.8803,-2.8189,-2.76,-2.76,-2.76,-1.1357,0.0,0.0,0.0,0.0,0.0,0.0,0.0,0.0,0.0,0.0,0.0,0.0,0.0,0.0,0.0,0.0,0.0,0.0,0.0,0.0,0.0,0.0,0.0,0.0,0.0,0.0,0.0,-2.9634,-3.0076,-2.9522,-2.9175,-2.8993,-2.8993,-2.8993,-2.8993,-2.8993,-2.8993,-2.8993,-2.8993,-2.8993,-2.8993,-2.901,-2.9213,-2.9314,-2.9365,-3.0074,-3.0412,-3.0446,-3.097,-3.119,-3.119,-3.119,-3.119,-3.119,-3.119,-3.119,-3.119,-3.119,-3.119,-3.119,-3.119,-3.1326,-3.1495,-3.1495,-3.1647,-3.1729,-3.1369,-3.0941,-3.0266,-2.8873,-2.8383,-2.814,-2.771,-2.76,-2.771,-2.8165,-2.8415,-2.8517,-2.851,-2.9362,-3.0148,-3.0366,-3.1493,-3.2376,-3.2429,-3.3466,-3.3868,-3.2854,-3.3621,-3.3868,-3.2854,-3.3145,-3.3201,-3.2685,-3.2613,-3.2615,-3.2615,-3.2087,-3.1952,-3.2293,-3.1802,-3.1413,-3.119,-3.1035,-3.0658,-3.0059,-2.9012,-2.8189,-2.76,-2.76,-2.76,0.0,0.0,0.0,0.0,0.0,0.0,0.0,0.0,0.0,0.0,0.0,0.0,0.0,0.0,0.0,0.0,0.0,0.0,0.0,0.0,0.0,0.0,0.0,0.0,0.0,0.0,0.0,-2.8163,-2.9053,-2.9378,-2.8858,-2.8637,-2.8541,-2.8541,-2.822,-2.8116,-2.8306,-2.8116,-2.8116,-2.8306,-2.8116,-2.8116,-2.8305,-2.8438,-2.8501,-2.8535,-2.9313,-2.982,-3.0123,-3.0565,-3.092,-3.119,-3.119,-3.119,-3.119,-3.119,-3.119,-3.119,-3.119,-3.119,-3.119,-3.119,-3.119,-3.119,-3.119,-3.119,-3.119,-3.119,-3.0777,-3.0145,-2.9429,-2.9042,-2.8779,-2.8424,-2.8352,-2.8448,-2.8803,-2.9065,-2.9248,-2.9248,-2.9827,-3.0382,-3.0686,-3.1587,-3.2306,-3.2367,-3.3307,-3.3734,-3.2928,-3.3547,-3.3734,-3.289,-3.2891,-3.2763,-3.2344,-3.2022,-3.1853,-3.1853,-3.1427,-3.1376,-3.1819,-3.143,-3.119,-3.119,-3.119,-3.0777,-2.9913,-2.9225,-2.8439,-2.76,-2.76,-2.76,0.0,0.0,0.0,0.0,0.0,0.0,-1.8802,-1.7997,0.0,0.0,0.0,0.0,0.0,0.0,0.0,0.0,0.0,0.0,0.0,0.0,0.0,0.0,0.0,0.0,0.0,0.0,-2.6594,-2.7607,-2.7688,-2.7723,-2.7812,-2.7802,-2.7809,-2.7897,-2.721,-2.7003,-2.7363,-2.7003,-2.7003,-2.7348,-2.6971,-2.6938,-2.7305,-2.7555,-2.7672,-2.7722,-2.8518,-2.9228,-2.9835,-2.9939,-3.0463,-3.119,-3.119,-3.119,-3.119,-3.119,-3.119,-3.119,-3.119,-3.119,-3.119,-3.119,-3.119,-3.119,-3.119,-3.119,-3.119,-3.119,-3.0818,-3.0393,-3.0314,-2.9892,-2.9473,-2.9406,-2.9406,-2.9429,-2.9496,-2.9913,-3.0314,-3.0393,-3.0393,-3.0559,-3.1112,-3.1752,-3.2175,-3.2175,-3.2797,-3.3254,-3.3169,-3.3237,-3.3254,-3.3169,-3.2581,-3.2175,-3.2175,-3.1562,-3.119,-3.119,-3.119,-3.119,-3.119,-3.119,-3.119,-3.119,-3.119,-3.0638,-2.9496,-2.9361,-2.8717,-2.76,-2.76,-2.76,-1.736,-1.7693,-1.8042,0.0,0.0,0.0,0.0,-1.612,0.0,0.0,0.0,0.0,0.0,0.0,0.0,0.0,0.0,0.0,0.0,0.0,0.0,0.0,0.0,0.0,0.0,0.0,-2.612,-2.6343,-2.6374,-2.6643,-2.7297,-2.7081,-2.7232,-2.788,-2.7754,-2.7692,-2.7783,-2.771,-2.771,-2.7783,-2.738,-2.7208,-2.7288,-2.7027,-2.6911,-2.6962,-2.7705,-2.8111,-2.8297,-2.8941,-2.9989,-3.119,-3.119,-3.119,-3.119,-3.119,-3.119,-3.119,-3.119,-3.119,-3.119,-3.119,-3.119,-3.119,-3.119,-3.119,-3.119,-3.119,-3.1131,-3.0898,-3.0435,-3.0208,-3.0,-2.9518,-2.9406,-2.954,-3.0016,-3.0208,-3.0456,-3.0918,-3.1015,-3.1055,-3.1171,-3.1309,-3.141,-3.141,-3.2056,-3.231,-3.1715,-3.2138,-3.2293,-3.1681,-3.1495,-3.141,-3.141,-3.1275,-3.119,-3.119,-3.119,-3.119,-3.119,-3.119,-3.119,-3.119,-3.119,-3.0858,-3.0123,-2.9157,-2.8295,-2.76,-2.76,-2.76,0.0,-1.9169,-1.927,-1.8538,0.0,0.0,0.0,0.0,0.0,0.0,0.0,0.0,0.0,0.0,0.0,0.0,0.0,0.0,0.0,0.0,0.0,0.0,0.0,0.0,0.0,0.0,-2.5687,-2.627,-2.6299,-2.6481,-2.6875,-2.6542,-2.6639,-2.7241,-2.689,-2.6992,-2.7553,-2.7382,-2.7577,-2.8143,-2.7779,-2.7589,-2.7592,-2.7194,-2.689,-2.6708,-2.7097,-2.7452,-2.7841,-2.8247,-2.9076,-3.011,-3.011,-3.011,-3.011,-3.011,-3.011,-3.011,-3.011,-3.0328,-3.0649,-3.0649,-3.0903,-3.119,-3.119,-3.119,-3.119,-3.119,-3.119,-3.1131,-3.0838,-3.074,-3.0679,-3.0372,-3.0293,-3.0393,-3.0679,-3.074,-3.0838,-3.1151,-3.119,-3.119,-3.119,-3.119,-3.119,-3.119,-3.1495,-3.1633,-3.1241,-3.1512,-3.1616,-3.1241,-3.119,-3.119,-3.119,-3.119,-3.119,-3.119,-3.119,-3.119,-3.119,-3.119,-3.119,-3.119,-3.119,-3.0898,-3.0293,-2.9695,-2.8927,-2.8042,-2.7735,-2.76,0.0,0.0,0.0,0.0,0.0,-1.8454,0.0,0.0,0.0,-1.8144,0.0,0.0,0.0,0.0,0.0,0.0,0.0,0.0,0.0,0.0,0.0,0.0,0.0,0.0,0.0,0.0,-2.4816,-2.6041,-2.586,-2.5878,-2.6337,-2.6052,-2.6102,-2.6583,-2.6033,-2.6144,-2.7085,-2.6818,-2.7225,-2.8279,-2.7924,-2.785,-2.7978,-2.7515,-2.7131,-2.6808,-2.6741,-2.7046,-2.7587,-2.7587,-2.7977,-2.8587,-2.8874,-2.8993,-2.8993,-2.8993,-2.8993,-2.8993,-2.8993,-2.9381,-2.9888,-2.9888,-3.0294,-3.0801,-3.0954,-3.0987,-3.1021,-3.1157,-3.119,-3.119,-3.119,-3.119,-3.119,-3.119,-3.119,-3.119,-3.119,-3.119,-3.119,-3.119,-3.119,-3.119,-3.119,-3.119,-3.119,-3.119,-3.119,-3.119,-3.119,-3.119,-3.119,-3.119,-3.119,-3.119,-3.119,-3.119,-3.119,-3.119,-3.119,-3.119,-3.119,-3.119,-3.119,-3.119,-3.119,-3.0975,-3.0477,-3.0372,-2.9739,-2.8677,-2.8042,-2.776,0.0,0.0,0.0,0.0,-2.0416,0.0,0.0,0.0,-1.742,-1.6523,0.0,0.0,0.0,0.0,0.0,0.0,0.0,0.0,0.0,0.0,0.0,0.0,0.0,0.0,0.0,0.0,0.0,-2.4355,-2.3153,-2.3281,-2.5411,-2.5491,-2.5811,-2.6583,-2.6519,-2.6534,-2.6669,-2.6626,-2.7039,-2.786,-2.7471,-2.7641,-2.8329,-2.7616,-2.7288,-2.721,-2.6857,-2.6742,-2.6826,-2.6826,-2.6877,-2.7114,-2.8468,-2.8993,-2.8993,-2.8993,-2.8993,-2.8993,-2.8993,-2.9044,-2.9128,-2.9128,-2.9179,-2.9382,-3.0023,-3.0207,-3.0362,-3.1021,-3.119,-3.119,-3.119,-3.119,-3.119,-3.119,-3.119,-3.119,-3.119,-3.119,-3.119,-3.119,-3.119,-3.119,-3.119,-3.119,-3.119,-3.119,-3.119,-3.119,-3.119,-3.119,-3.119,-3.119,-3.119,-3.119,-3.119,-3.119,-3.119,-3.119,-3.119,-3.119,-3.119,-3.119,-3.119,-3.119,-3.119,-3.1171,-3.1112,-3.0559,-2.9935,-2.9271,-2.8685,-2.8407,0.0,0.0,0.0,0.0,0.0,0.0,0.0,0.0,-1.8248,0.0,0.0,0.0,0.0,0.0,0.0,0.0,0.0,0.0,0.0,0.0,0.0,0.0,0.0,0.0,0.0,0.0,0.0,0.0,0.0,-2.2657,-2.4603,-2.4695,-2.486,-2.5199,-2.5217,-2.5438,-2.5907,-2.5907,-2.63,-2.7108,-2.694,-2.7144,-2.7691,-2.7375,-2.7264,-2.7303,-2.7115,-2.6923,-2.6691,-2.6691,-2.6691,-2.6759,-2.7419,-2.7673,-2.7673,-2.7673,-2.7673,-2.7673,-2.7673,-2.7943,-2.8383,-2.8857,-2.8993,-2.9145,-2.9888,-3.0108,-3.026,-3.0987,-3.119,-3.119,-3.119,-3.119,-3.119,-3.119,-3.119,-3.119,-3.119,-3.119,-3.119,-3.119,-3.119,-3.119,-3.119,-3.119,-3.119,-3.119,-3.119,-3.119,-3.119,-3.119,-3.119,-3.119,-3.119,-3.119,-3.119,-3.119,-3.119,-3.119,-3.119,-3.119,-3.119,-3.119,-3.119,-3.119,-3.119,-3.119,-3.119,-3.0955,-3.0699,-3.0435,-2.9473,-2.9035,-2.2398,0.0,0.0,0.0,0.0,0.0,0.0,0.0,0.0,0.0,0.0,0.0,0.0,0.0,0.0,0.0,0.0,0.0,0.0,0.0,0.0,0.0,0.0,0.0,0.0,0.0,0.0,0.0,0.0,0.0,-2.3768,-2.3878,-2.3969,-2.419,-2.419,-2.4493,-2.5062,-2.5062,-2.5466,-2.6264,-2.6264,-2.6531,-2.7031,-2.6929,-2.6974,-2.7128,-2.7022,-2.6862,-2.6691,-2.6691,-2.6691,-2.6691,-2.6691,-2.6691,-2.6691,-2.6691,-2.6691,-2.6691,-2.6691,-2.7046,-2.7587,-2.818,-2.8367,-2.8519,-2.9262,-2.9634,-2.9956,-3.0683,-3.1038,-3.119,-3.119,-3.119,-3.119,-3.119,-3.119,-3.119,-3.119,-3.119,-3.119,-3.119,-3.119,-3.119,-3.119,-3.119,-3.119,-3.119,-3.119,-3.119,-3.119,-3.119,-3.119,-3.119,-3.119,-3.119,-3.119,-3.119,-3.119,-3.119,-3.119,-3.119,-3.119,-3.119,-3.119,-3.119,-3.119,-3.119,-3.119,-3.119,-3.119,-3.1171,-3.0145,-2.9651,0.0,0.0,0.0,-2.1295,0.0,0.0,0.0,0.0,-1.9838,0.0,0.0,0.0,0.0,0.0,0.0,0.0,0.0,0.0,0.0,0.0,0.0,0.0,0.0,0.0,0.0,0.0,0.0,0.0,0.0,0.0,-2.2878,-2.3043,-2.3391,-2.4171,-2.419,-2.4208,-2.4245,-2.4245,-2.464,-2.5429,-2.5429,-2.5841,-2.6617,-2.6215,-2.6292,-2.6704,-2.6301,-2.6352,-2.6691,-2.6691,-2.6691,-2.6691,-2.6691,-2.6691,-2.6691,-2.6691,-2.6691,-2.6691,-2.6691,-2.6708,-2.6725,-2.6759,-2.6759,-2.6911,-2.7655,-2.8416,-2.9196,-2.9939,-3.0649,-3.119,-3.119,-3.119,-3.119,-3.119,-3.119,-3.119,-3.119,-3.119,-3.119,-3.119,-3.119,-3.119,-3.119,-3.119,-3.119,-3.119,-3.119,-3.119,-3.119,-3.119,-3.119,-3.119,-3.119,-3.119,-3.119,-3.119,-3.119,-3.119,-3.119,-3.119,-3.119,-3.119,-3.119,-3.119,-3.119,-3.119,-3.119,-3.119,-3.119,-3.119,-3.0559,-3.0272,0.0,0.0,-2.3282,-2.2213,0.0,0.0,0.0,0.0,0.0,0.0,0.0,0.0,0.0,0.0,0.0,0.0,0.0,0.0,0.0,0.0,0.0,0.0,0.0,0.0,0.0,0.0,0.0,0.0,0.0,0.0,0.0,-2.3501,-2.3914,-2.419,-2.419,-2.419,-2.419,-2.419,-2.4337,-2.4622,-2.4622,-2.5026,-2.5805,-2.5664,-2.5713,-2.5906,-2.5754,-2.5816,-2.5981,-2.5981,-2.6251,-2.6691,-2.6691,-2.6691,-2.6691,-2.6691,-2.6691,-2.6691,-2.6691,-2.6691,-2.6691,-2.6691,-2.6691,-2.6843,-2.757,-2.8366,-2.9162,-2.9888,-3.0632,-3.119,-3.119,-3.119,-3.119,-3.119,-3.119,-3.119,-3.119,-3.119,-3.119,-3.119,-3.119,-3.119,-3.119,-3.119,-3.119,-3.119,-3.119,-3.119,-3.119,-3.119,-3.119,-3.119,-3.119,-3.119,-3.119,-3.119,-3.119,-3.119,-3.119,-3.119,-3.119,-3.119,-3.119,-3.119,-3.119,-3.119,-3.119,-3.119,-3.119,-3.119,-3.0995,-3.0898,-2.338,-2.361,0.0,-2.2885,-2.2446,0.0,-2.0768,0.0,0.0,0.0,0.0,0.0,0.0,0.0,0.0,0.0,0.0,0.0,0.0,0.0,0.0,0.0,0.0,0.0,0.0,0.0,-1.7722,-1.9905,0.0,0.0,0.0,0.0,-2.3612,-2.4171,-2.419,-2.419,-2.419,-2.419,-2.419,-2.419,-2.419,-2.4475,-2.497,-2.497,-2.5012,-2.5075,-2.5075,-2.5115,-2.5203,-2.5203,-2.5642,-2.6302,-2.6302,-2.6471,-2.6691,-2.6691,-2.6691,-2.6691,-2.6691,-2.6691,-2.6691,-2.6691,-2.6691,-2.6793,-2.7249,-2.796,-2.867,-2.9161,-3.0023,-3.0818,-3.0818,-3.1004,-3.1249,-3.1389,-3.1411,-3.1411,-3.1411,-3.1411,-3.137,-3.123,-3.119,-3.119,-3.119,-3.119,-3.119,-3.119,-3.119,-3.119,-3.119,-3.119,-3.119,-3.119,-3.119,-3.119,-3.119,-3.119,-3.119,-3.119,-3.119,-3.119,-3.119,-3.119,-3.119,-3.119,-3.119,-3.119,-3.119,-3.119,-3.119,-3.119,-3.119,-3.119]},{"header":{"parameterUnit":"m.s-1","parameterCategory":1,"la1":30.6,"la2":29.2853,"lo1":-89.7004,"lo2":-87.6739,"dy":0.0162,"dx":0.0183,"nx":112,"ny":82,"refTime":"2024-07-15T00:00:00:Z","depth":0,"parameterNumber":3,"parameterNumberName":"V-component_of_WINDS"},"data":[0.0,0.0,0.0,0.0,0.0,0.0,0.0,0.0,0.0,0.0,0.0,0.0,0.0,0.0,0.0,0.0,0.0,0.0,0.0,0.0,0.0,0.0,0.0,0.0,0.0,0.0,0.0,0.0,0.0,0.0,0.0,0.0,0.0,0.0,0.0,0.0,0.0,0.0,0.0,0.0,0.0,0.0,0.0,0.0,0.0,0.0,0.0,0.0,0.0,0.0,0.0,0.0,0.0,0.0,0.0,0.0,0.0,0.0,0.0,0.0,0.0,0.0,0.0,0.0,0.0,0.0,0.0,0.0,0.0,0.0,0.0,0.0,0.0,0.0,0.0,0.0,0.0,0.0,0.0,0.0,0.0,0.0,0.0,0.0,0.0,0.0,0.0,0.0,0.0,0.0,0.0,-2.0965,-2.3044,-2.4698,-2.5704,-2.3573,-2.1079,-1.8493,0.0,0.0,0.0,0.0,0.0,0.0,0.0,0.0,0.0,0.0,0.0,0.0,0.0,0.0,0.0,0.0,0.0,0.0,0.0,0.0,0.0,0.0,0.0,0.0,0.0,0.0,0.0,0.0,0.0,0.0,0.0,0.0,0.0,0.0,0.0,0.0,0.0,0.0,0.0,0.0,0.0,0.0,0.0,0.0,0.0,0.0,0.0,0.0,0.0,0.0,0.0,0.0,0.0,0.0,0.0,0.0,0.0,0.0,0.0,0.0,0.0,0.0,0.0,0.0,0.0,0.0,0.0,0.0,0.0,0.0,0.0,0.0,0.0,0.0,0.0,0.0,0.0,0.0,0.0,0.0,0.0,0.0,0.0,0.0,0.0,0.0,0.0,0.0,0.0,0.0,0.0,0.0,0.0,0.0,0.0,0.0,0.0,0.0,0.0,0.0,0.0,0.0,0.0,0.0,-1.834,-2.2328,-2.3683,-2.4305,-2.4335,-2.2661,-2.084,-1.8995,0.0,0.0,0.0,0.0,0.0,0.0,0.0,0.0,0.0,0.0,0.0,0.0,0.0,0.0,0.0,0.0,0.0,0.0,0.0,0.0,0.0,0.0,0.0,0.0,0.0,0.0,0.0,0.0,0.0,0.0,0.0,0.0,0.0,0.0,0.0,0.0,0.0,0.0,0.0,0.0,0.0,0.0,0.0,0.0,0.0,0.0,0.0,0.0,0.0,0.0,0.0,0.0,0.0,0.0,0.0,0.0,0.0,0.0,0.0,0.0,0.0,0.0,0.0,0.0,0.0,0.0,0.0,0.0,0.0,0.0,0.0,0.0,0.0,0.0,0.0,0.0,0.0,0.0,0.0,0.0,0.0,0.0,0.0,0.0,0.0,0.0,0.0,0.0,0.0,0.0,0.0,0.0,0.0,0.0,0.0,0.0,0.0,0.0,0.0,0.0,0.0,0.0,0.0,-1.7403,-1.9321,-2.3188,-2.3603,-2.3743,-2.3972,-2.246,-2.0665,-1.8682,-1.6484,0.0,0.0,0.0,0.0,0.0,0.0,0.0,0.0,0.0,0.0,0.0,0.0,0.0,0.0,0.0,0.0,0.0,0.0,0.0,0.0,0.0,0.0,0.0,0.0,0.0,0.0,0.0,0.0,0.0,0.0,0.0,0.0,0.0,0.0,0.0,0.0,0.0,0.0,0.0,0.0,0.0,0.0,0.0,0.0,0.0,0.0,0.0,0.0,0.0,0.0,0.0,0.0,0.0,0.0,0.0,0.0,0.0,0.0,0.0,0.0,0.0,0.0,0.0,0.0,0.0,0.0,0.0,0.0,0.0,0.0,0.0,0.0,0.0,0.0,0.0,0.0,0.0,0.0,0.0,0.0,0.0,0.0,0.0,0.0,0.0,0.0,0.0,0.0,0.0,0.0,0.0,0.0,0.0,0.0,0.0,0.0,0.0,0.0,0.0,0.0,0.0,0.0,-1.9296,-2.0362,-2.3464,-2.3371,-2.3283,-2.3753,-2.2133,-2.0263,-1.8329,-1.5869,0.0,0.0,0.0,0.0,0.0,0.0,0.0,0.0,0.0,0.0,0.0,0.0,0.0,0.0,0.0,0.0,0.0,0.0,0.0,0.0,0.0,0.0,0.0,0.0,0.0,0.0,0.0,0.0,0.0,0.0,0.0,0.0,0.0,0.0,0.0,0.0,0.0,0.0,0.0,0.0,0.0,0.0,0.0,0.0,0.0,0.0,0.0,0.0,0.0,0.0,0.0,0.0,0.0,0.0,0.0,0.0,0.0,0.0,0.0,0.0,0.0,0.0,0.0,0.0,0.0,0.0,0.0,0.0,0.0,0.0,0.0,0.0,0.0,0.0,0.0,0.0,0.0,0.0,0.0,0.0,0.0,0.0,0.0,0.0,0.0,0.0,0.0,0.0,0.0,0.0,0.0,0.0,0.0,0.0,0.0,0.0,0.0,0.0,0.0,0.0,0.0,0.0,-1.9158,-2.0627,-2.292,-2.3133,-2.312,-2.3158,-2.1152,-1.9434,-1.8279,-1.5133,0.0,0.0,0.0,0.0,0.0,0.0,0.0,0.0,0.0,0.0,0.0,0.0,0.0,0.0,0.0,0.0,0.0,0.0,0.0,0.0,0.0,0.0,0.0,0.0,0.0,0.0,0.0,0.0,0.0,0.0,0.0,0.0,0.0,0.0,0.0,0.0,0.0,0.0,0.0,0.0,0.0,0.0,0.0,0.0,0.0,0.0,0.0,0.0,0.0,0.0,0.0,0.0,0.0,0.0,0.0,0.0,0.0,0.0,0.0,0.0,0.0,0.0,0.0,0.0,0.0,0.0,0.0,0.0,0.0,0.0,0.0,0.0,0.0,0.0,0.0,0.0,0.0,0.0,0.0,0.0,0.0,0.0,0.0,0.0,0.0,0.0,0.0,0.0,0.0,0.0,0.0,0.0,0.0,0.0,0.0,0.0,0.0,0.0,0.0,0.0,0.0,0.0,-1.8643,-2.0136,0.0,-2.3356,-2.3508,-2.2678,-2.1657,-1.9921,-1.731,0.0,0.0,0.0,0.0,0.0,0.0,0.0,0.0,0.0,0.0,0.0,0.0,0.0,0.0,0.0,0.0,0.0,0.0,0.0,0.0,0.0,0.0,0.0,0.0,0.0,0.0,0.0,0.0,0.0,0.0,0.0,0.0,0.0,0.0,0.0,0.0,0.0,0.0,0.0,0.0,0.0,0.0,0.0,0.0,0.0,0.0,0.0,0.0,0.0,0.0,0.0,0.0,0.0,0.0,0.0,0.0,0.0,0.0,0.0,0.0,0.0,0.0,0.0,0.0,0.0,0.0,0.0,0.0,0.0,0.0,0.0,0.0,0.0,0.0,0.0,0.0,0.0,0.0,0.0,0.0,0.0,0.0,0.0,0.0,0.0,0.0,0.0,0.0,0.0,0.0,0.0,0.0,0.0,0.0,0.0,0.0,0.0,0.0,0.0,0.0,0.0,0.0,-1.6996,-1.8493,-2.0023,0.0,-2.3321,-2.3543,-2.2405,-2.1458,-1.9666,-1.6703,0.0,0.0,0.0,0.0,0.0,0.0,0.0,0.0,0.0,0.0,0.0,0.0,0.0,0.0,0.0,0.0,0.0,0.0,0.0,0.0,0.0,0.0,0.0,0.0,0.0,0.0,0.0,0.0,0.0,0.0,0.0,0.0,0.0,0.0,0.0,0.0,0.0,0.0,0.0,0.0,0.0,0.0,0.0,0.0,0.0,0.0,0.0,0.0,0.0,0.0,0.0,0.0,0.0,0.0,0.0,0.0,0.0,0.0,0.0,0.0,0.0,0.0,0.0,0.0,0.0,0.0,0.0,0.0,0.0,0.0,0.0,0.0,0.0,0.0,0.0,0.0,0.0,0.0,0.0,0.0,0.0,0.0,0.0,0.0,0.0,0.0,0.0,0.0,0.0,0.0,0.0,0.0,0.0,0.0,0.0,0.0,0.0,0.0,0.0,0.0,0.0,0.0,-1.7033,-1.8794,-2.0426,-2.2108,-2.2889,-2.3031,-2.2342,-2.0344,-1.8375,0.0,0.0,0.0,0.0,0.0,0.0,0.0,0.0,0.0,0.0,0.0,0.0,0.0,0.0,0.0,0.0,0.0,0.0,0.0,0.0,0.0,0.0,0.0,0.0,0.0,0.0,0.0,0.0,0.0,0.0,0.0,0.0,0.0,0.0,0.0,0.0,0.0,0.0,0.0,0.0,0.0,0.0,0.0,0.0,0.0,0.0,0.0,0.0,0.0,0.0,0.0,0.0,0.0,0.0,0.0,0.0,0.0,0.0,0.0,0.0,0.0,0.0,0.0,0.0,0.0,0.0,0.0,0.0,0.0,0.0,0.0,0.0,0.0,0.0,0.0,0.0,0.0,0.0,0.0,0.0,0.0,0.0,0.0,0.0,0.0,0.0,0.0,0.0,0.0,0.0,0.0,0.0,0.0,0.0,0.0,0.0,0.0,0.0,0.0,0.0,0.0,0.0,0.0,-1.6471,-1.8205,-1.9915,-2.1626,-2.2844,-2.3044,-2.1901,-2.1014,-1.9202,-1.6128,0.0,0.0,0.0,0.0,0.0,0.0,0.0,0.0,0.0,0.0,0.0,0.0,0.0,0.0,0.0,0.0,0.0,0.0,0.0,0.0,0.0,0.0,0.0,0.0,0.0,0.0,0.0,0.0,0.0,0.0,0.0,0.0,0.0,0.0,0.0,0.0,0.0,0.0,0.0,0.0,0.0,0.0,0.0,0.0,0.0,0.0,0.0,0.0,0.0,0.0,0.0,0.0,0.0,0.0,0.0,0.0,0.0,0.0,0.0,0.0,0.0,0.0,0.0,0.0,0.0,0.0,0.0,0.0,0.0,0.0,0.0,0.0,0.0,0.0,0.0,0.0,0.0,0.0,0.0,0.0,0.0,0.0,0.0,0.0,0.0,0.0,0.0,0.0,0.0,0.0,0.0,0.0,0.0,0.0,0.0,0.0,0.0,0.0,0.0,0.0,0.0,0.0,-1.6589,-1.8598,-2.0354,-2.1828,-2.2961,-2.3058,-2.1706,-2.0792,-1.9087,-1.6195,0.0,0.0,0.0,0.0,0.0,0.0,0.0,0.0,0.0,0.0,0.0,0.0,0.0,0.0,0.0,0.0,0.0,0.0,0.0,0.0,0.0,0.0,0.0,0.0,0.0,0.0,0.0,0.0,0.0,0.0,0.0,0.0,0.0,0.0,0.0,0.0,0.0,0.0,0.0,0.0,0.0,0.0,0.0,0.0,0.0,0.0,0.0,0.0,0.0,0.0,0.0,0.0,0.0,0.0,0.0,0.0,0.0,0.0,0.0,0.0,0.0,0.0,0.0,0.0,0.0,0.0,0.0,0.0,0.0,0.0,0.0,0.0,0.0,0.0,0.0,0.0,0.0,0.0,0.0,0.0,0.0,0.0,0.0,0.0,0.0,0.0,0.0,0.0,0.0,0.0,0.0,0.0,0.0,0.0,0.0,0.0,0.0,0.0,0.0,0.0,0.0,0.0,-1.7142,-1.9546,-2.1396,-2.2498,-2.3103,-2.2934,-2.1716,-2.0104,-1.8431,-1.6681,0.0,0.0,0.0,0.0,0.0,0.0,0.0,0.0,0.0,0.0,0.0,0.0,0.0,0.0,0.0,0.0,0.0,0.0,0.0,0.0,0.0,0.0,0.0,0.0,0.0,0.0,0.0,0.0,0.0,0.0,0.0,0.0,0.0,0.0,0.0,0.0,0.0,0.0,0.0,0.0,0.0,0.0,0.0,0.0,0.0,0.0,0.0,0.0,0.0,0.0,0.0,0.0,0.0,0.0,0.0,0.0,0.0,0.0,0.0,0.0,-1.4688,0.0,0.0,0.0,0.0,0.0,0.0,0.0,0.0,0.0,0.0,0.0,0.0,0.0,0.0,0.0,0.0,0.0,0.0,0.0,0.0,0.0,0.0,0.0,0.0,0.0,0.0,0.0,0.0,0.0,0.0,0.0,0.0,0.0,0.0,0.0,0.0,0.0,0.0,0.0,0.0,0.0,-1.7256,-1.9497,-2.1361,-2.2548,-2.2328,-2.2007,-2.1701,-2.0536,-1.9058,-1.7307,-1.5424,0.0,0.0,0.0,0.0,0.0,0.0,0.0,0.0,0.0,0.0,0.0,0.0,0.0,0.0,0.0,0.0,0.0,0.0,0.0,0.0,0.0,0.0,0.0,0.0,0.0,0.0,0.0,0.0,0.0,0.0,0.0,0.0,0.0,0.0,0.0,0.0,0.0,0.0,0.0,0.0,0.0,0.0,0.0,0.0,0.0,0.0,0.0,0.0,0.0,0.0,0.0,0.0,0.0,0.0,0.0,0.0,0.0,0.0,0.0,0.0,-1.5546,0.0,0.0,0.0,0.0,0.0,0.0,0.0,0.0,0.0,0.0,0.0,0.0,0.0,0.0,0.0,0.0,0.0,0.0,0.0,0.0,0.0,0.0,0.0,0.0,0.0,0.0,0.0,0.0,0.0,0.0,0.0,0.0,0.0,0.0,0.0,0.0,0.0,0.0,0.0,0.0,-1.8876,-2.0746,-2.2314,-2.3501,-2.2739,-2.2066,-2.1724,-2.0375,-1.9028,-1.785,-1.6216,0.0,0.0,0.0,0.0,0.0,0.0,0.0,0.0,0.0,0.0,0.0,0.0,0.0,0.0,0.0,0.0,0.0,0.0,0.0,0.0,0.0,0.0,0.0,0.0,0.0,0.0,0.0,0.0,0.0,0.0,0.0,0.0,0.0,0.0,0.0,0.0,0.0,0.0,0.0,0.0,0.0,0.0,0.0,0.0,0.0,0.0,0.0,0.0,0.0,0.0,0.0,0.0,0.0,-1.88,-2.0169,-2.1385,-2.218,-2.2914,-2.3362,-2.0296,-1.8922,-1.8742,0.0,0.0,0.0,0.0,0.0,0.0,0.0,0.0,0.0,0.0,0.0,0.0,0.0,0.0,0.0,0.0,0.0,0.0,0.0,0.0,0.0,0.0,0.0,0.0,0.0,-2.1835,-2.2124,0.0,0.0,0.0,0.0,0.0,0.0,0.0,0.0,0.0,0.0,0.0,0.0,-2.064,-2.2185,-2.3384,-2.4334,-2.3293,-2.2252,-2.1585,-2.0067,-1.887,-1.8242,-1.6898,-1.5613,0.0,0.0,0.0,0.0,0.0,0.0,0.0,0.0,0.0,0.0,0.0,0.0,0.0,0.0,0.0,0.0,0.0,0.0,0.0,0.0,0.0,0.0,0.0,0.0,0.0,0.0,0.0,0.0,0.0,0.0,0.0,0.0,-0.4242,-0.4596,0.0,0.0,0.0,0.0,0.0,0.0,0.0,0.0,0.0,0.0,0.0,0.0,0.0,-1.4564,-1.582,-1.8196,-1.9434,-1.9512,-2.0859,-2.2542,-2.4399,-2.4086,-2.4696,-2.5978,-2.5111,0.0,-2.1438,-2.0647,0.0,0.0,0.0,0.0,0.0,0.0,0.0,0.0,0.0,0.0,0.0,0.0,0.0,0.0,0.0,0.0,0.0,0.0,0.0,0.0,0.0,0.0,-2.3364,-2.3427,-2.4176,-2.4558,0.0,-2.0979,-1.8641,-1.7307,-1.5805,0.0,0.0,0.0,0.0,0.0,0.0,0.0,-2.0817,-2.2477,-2.3585,-2.3798,-2.2644,-2.1592,-2.0968,-2.0155,-1.9271,-1.8267,-1.799,-1.7149,-1.5563,-1.4525,0.0,0.0,0.0,0.0,0.0,0.0,0.0,0.0,0.0,0.0,0.0,0.0,0.0,0.0,0.0,0.0,0.0,0.0,0.0,0.0,0.0,0.0,0.0,0.0,0.0,0.0,0.0,0.0,0.0,-0.4709,-0.5784,-0.6229,-0.6909,-0.7171,0.0,0.0,0.0,0.0,0.0,0.0,0.0,0.0,0.0,-1.3711,-1.5157,-1.6657,-1.8228,-2.011,-2.1143,-2.1387,-2.2624,-2.4122,-2.5822,-2.5609,-2.6188,-2.7355,-2.6859,-2.6016,-2.4826,-2.3024,-2.181,-2.1002,0.0,0.0,0.0,0.0,-2.0112,-2.0188,-2.1129,-2.1377,0.0,-2.0326,0.0,0.0,0.0,0.0,0.0,0.0,0.0,0.0,0.0,0.0,0.0,-2.4393,-2.526,-2.5778,-2.4856,-2.3929,-2.2621,0.0,-1.9704,-1.8893,-1.7128,0.0,0.0,0.0,0.0,0.0,-2.2853,-2.3695,-2.4193,-2.425,-2.2724,-2.1448,-2.0845,-2.0207,-1.9346,-1.8279,-1.8204,-1.7589,-1.622,-1.5412,-1.462,0.0,0.0,0.0,0.0,0.0,0.0,0.0,0.0,0.0,0.0,0.0,0.0,0.0,0.0,0.0,0.0,0.0,0.0,0.0,0.0,0.0,0.0,0.0,0.0,0.0,0.0,0.0,0.0,-0.6394,-0.7434,-0.766,-0.8419,-0.8771,0.0,0.0,0.0,0.0,0.0,0.0,-1.1495,-1.2154,-1.3476,-1.5701,-1.6951,-1.8557,-2.0471,-2.163,-2.2363,-2.2666,-2.3519,-2.4681,-2.6058,-2.6058,-2.6666,-2.7671,-2.7561,-2.7513,-2.7335,-2.5205,-2.4068,-2.3595,-2.2822,-2.246,-2.241,-2.2949,-2.2799,-2.2535,-2.3929,-2.4042,-2.3421,-2.2761,0.0,-2.1794,-2.0012,0.0,0.0,0.0,0.0,-2.1886,-2.3376,-2.4079,-2.4556,-2.5109,-2.6007,-2.6443,-2.5431,-2.5929,-2.5773,0.0,-2.287,-2.2405,-2.0154,0.0,0.0,0.0,0.0,-2.3595,-2.4709,-2.4558,-2.4376,-2.4435,-2.2675,-2.1221,-2.0597,-1.9953,-1.9208,-1.8267,-1.8078,-1.7551,-1.6538,-1.612,-1.5643,-1.511,0.0,0.0,0.0,0.0,0.0,0.0,0.0,0.0,0.0,0.0,0.0,0.0,0.0,0.0,0.0,0.0,0.0,0.0,0.0,0.0,0.0,0.0,0.0,0.0,0.0,0.0,0.0,0.0,0.0,-0.8265,-0.9771,0.0,0.0,0.0,0.0,-1.1216,-1.1808,-1.2421,-1.3066,-1.3654,-1.5187,-1.7788,-1.8619,-2.0061,-2.2357,-2.2818,-2.3042,-2.3062,-2.3149,-2.378,-2.4872,-2.4872,-2.5504,-2.6648,-2.7619,-2.8048,-2.8009,-2.736,-2.6794,-2.623,-2.5636,-2.5084,-2.4687,-2.5234,-2.5096,-2.4713,-2.531,-2.5172,-2.4775,-2.5247,-2.4707,-2.3753,-2.3058,-2.2506,0.0,0.0,-2.3389,-2.4079,-2.5184,-2.5498,-2.5661,-2.6273,-2.6572,-2.6505,-2.5742,-2.6445,-2.6671,0.0,-2.4028,-2.3696,-2.3475,0.0,-2.2885,-2.3314,-2.4022,-2.4754,-2.5457,-2.4485,-2.3755,-2.3747,-2.1999,-2.0572,-1.9901,-1.9346,-1.8795,-1.8242,-1.7714,-1.7149,-1.6525,-1.6475,-1.622,-1.5668,-1.3993,0.0,0.0,0.0,0.0,0.0,0.0,0.0,0.0,0.0,0.0,0.0,0.0,0.0,0.0,0.0,0.0,0.0,0.0,0.0,0.0,0.0,0.0,0.0,0.0,0.0,0.0,0.0,0.0,-1.102,-1.2265,0.0,0.0,-1.1752,-1.2281,-1.2552,-1.312,-1.3714,-1.4352,-1.4716,-1.6151,-1.8866,-1.9219,-2.0473,-2.2867,-2.3023,-2.3091,-2.3091,-2.3091,-2.3714,-2.4787,-2.4049,-2.4723,-2.6513,-2.6883,-2.7441,-2.8128,-2.8683,-2.8561,-2.7996,-2.7431,-2.7092,-2.6967,-2.7143,-2.7092,-2.6967,-2.7143,-2.7092,-2.6841,-2.6348,-2.541,-2.4462,-2.4249,-2.4048,-2.401,-2.4569,-2.487,-2.5209,-2.5984,-2.6185,-2.6235,-2.6449,-2.6527,-2.6563,-2.644,-2.7134,-2.7493,-2.6605,-2.6323,-2.5962,-2.5071,-2.5133,-2.504,-2.4343,-2.5196,-2.5974,-2.6213,-2.5116,-2.4175,-2.3763,-2.1949,-2.0522,-1.985,-1.9309,-1.877,-1.8242,-1.7712,-1.7124,-1.6525,-1.65,-1.64,-1.6233,-1.4952,-1.3694,0.0,0.0,0.0,0.0,0.0,0.0,0.0,0.0,0.0,0.0,0.0,0.0,0.0,0.0,0.0,0.0,0.0,0.0,0.0,0.0,0.0,0.0,0.0,0.0,0.0,0.0,-1.4104,-1.3027,-1.398,-1.4137,-1.2617,-1.3038,-1.3514,-1.3915,-1.4309,-1.4743,-1.5231,-1.5438,-1.6768,-1.9443,-1.9497,-2.0674,-2.3091,-2.3091,-2.3091,-2.3091,-2.3091,-2.3507,-2.4211,-2.343,-2.4349,-2.6524,-2.6524,-2.7331,-2.8727,-2.9495,-2.9566,-2.9189,-2.8812,-2.8674,-2.8674,-2.8674,-2.8549,-2.836,-2.8172,-2.8109,-2.7984,-2.7291,-2.6527,-2.5887,-2.5711,-2.5649,-2.5686,-2.5837,-2.5887,-2.6009,-2.6399,-2.6499,-2.6499,-2.6499,-2.6499,-2.6612,-2.7053,-2.7602,-2.8021,-2.8097,-2.8012,-2.7585,-2.6467,-2.6632,-2.6632,-2.5749,-2.6363,-2.6842,-2.6603,-2.5427,-2.4295,-2.342,-2.1782,-2.0489,-1.9849,-1.9133,-1.8569,-1.8229,-1.7501,-1.6923,-1.6513,-1.65,-1.65,-1.65,-1.5616,-1.4631,-1.3539,0.0,0.0,0.0,0.0,0.0,0.0,0.0,0.0,0.0,0.0,0.0,0.0,0.0,0.0,0.0,0.0,0.0,0.0,0.0,0.0,0.0,0.0,0.0,-1.311,-1.4799,-1.5532,-1.415,-1.4826,-1.4962,-1.3776,-1.4179,-1.4796,-1.5364,-1.5411,-1.5531,-1.5764,-1.5784,-1.6929,-1.9405,-1.9497,-2.0674,-2.3091,-2.3091,-2.3091,-2.3091,-2.3091,-2.3091,-2.3091,-2.3135,-2.4392,-2.6524,-2.6565,-2.7799,-2.9792,-2.9792,-2.9792,-2.9792,-2.9792,-2.9792,-2.9792,-2.9792,-2.944,-2.8838,-2.8348,-2.8147,-2.8134,-2.8134,-2.8122,-2.8009,-2.7469,-2.7306,-2.7228,-2.6675,-2.6512,-2.6512,-2.6499,-2.6499,-2.6499,-2.6499,-2.6499,-2.6714,-2.7571,-2.7885,-2.8302,-2.9171,-2.8956,-2.8412,-2.775,-2.76,-2.76,-2.76,-2.7575,0.0,-2.659,-2.5302,-2.3985,-2.2738,-2.1452,-2.0465,-1.9849,-1.8819,-1.8204,-1.8204,-1.7114,-1.65,-1.6525,-1.6525,-1.6547,-1.6547,-1.5997,-1.5436,-1.4855,0.0,0.0,0.0,0.0,0.0,0.0,0.0,0.0,0.0,0.0,0.0,0.0,0.0,0.0,0.0,0.0,0.0,0.0,0.0,0.0,0.0,0.0,-1.398,-1.5291,-1.7376,-1.8146,-1.6424,-1.7207,-1.7118,-1.5089,-1.5251,-1.5491,-1.5698,-1.5712,-1.5698,-1.5778,-1.5784,-1.6929,-1.9405,-1.9497,-2.0674,-2.3091,-2.3091,-2.3091,-2.3091,-2.3091,-2.3091,-2.3135,-2.3963,-2.5136,-2.6565,-2.7319,-2.849,-2.9792,-2.9792,-2.9792,-2.9792,-2.9792,-2.9792,-2.9792,-2.9792,-2.9691,-2.9528,-2.9377,-2.9051,-2.8662,-2.8662,-2.8436,-2.8084,-2.7921,-2.7883,-2.777,-2.7241,-2.709,-2.7002,-2.66,-2.6499,-2.6499,-2.6499,-2.6499,-2.6871,-2.833,-2.8675,-2.9019,-3.0,-2.9712,-2.9101,-2.8427,-2.7929,-2.76,-2.76,-2.7137,0.0,-2.6537,-2.4872,-2.3432,-2.2684,-2.1452,-2.0465,-1.9849,-1.8819,-1.8204,-1.8204,-1.7114,-1.671,-1.7124,-1.7149,-1.7336,-1.7726,-1.6582,-1.6096,0.0,0.0,0.0,0.0,0.0,0.0,0.0,0.0,0.0,0.0,0.0,0.0,0.0,0.0,0.0,0.0,0.0,0.0,0.0,0.0,0.0,0.0,-1.3279,-1.4873,-1.6297,-1.7883,-1.8486,-1.7194,-1.7699,-1.7455,-1.5744,-1.5732,-1.5784,-1.5784,-1.5784,-1.5784,-1.5784,-1.5784,-1.6929,-1.9405,-1.9497,-2.0674,-2.3091,-2.3091,-2.3091,-2.3091,-2.3091,-2.3091,-2.3135,-2.4296,-2.542,0.0,-2.7643,-2.8767,-2.9792,-2.9792,-2.9792,0.0,0.0,0.0,0.0,0.0,-2.9404,-2.974,-2.9236,-2.9181,-2.9289,-2.9289,-2.9076,-2.8762,-2.8524,-2.8448,-2.8285,-2.7507,-2.7281,-2.719,-2.6637,-2.6499,-2.6499,-2.6499,-2.6499,-2.685,-2.8182,-2.8748,-2.9268,-3.0236,-3.0164,0.0,-2.9131,-2.8244,-2.7484,-2.7203,-2.6774,-2.6283,-2.5646,-2.4527,-2.3428,-2.2574,-2.1621,-2.0805,-2.0239,-1.9171,0.0,0.0,0.0,-1.7475,-1.8087,-1.8109,0.0,0.0,0.0,0.0,0.0,0.0,0.0,0.0,-1.732,-1.78,0.0,0.0,0.0,0.0,0.0,0.0,0.0,0.0,0.0,0.0,0.0,0.0,0.0,0.0,0.0,0.0,-1.4361,-1.5538,-1.6345,-1.6995,-1.7302,-1.7011,-1.7062,-1.6752,-1.5893,-1.5784,-1.5784,-1.5784,-1.5784,-1.5784,-1.5784,0.0,0.0,0.0,0.0,-2.0718,-2.3091,-2.314,-2.314,-2.3091,-2.3091,-2.3091,-2.3135,-2.4296,-2.542,-2.6565,-2.7643,-2.8767,-2.9792,-2.9792,-2.9702,-2.9624,-2.9753,-2.9792,-2.9663,-2.8518,-2.8806,-2.9624,-2.8518,0.0,0.0,-2.9792,-2.9792,-2.9691,-2.9176,-2.8938,-2.8675,-2.767,-2.7331,-2.719,-2.6637,-2.6499,-2.6499,-2.6499,-2.6499,-2.6748,-2.7637,-2.846,-2.9286,-3.0238,-3.0483,-3.0285,-2.9588,-2.8412,-2.7343,-2.6604,-2.6363,-2.5783,-2.4452,-2.4234,-2.3706,-2.2417,0.0,0.0,-2.0742,-1.971,-1.9058,-1.9008,-1.8544,-1.8574,-1.9178,-1.9201,-1.9762,-2.0979,-2.0928,-2.1167,-2.1695,-2.1769,-2.1844,-2.1859,-1.9944,-2.0064,0.0,0.0,0.0,0.0,0.0,0.0,0.0,0.0,0.0,0.0,0.0,0.0,0.0,0.0,0.0,-1.3106,-1.4258,-1.5192,-1.5563,-1.5913,-1.6338,-1.6911,-1.7323,-1.7105,-1.5913,-1.5784,-1.5784,-1.5784,-1.5784,-1.5784,-1.5784,-1.5784,0.0,-1.9405,-1.9815,-2.0981,-2.3101,-2.3486,-2.3486,-2.3091,0.0,0.0,-2.3135,-2.4296,-2.542,-2.6565,-2.7643,-2.8767,-2.9792,-2.9792,-2.9275,-2.8518,-2.9443,-2.9792,-2.9663,-2.8518,-2.8806,-2.9624,-2.8518,-2.8858,-2.9792,-2.9792,-2.9792,-2.9779,-2.9666,-2.9302,0.0,-2.8134,-2.762,-2.719,-2.6637,-2.6499,-2.6499,-2.6499,-2.6499,-2.6905,-2.8427,-2.8876,-2.9442,-3.097,-3.0857,-3.0116,-2.885,-2.7997,-2.7289,-2.6609,-2.5481,-2.4624,-2.435,-2.3738,-2.3073,-2.2372,-2.2221,-2.1744,-2.0779,-2.0037,-1.9447,-1.9033,-1.8907,-1.9137,-1.9813,-1.9837,-2.0379,-2.1506,-2.1124,-2.1167,-2.1695,-2.2239,-2.2763,-2.3191,-2.1784,-2.1874,0.0,0.0,0.0,0.0,0.0,0.0,0.0,0.0,0.0,0.0,0.0,-1.1349,0.0,0.0,-1.3655,-1.4208,-1.4796,-1.5284,-1.5571,-1.5738,-1.5954,-1.6344,-1.661,-1.648,-1.5872,-1.5784,-1.5784,-1.5784,-1.5784,-1.5844,-1.6046,-1.6703,-1.7991,-1.9978,-2.0921,-2.2104,-2.3734,-2.3789,-2.3682,-2.3467,-2.3198,-2.3091,-2.3178,-2.4882,-2.5975,-2.6595,-2.8239,-2.9275,-2.9792,-2.9792,-2.9145,-2.8176,-2.8727,-2.8621,-2.8091,-2.7493,-2.7988,-2.8858,-2.8307,-2.8858,-2.9792,-2.9792,-2.9792,-2.9792,-2.9792,-2.9591,-2.9189,-2.8348,-2.7908,-2.7507,-2.6713,-2.6499,-2.6499,-2.6499,-2.6499,-2.685,-2.8084,-2.833,-2.8716,-3.0011,-2.9965,-2.9415,-2.836,-2.7403,-2.6476,-2.5536,-2.4766,-2.4147,-2.3738,-2.3335,-2.2995,-2.2732,-2.2443,-2.2083,-2.1543,-2.0715,-1.9999,-1.9447,-1.971,-2.0178,-2.0813,-2.118,-2.1756,-2.2629,-2.2407,-2.2372,-2.2652,-2.3325,-2.3819,-2.4081,-2.3804,-2.4163,0.0,0.0,0.0,0.0,0.0,0.0,0.0,0.0,-1.1056,-1.1549,-1.2211,-1.2886,-1.3373,-1.3941,-1.4576,-1.5284,-1.5444,-1.5565,-1.5751,-1.5784,-1.5784,-1.5784,-1.5784,-1.5784,-1.5784,-1.5784,-1.5784,-1.5784,-1.5784,-1.6054,-1.6635,-1.769,-1.9121,-2.0945,-2.2147,-2.3261,-2.4368,-2.416,-2.3955,-2.3789,-2.3437,-2.3179,-2.3178,-2.5221,-2.6307,-2.6637,-2.8843,-2.9792,-2.9792,-2.9573,-2.8819,-2.7804,-2.7804,-2.6994,-2.585,-2.6099,-2.6871,-2.7804,-2.7804,-2.853,-2.9495,-2.9714,-2.9792,-2.9792,-2.9792,-2.9716,-2.9428,-2.8524,-2.8109,-2.7745,-2.6889,-2.6575,-2.6499,-2.6499,-2.6499,-2.6714,-2.755,-2.7703,-2.7953,-2.8844,-2.9002,-2.8746,-2.7923,-2.6844,-2.5712,-2.4622,-2.4213,-2.3826,-2.3185,-2.3108,-2.3108,-2.3108,-2.2706,-2.2393,-2.2322,-2.1393,-2.0603,-2.0012,-2.059,-2.1173,-2.1687,-2.2459,-2.3176,-2.3782,-2.3924,-2.3984,-2.3984,-2.453,-2.4859,-2.4993,-2.5555,-2.6078,-1.0722,-1.1671,0.0,-1.3395,-1.3403,-1.376,0.0,0.0,-1.4164,-1.5115,-1.4767,-1.4289,-1.4362,-1.4856,-1.5284,-1.5384,-1.5611,-1.5792,-1.5778,-1.5784,-1.5784,-1.5784,-1.5784,-1.5784,-1.5784,-1.5784,-1.5784,-1.5784,-1.5784,-1.647,-1.8011,-1.8218,-1.955,-2.2303,-2.2949,-2.3596,-2.4368,-2.4756,-2.4587,-2.3789,-2.374,-2.3516,-2.3135,-2.4414,-2.5546,-2.6637,-2.8843,-2.9792,-2.9702,-2.8727,-2.7654,-2.6678,-2.6678,-2.5347,-2.3594,-2.4628,-2.5714,-2.6678,-2.6678,-2.7412,-2.8478,-2.9495,-2.9792,-2.9792,-2.9792,-2.9428,-2.8963,-2.8838,-2.8134,-2.7344,-2.7218,-2.6864,-2.6499,-2.6499,-2.6499,-2.6714,-2.755,-2.7703,-2.7953,-2.8844,-2.9002,-2.8588,-2.7245,-2.6516,-2.5858,-2.512,-2.4,-2.3198,-2.3108,-2.3108,-2.3108,-2.3108,-2.3045,-2.2819,-2.2347,-2.1744,-2.1182,-2.0629,-2.116,-2.1562,-2.17,-2.2932,-2.3871,-2.4462,-2.5068,-2.539,-2.539,-2.5442,-2.5794,-2.6378,-2.6437,-2.6512,-1.427,0.0,0.0,0.0,-1.729,-1.7288,-1.8183,-1.7294,-1.6285,-1.6145,-1.6096,-1.5847,-1.5158,-1.5371,-1.5651,0.0,-1.5752,-1.5784,-1.5784,-1.5784,-1.5784,-1.5784,-1.5784,-1.5784,-1.5784,-1.5784,-1.5784,-1.5784,-1.6688,-1.7632,-1.848,-2.0224,-2.1812,-2.3187,-2.4165,-2.4823,-2.5138,-2.5107,-2.494,-2.4531,-2.4277,-2.3926,-2.356,-2.5326,-2.6979,-2.8462,-2.9417,-2.9404,-2.8767,-2.8307,-2.7064,-2.5504,-2.5504,-2.451,-2.3299,-2.5136,-2.5672,-2.5588,-2.6265,-2.7197,-2.8176,-2.8648,-2.9275,-2.9792,-2.9792,-2.9616,-2.9365,-2.8988,-2.836,-2.7682,-2.7369,-2.6901,-2.6499,-2.6499,-2.6499,-2.6714,-2.755,-2.7317,-2.7263,-2.8084,-2.7855,-2.7372,-2.6753,-2.6205,-2.5608,-2.4994,-2.3874,-2.3108,-2.3108,-2.3108,-2.3108,-2.3108,-2.3108,-2.2882,-2.2359,-2.2096,-2.1732,-2.1207,-2.2181,-2.2787,-2.279,-2.4096,-2.4911,-2.5173,-2.5457,-2.5615,-2.5615,-2.5989,-2.6318,-2.6602,-2.7001,-2.718,-1.6751,0.0,0.0,-2.0096,-2.0041,-1.9861,-2.0121,-1.9332,-1.8345,-1.7634,-1.7567,-1.7356,-1.6349,-1.6409,0.0,-1.6621,-1.6465,-1.6339,-1.6339,-1.6015,-1.5784,-1.5784,-1.6109,-1.6339,-1.6339,-1.6015,-1.5967,-1.6292,-1.7556,-1.8737,-1.974,-2.2004,-2.3587,-2.4236,-2.5177,-2.5693,-2.5693,-2.541,-2.5195,-2.5106,-2.4746,-2.4375,-2.4045,-2.6152,-2.794,-2.9365,-2.9663,-2.9157,-2.8096,-2.7763,-2.6532,-2.4787,-2.4787,-2.4082,-2.3343,-2.5305,-2.5504,-2.4957,-2.6099,-2.7197,-2.8136,-2.8466,-2.9118,-2.9792,-2.9792,-2.9792,-2.9666,-2.9051,-2.8499,-2.7984,-2.7419,-2.6901,-2.6499,-2.6499,-2.6499,-2.6658,-2.7229,-2.6905,-2.6692,-2.7263,-2.6905,-2.6499,-2.6499,-2.6009,-2.5423,-2.4863,-2.396,-2.3283,-2.312,-2.3108,-2.3108,-2.3108,-2.3108,-2.2945,-2.2543,-2.2506,-2.2383,-2.2041,-2.3138,-2.3832,-2.3909,-2.5175,-2.5884,-2.5884,-2.6063,-2.6153,-2.6153,-2.6632,-2.6881,-2.6896,-2.7375,-2.76,0.0,0.0,-1.8888,-2.0389,-2.0673,-2.0889,-2.2119,-2.1489,-2.0618,-2.0584,-1.9597,-1.8624,-1.8194,-1.8422,-1.8693,-1.8693,-1.8102,-1.7638,-1.7638,-1.6574,-1.5784,-1.5784,-1.6897,-1.7638,0.0,-1.6527,-1.6292,-1.7552,-1.803,-1.9542,-2.2342,-2.2985,-2.4042,-2.5577,-2.5684,-2.5693,-2.5693,-2.5674,-2.5498,-2.5116,-2.5106,-2.4814,-2.4421,-2.6248,-2.7462,-2.8215,-2.9326,-2.9157,-2.8004,-2.6964,-2.5839,-2.4787,-2.4787,-2.4082,-2.3266,-2.4414,-2.483,-2.4957,-2.6099,-2.7197,-2.8295,-2.9404,-2.9753,-2.9792,-2.9792,-2.9792,-2.9666,-2.9051,-2.8499,-2.7984,-2.7419,-2.6901,-2.6499,-2.6499,-2.6499,-2.6499,-2.6521,-2.6521,-2.6499,-2.6521,-2.6521,-2.6499,-2.6499,-2.6009,-2.5423,-2.4863,-2.4343,-2.3766,-2.3183,-2.3108,-2.3108,-2.3108,-2.3108,-2.3095,-2.3083,-2.3083,-2.3145,-2.3339,-2.3987,-2.4457,-2.4659,-2.5908,-2.6557,-2.6557,-2.721,-2.754,-2.754,-2.7555,-2.757,-2.757,-2.7585,-2.76,0.0,0.0,-2.1446,-2.2641,-2.2896,-2.2971,-2.339,-2.264,-2.1659,-2.0855,-1.9908,-1.8921,-1.7958,-1.7912,-1.811,-1.8338,-1.8414,-1.8283,-1.7794,-1.7318,-1.6763,-1.592,-1.6897,0.0,0.0,0.0,0.0,-1.8864,-2.0292,-2.1169,-2.1289,-2.2735,-2.3399,-2.3076,-2.3899,-2.4353,-2.4353,-2.5274,-2.5615,-2.5508,-2.5215,-2.5394,-2.5936,-2.6748,-2.7657,-2.8554,-2.8622,-2.8068,-2.6964,-2.5839,-2.4713,-2.3681,-2.3681,-2.343,-2.3135,-2.3507,-2.4168,-2.4745,-2.4392,-2.4967,-2.6108,-2.7261,-2.8079,-2.8806,-2.9573,-2.9792,-2.9754,-2.9553,-2.8825,-2.8059,-2.7871,-2.719,-2.6499,-2.6499,-2.6499,-2.6499,-2.6499,-2.6499,-2.6499,-2.6499,-2.6499,-2.6499,-2.6499,-2.6336,-2.5862,-2.4926,-2.3998,-2.3333,-2.3133,-2.3108,-2.3108,-2.3108,-2.3108,-2.3108,-2.3108,-2.3108,-2.3365,-2.3973,-2.4666,-2.5322,-2.5862,-2.6785,-2.727,-2.727,-2.748,-2.76,-2.76,-2.76,-2.76,-2.76,-2.76,-2.76,0.0,-2.1346,-2.2481,-2.3692,-2.3726,-2.345,-2.345,-2.2956,-2.2113,-2.0712,-1.9959,-1.9237,-1.8158,-1.8099,-1.8444,-1.9146,-1.9256,-1.9192,-1.902,-1.8634,-1.7863,-1.6622,-1.7688,0.0,0.0,0.0,0.0,-2.0133,-2.1252,-2.1687,-2.1249,-2.236,-2.2567,-2.1752,-2.3018,-2.3692,-2.3692,-2.502,-2.5693,-2.5684,-2.5449,-2.5506,-2.589,-2.6492,-2.6969,-2.7368,-2.7458,-2.6912,-2.585,-2.5083,-2.4125,-2.3091,-2.3091,-2.3091,-2.3091,-2.3091,-2.3551,-2.4168,-2.3844,-2.4702,-2.6108,-2.683,-2.7815,-2.8858,-2.9573,-2.9792,-2.9716,-2.9302,-2.8662,-2.8009,-2.762,-2.7027,-2.6499,-2.6499,-2.6499,-2.6499,-2.6499,-2.6499,-2.6499,-2.6499,-2.6499,-2.6499,-2.6499,-2.6323,-2.585,-2.4926,-2.3998,-2.3333,-2.3133,-2.3108,-2.3108,-2.3108,-2.3108,-2.3108,-2.3108,-2.3108,-2.3454,-2.4263,-2.4979,-2.5728,-2.6484,-2.7203,-2.76,-2.76,-2.76,-2.76,-2.76,-2.76,-2.76,-2.76,-2.76,-2.76,-2.1227,-2.1706,-2.2084,-2.3567,-2.3229,-2.251,-2.251,-2.2441,-2.1904,-2.0225,-1.9814,-1.9502,0.0,0.0,-1.9639,-2.0888,-2.0553,-2.0391,-2.1184,-2.0322,-1.9163,0.0,0.0,0.0,0.0,0.0,0.0,-2.1203,0.0,-2.1066,-2.2159,-2.1817,-2.16,-2.16,-2.2918,-2.3633,-2.3692,-2.502,-2.5693,-2.5693,-2.5693,-2.5235,-2.4443,-2.5583,-2.5656,-2.4904,-2.5944,-2.5797,-2.4787,-2.4745,-2.4092,-2.3091,-2.3091,-2.3091,-2.3091,-2.3091,-2.3135,-2.3343,-2.4414,-2.6191,-2.7924,-2.8004,-2.8779,-2.9702,-2.9792,-2.9792,-2.9566,-2.8461,-2.8134,-2.7858,-2.6813,-2.6512,-2.6499,-2.6499,-2.6499,-2.6499,-2.6499,-2.6499,-2.6499,-2.6499,-2.6499,-2.6499,-2.6499,-2.6009,-2.5435,-2.4933,-2.4368,-2.3791,-2.3183,-2.3108,-2.3108,-2.3108,-2.3108,-2.3108,-2.3108,-2.3108,-2.3454,-2.4263,-2.4979,-2.5728,-2.6484,-2.7203,-2.76,-2.76,-2.76,-2.76,-2.76,-2.76,-2.76,-2.76,-2.76,-2.76,-2.0966,-2.179,-2.2451,-2.3146,-2.2906,-2.251,-2.251,-2.1514,-2.0361,-1.96,-1.8428,-1.7373,-1.6816,0.0,0.0,-1.9629,-2.0709,0.0,-2.1318,-2.1346,0.0,0.0,0.0,-2.0286,-2.0006,-2.015,0.0,0.0,-2.0606,-2.0403,-1.9897,-2.0058,-2.0135,-2.0135,-2.1499,-2.2667,-2.3683,-2.502,-2.5693,-2.5693,-2.5693,-2.5449,-2.494,-2.5736,-2.58,-2.5258,-2.5243,-2.5083,-2.4745,-2.3877,-2.3343,-2.3091,-2.3091,-2.3091,-2.3091,-2.3091,-2.3637,-2.4414,-2.4702,-2.5157,-2.5775,-2.6625,-2.7654,-2.8688,-2.9534,-2.9792,-2.9641,-2.8875,-2.8423,-2.7946,-2.7291,-2.6801,-2.6499,-2.6499,-2.6499,-2.6499,-2.6499,-2.6499,-2.6499,-2.6499,-2.6499,-2.6499,-2.6499,-2.6009,-2.5548,-2.5423,-2.4607,-2.3791,-2.3183,-2.3108,-2.3108,-2.3108,-2.3108,-2.3108,-2.3108,-2.3108,-2.3454,-2.4263,-2.4979,-2.5728,-2.6484,-2.7203,-2.76,-2.76,-2.76,-2.76,-2.76,-2.76,-2.76,-2.76,-2.76,-2.76,-2.1405,-2.2243,-2.2799,-2.3033,-2.2779,-2.2314,-2.1543,-2.0469,-1.9248,-1.7871,-1.6816,0.0,0.0,0.0,0.0,0.0,0.0,0.0,-2.177,-2.2223,-2.2098,0.0,-2.1217,0.0,-2.0068,-1.9937,-1.9654,0.0,-1.9628,-1.9636,-1.9041,-1.9404,-1.9576,-1.9576,-2.155,-2.3226,-2.4559,-2.5323,-2.5693,-2.5693,-2.5537,-2.5215,-2.4812,-2.5012,-2.4818,-2.4371,0.0,-2.4049,-2.4006,-2.3343,-2.3091,-2.3091,-2.3091,-2.3091,-2.3091,-2.3091,-2.3507,-2.4049,-2.4049,-2.4713,-2.5714,-2.683,-2.7947,-2.8976,-2.9624,-2.9792,-2.9666,-2.9051,-2.8662,-2.8285,-2.7494,-2.709,-2.6788,-2.6549,-2.6499,-2.6499,-2.6499,-2.6499,-2.6499,-2.6499,-2.6499,-2.6499,-2.6499,-2.6223,-2.5921,-2.5636,-2.4895,-2.4155,-2.3559,-2.3258,-2.3108,-2.3108,-2.3108,-2.3108,-2.3108,-2.3108,-2.3305,-2.3738,-2.4509,-2.5091,-2.5508,-2.6242,-2.6613,-2.6613,-2.6613,-2.6785,-2.7126,-2.6785,-2.6967,-2.76,-2.728,-2.728,-2.2256,-2.2818,-2.3081,-2.3023,-2.2652,-2.1904,-2.0215,-1.9375,-1.8262,-1.583,0.0,0.0,-1.4609,0.0,-1.6555,-1.8159,0.0,-2.1025,-2.2324,-2.2877,-2.298,-2.2382,-2.2404,-2.1769,-1.9969,-1.9656,-1.9176,-1.823,-1.8913,-1.9259,-1.9115,-1.9427,-1.9782,-2.0135,-2.2626,-2.451,-2.5693,-2.5693,-2.5664,-2.5644,-2.5254,-2.4814,-2.4316,-2.3955,-2.3555,-2.3091,0.0,0.0,-2.3091,-2.3091,-2.3091,-2.3091,-2.3091,-2.3091,-2.3091,-2.3091,-2.3222,-2.3343,-2.3343,-2.4723,-2.6637,-2.7574,-2.8779,-2.9792,-2.9792,-2.9792,-2.9666,-2.9051,-2.8888,-2.8637,-2.757,-2.7281,-2.7178,-2.6625,-2.6499,-2.6499,-2.6499,-2.6499,-2.6499,-2.6499,-2.6499,-2.6499,-2.6499,-2.6499,-2.6323,-2.5787,-2.5259,-2.472,-2.418,-2.3509,-2.3108,-2.3108,-2.3108,-2.3108,-2.3108,-2.3108,-2.3108,-2.3108,-2.3855,-2.4292,-2.4292,-2.5007,-2.5398,-2.5398,-2.5398,-2.5701,-2.6336,-2.5701,-2.6108,-2.7433,-2.68,-2.6904,-2.2783,-2.3042,-2.3013,-2.2705,-2.199,-2.1054,-1.9707,-1.8252,0.0,0.0,0.0,-1.3711,-1.3291,-1.4482,0.0,-1.7373,0.0,0.0,0.0,0.0,-2.3738,0.0,0.0,0.0,0.0,0.0,0.0,0.0,0.0,-2.0699,-1.9545,-1.9546,-2.0641,-2.2926,-2.451,-2.5479,-2.5693,-2.5693,-2.5557,-2.5185,-2.5155,-2.4705,-2.3896,-2.3828,-2.3555,-2.3091,-2.3091,0.0,-2.3091,-2.3091,-2.3091,-2.3091,-2.3091,-2.3091,-2.3091,-2.3091,-2.3714,-2.45,-2.45,-2.5378,-2.6524,-2.6719,-2.8171,-2.9792,-2.9792,-2.9792,-2.9666,-2.9051,-2.8888,-2.8637,-2.757,-2.7281,-2.7178,-2.6625,-2.6499,-2.6499,-2.6499,-2.6499,-2.6499,-2.6499,-2.6499,-2.6499,-2.6499,-2.6499,-2.6461,-2.6361,-2.5824,-2.5272,-2.4713,-2.3747,-2.3108,-2.3108,-2.3108,-2.3108,-2.3108,-2.3108,-2.3108,-2.3108,-2.3855,-2.4292,-2.4292,-2.5007,-2.5398,-2.5398,-2.5398,-2.5453,-2.5591,-2.5453,-2.5837,-2.6695,-2.6563,-2.6904,-2.2545,-2.2925,-2.2994,-2.2617,-2.1824,-2.0674,-1.874,0.0,0.0,0.0,0.0,-1.3125,-1.2944,0.0,0.0,0.0,0.0,0.0,0.0,0.0,0.0,0.0,0.0,0.0,0.0,0.0,0.0,0.0,0.0,-2.1397,-2.0743,-2.1347,-2.2676,-2.4658,-2.5382,-2.5693,-2.5693,-2.5508,-2.5283,-2.5106,-2.4666,-2.4189,-2.3779,-2.3555,-2.3286,-2.3091,-2.3091,0.0,-2.3091,-2.3091,-2.3091,-2.3091,-2.3091,-2.3091,-2.3091,-2.3091,-2.343,-2.392,-2.392,-2.467,-2.563,-2.563,-2.7116,-2.8937,-2.8937,-2.9326,-2.9729,-2.9453,-2.9377,-2.9114,-2.7996,-2.7708,-2.7494,-2.6688,-2.6499,-2.6499,-2.6499,-2.6499,-2.6499,-2.6499,-2.6499,-2.6499,-2.6499,-2.6499,-2.6499,-2.6499,-2.5996,-2.5511,-2.5259,-2.4268,-2.3446,-2.3133,-2.3108,-2.3108,-2.3108,-2.3108,-2.3108,-2.3108,-2.3454,-2.3679,-2.3679,-2.4018,-2.4208,-2.4208,-2.4208,-2.461,-2.5398,-2.5007,-2.5605,-2.706,-2.6695,-2.6904,-2.2256,-2.2711,-2.2857,-2.248,-2.1619,-2.0264,-1.7812,-1.6525,0.0,0.0,0.0,-1.2905,-1.2905,0.0,0.0,0.0,0.0,0.0,0.0,0.0,0.0,0.0,0.0,0.0,0.0,0.0,0.0,0.0,0.0,0.0,-2.1988,-2.334,-2.4524,-2.5411,-2.5499,-2.5499,-2.5411,-2.5107,-2.493,-2.4832,-2.4111,-2.374,-2.3633,-2.3247,-2.3091,-2.3091,-2.3091,0.0,0.0,-2.3091,-2.3091,-2.3091,-2.3091,-2.3091,-2.3091,-2.3091,-2.3091,-2.3091,-2.3091,-2.3681,-2.4414,-2.4414,-2.6108,-2.8096,-2.8096,-2.8897,-2.9792,-2.9792,-2.9792,-2.9528,-2.8398,-2.8109,-2.7821,-2.6763,-2.6499,-2.6499,-2.6499,-2.6499,-2.6499,-2.6499,-2.6499,-2.6499,-2.6499,-2.6499,-2.6499,-2.6499,-2.6109,-2.5737,-2.5611,-2.4757,-2.3954,-2.3358,-2.3183,-2.3108,-2.3108,-2.3108,-2.3108,-2.3108,-2.3108,-2.3108,-2.3108,-2.3108,-2.3108,-2.3108,-2.3108,-2.3783,-2.5147,-2.4394,-2.5106,-2.7111,-2.6375,-2.6522,-2.2168,-2.2539,-2.2471,-2.2051,-2.0977,-1.9473,-1.7252,0.0,0.0,0.0,-1.2905,-1.2905,-1.2905,0.0,0.0,0.0,0.0,0.0,0.0,0.0,0.0,0.0,0.0,0.0,0.0,0.0,0.0,0.0,0.0,0.0,-2.2947,-2.4558,-2.5217,-2.4514,-2.4922,-2.4941,-2.4541,-2.4492,-2.4287,-2.3906,-2.3828,-2.3584,-2.3149,-2.311,-2.3091,-2.3091,-2.3091,0.0,0.0,-2.3091,-2.3091,-2.3091,-2.3091,-2.3091,-2.3091,-2.3091,-2.3091,-2.3091,-2.3091,-2.3178,-2.3266,-2.3266,-2.5452,-2.8096,-2.8096,-2.8897,-2.9792,-2.9792,-2.9792,-2.9528,-2.8398,-2.8109,-2.7821,-2.6763,-2.6499,-2.6499,-2.6499,-2.6499,-2.6499,-2.6499,-2.6499,-2.6499,-2.6499,-2.6499,-2.6499,-2.6499,-2.6449,-2.6223,-2.5661,-2.5096,-2.4531,-2.3979,-2.3421,-2.3108,-2.3108,-2.3108,-2.3108,-2.3108,-2.3108,-2.3108,-2.3108,-2.3108,-2.3108,-2.3108,-2.3108,-2.3531,-2.4408,-2.359,-2.4034,-2.5591,-2.4851,-2.5259,-2.0986,-2.1728,-2.2031,-2.1602,-2.0508,-1.9043,-1.7126,0.0,0.0,-1.3169,-1.2905,-1.2905,-1.2905,-1.3042,-1.3379,0.0,0.0,0.0,0.0,0.0,0.0,0.0,0.0,0.0,0.0,0.0,0.0,0.0,0.0,0.0,-2.3559,-2.437,-2.4775,-2.4424,-2.458,-2.459,-2.4414,-2.417,-2.3955,-2.3789,-2.3525,-2.3257,-2.3091,-2.3091,-2.3091,-2.3091,-2.3091,0.0,0.0,-2.3091,-2.3091,-2.3091,-2.3091,-2.3091,-2.3091,-2.3091,-2.3091,-2.3091,-2.3091,-2.3091,-2.3091,-2.3091,-2.4925,-2.7128,-2.7128,-2.8371,-2.9792,-2.9792,-2.9541,-2.9089,-2.831,-2.7607,-2.704,-2.66,-2.6499,-2.6499,-2.6499,-2.6499,-2.6499,-2.6499,-2.6499,-2.6499,-2.6499,-2.6499,-2.6499,-2.6499,-2.6499,-2.6411,-2.6185,-2.536,-2.4713,-2.4519,-2.3647,-2.3108,-2.3108,-2.3108,-2.3108,-2.3108,-2.3108,-2.3108,-2.3108,-2.3108,-2.3108,-2.3108,-2.3108,-2.3514,-2.4292,-2.3972,-2.4366,-2.5398,-2.5091,-2.5508,-1.9881,-2.0732,-2.123,-2.0878,-1.9873,-1.8496,0.0,0.0,-1.4268,-1.314,-1.2905,-1.2905,-1.2905,-1.2905,-1.3042,0.0,-1.3721,-1.46,-1.6609,0.0,0.0,0.0,0.0,0.0,0.0,0.0,0.0,0.0,0.0,0.0,0.0,-2.3955,-2.4043,-2.4043,-2.416,-2.417,-2.4043,-2.374,-2.3594,-2.3594,-2.3247,-2.3091,-2.3091,-2.3091,-2.3091,-2.3091,0.0,0.0,0.0,-2.3091,-2.3091,-2.3091,-2.3091,-2.3091,-2.3091,-2.3091,-2.3091,-2.3091,-2.3091,-2.3091,-2.3091,-2.3091,-2.4425,-2.6016,-2.6016,-2.7799,-2.9792,-2.9792,-2.9252,-2.8561,-2.8009,-2.7203,-2.6499,-2.6499,-2.6499,-2.6499,-2.6499,-2.6499,-2.6499,-2.6499,-2.6499,-2.6499,-2.6499,-2.6499,-2.6499,-2.6499,-2.6499,-2.6436,-2.626,-2.5398,-2.4725,-2.4562,-2.3684,-2.3108,-2.3108,-2.3108,-2.3108,-2.3108,-2.3108,-2.3108,-2.3108,-2.3108,-2.3108,-2.3108,-2.3108,-2.3514,-2.4292,-2.406,-2.4337,-2.5077,-2.5027,-2.5712,-1.8955,-1.9609,-1.9932,-1.9894,-1.8965,-1.7676,0.0,-1.5068,-1.387,-1.3057,-1.2905,-1.2905,-1.2905,-1.2905,-1.3042,-1.3437,-1.4219,0.0,0.0,0.0,0.0,0.0,0.0,0.0,0.0,0.0,0.0,0.0,0.0,0.0,0.0,-2.3344,-2.311,-2.311,-2.3574,-2.3584,-2.311,-2.311,-2.3101,-2.3101,-2.3091,-2.3091,-2.3091,-2.3091,-2.3091,0.0,0.0,0.0,0.0,-2.3091,-2.3091,-2.3091,-2.3091,-2.3091,-2.3091,-2.3091,-2.3091,-2.3091,-2.3091,-2.3091,-2.3091,-2.3091,-2.3877,-2.483,-2.483,-2.7157,-2.9792,-2.9792,-2.8976,-2.7984,-2.7431,-2.6914,-2.6499,-2.6499,-2.6499,-2.6499,-2.6499,-2.6499,-2.6499,-2.6499,-2.6499,-2.6499,-2.6499,-2.6499,-2.6499,-2.6499,-2.6499,-2.6285,-2.5686,-2.5146,-2.4587,-2.4067,-2.3446,-2.3108,-2.3108,-2.3108,-2.3108,-2.3108,-2.3108,-2.3108,-2.3108,-2.3108,-2.3108,-2.3108,-2.3108,-2.3514,-2.4292,-2.3514,-2.3543,-2.4305,-2.4114,-2.5524,-1.6848,-1.7402,-1.7701,-1.7701,-1.695,-1.6055,-1.5381,-1.4414,-1.3545,-1.3023,-1.2905,-1.2905,-1.2905,-1.2905,-1.3238,-1.4219,0.0,0.0,0.0,0.0,0.0,0.0,0.0,0.0,0.0,0.0,0.0,0.0,0.0,0.0,0.0,-2.3169,-2.3091,-2.3091,-2.3227,-2.3237,-2.3091,-2.3091,-2.3091,-2.3091,-2.3091,-2.3091,-2.3091,-2.3091,0.0,0.0,0.0,0.0,0.0,-2.3091,-2.3091,-2.3091,-2.3091,-2.3091,-2.3091,-2.3091,-2.3091,-2.3091,-2.3091,-2.3091,-2.3091,-2.3091,-2.3887,-2.4787,-2.4787,-2.6614,-2.866,-2.865,-2.8386,-2.7896,-2.7002,-2.6625,-2.6499,-2.6499,-2.6499,-2.6499,-2.6499,-2.6499,-2.6499,-2.6499,-2.6499,-2.6499,-2.6499,-2.6499,-2.6499,-2.6499,-2.6499,-2.6424,-2.6248,-2.5385,-2.4725,-2.455,-2.3672,-2.3108,-2.3108,-2.3108,-2.3108,-2.3108,-2.3108,-2.3108,-2.3108,-2.3108,-2.3108,-2.3108,-2.3496,-2.3838,-2.4083,-2.3838,-2.3838,-2.4126,-2.4929,-2.6002,0.0,-1.5718,-1.62,-1.62,-1.5703,-1.5059,-1.4639,-1.4004,-1.3389,-1.2993,-1.2905,-1.2905,-1.2905,-1.2905,-1.3169,-1.3962,0.0,0.0,0.0,0.0,0.0,0.0,0.0,0.0,0.0,0.0,0.0,0.0,0.0,0.0,0.0,-2.3091,-2.3091,-2.3091,-2.3091,-2.3091,-2.3091,-2.3091,-2.3091,-2.3091,-2.3091,-2.3091,-2.3091,-2.3091,0.0,0.0,0.0,0.0,0.0,-2.3091,-2.3091,-2.3091,-2.3091,-2.3091,-2.3091,-2.3091,-2.3091,-2.3091,-2.3091,-2.3091,-2.3091,-2.3091,-2.3594,-2.4253,-2.466,-2.6356,-2.8079,-2.8102,-2.8109,-2.7846,-2.6788,-2.6499,-2.6499,-2.6499,-2.6499,-2.6499,-2.6499,-2.6499,-2.6499,-2.6499,-2.6499,-2.6499,-2.6499,-2.6499,-2.6499,-2.6499,-2.6499,-2.6411,-2.6197,-2.536,-2.4713,-2.4531,-2.3847,-2.3434,-2.3434,-2.3233,-2.3108,-2.3108,-2.3108,-2.3195,-2.3421,-2.3221,-2.3308,-2.3735,-2.3916,-2.4104,-2.4305,-2.4305,-2.4305,-2.4318,-2.5654,-2.6596,0.0,-1.4261,-1.5146,-1.5176,-1.4893,-1.4502,-1.4104,-1.374,0.0,-1.2983,-1.2905,-1.2925,-1.2959,-1.2944,-1.2964,-1.315,0.0,0.0,0.0,0.0,0.0,0.0,0.0,0.0,0.0,0.0,0.0,0.0,0.0,0.0,0.0,-2.3091,-2.3091,-2.3091,-2.3091,-2.3091,-2.3091,-2.3091,-2.3091,-2.3091,-2.3091,-2.3091,-2.3091,-2.3091,0.0,0.0,0.0,0.0,0.0,-2.3091,-2.3091,-2.3091,-2.3091,-2.3091,-2.3091,-2.3091,-2.3091,-2.3091,-2.3091,-2.3091,-2.3091,-2.3091,-2.3091,-2.3299,-2.4457,-2.6273,-2.8,-2.799,-2.8024,-2.7846,-2.6788,-2.6499,-2.6499,-2.6499,-2.6499,-2.6499,-2.6499,-2.6499,-2.6499,-2.6499,-2.6499,-2.6499,-2.6499,-2.6499,-2.6499,-2.6499,-2.6499,-2.6285,-2.5674,-2.5146,-2.4575,-2.4054,-2.4004,-2.4004,-2.4004,-2.3509,-2.3221,-2.3221,-2.3221,-2.3459,-2.4042,-2.3509,-2.3722,-2.4775,-2.4356,-2.4368,-2.4838,-2.4888,-2.4888,-2.4883,-2.6233,-2.7124,-1.0122,0.0,-1.2573,-1.2866,-1.2876,-1.2866,0.0,-1.3096,-1.2998,0.0,0.0,-1.3101,-1.3695,-1.3311,-1.3551,0.0,0.0,0.0,0.0,0.0,0.0,0.0,0.0,0.0,0.0,0.0,0.0,0.0,0.0,0.0,0.0,-2.3091,-2.3091,-2.3091,-2.3091,-2.3091,-2.3091,-2.3091,-2.3091,-2.3091,-2.3091,-2.3091,-2.3091,-2.3091,0.0,0.0,0.0,0.0,-2.3091,-2.3091,-2.3091,-2.3091,-2.3091,-2.3091,-2.3091,-2.3091,-2.3091,-2.3091,-2.3091,-2.3091,-2.3091,-2.3091,-2.3091,-2.3299,-2.4457,-2.5786,-2.6881,-2.6871,-2.7459,-2.7846,-2.6788,-2.6499,-2.6499,-2.6499,-2.6499,-2.6499,-2.6499,-2.6499,-2.6499,-2.6499,-2.6499,-2.6499,-2.6499,-2.6499,-2.6499,-2.6499,-2.6499,-2.6285,-2.5674,-2.5146,-2.4575,-2.4054,-2.4004,-2.4004,-2.4004,-2.4268,-2.4399,-2.4399,-2.4399,-2.4449,-2.4619,-2.4462,-2.4525,-2.4775,-2.5084,-2.5285,-2.541,-2.5896,-2.585,-2.5423,-2.6223,-2.6655,-0.8923,-1.0162,-1.1668,-1.2016,-1.2175,-1.2397,-1.3041,0.0,0.0,0.0,0.0,0.0,-1.3477,0.0,0.0,0.0,0.0,0.0,0.0,0.0,0.0,0.0,0.0,0.0,0.0,0.0,0.0,0.0,0.0,0.0,0.0,-2.3091,-2.3091,-2.3091,-2.3091,-2.3091,-2.3091,-2.3091,-2.3091,-2.3091,-2.3091,-2.3091,-2.3091,-2.3091,-2.3091,0.0,0.0,0.0,-2.3091,-2.3091,-2.3091,-2.3091,-2.3091,-2.3091,-2.3091,-2.3091,-2.3091,-2.3091,-2.3091,-2.3091,-2.3091,-2.3091,-2.3091,-2.3222,-2.3833,-2.4693,-2.5573,-2.629,-2.709,-2.7532,-2.6713,-2.6499,-2.6499,-2.6499,-2.6499,-2.6499,-2.6499,-2.6499,-2.6499,-2.6499,-2.6499,-2.6499,-2.6499,-2.6499,-2.6499,-2.6499,-2.6499,-2.6386,-2.6072,-2.5523,-2.5059,-2.477,-2.4732,-2.4732,-2.4732,-2.5247,-2.536,-2.4825,-2.4788,-2.4888,-2.5172,-2.4913,-2.4933,-2.5172,-2.5711,-2.5862,-2.5598,-2.621,-2.6197,-2.5611,-2.6223,-2.6499,-0.8745,-1.008,-1.1539,-1.177,-1.2097,-1.2571,-1.3256,0.0,0.0,0.0,0.0,0.0,0.0,0.0,0.0,0.0,0.0,0.0,0.0,0.0,0.0,0.0,0.0,0.0,0.0,0.0,0.0,0.0,0.0,0.0,0.0,-2.3091,-2.3091,-2.3091,-2.3091,-2.3091,-2.3091,-2.3091,-2.3091,-2.3091,-2.3091,-2.3091,-2.3091,-2.3091,-2.3091,0.0,0.0,0.0,-2.3091,-2.3091,-2.3091,-2.3091,-2.3091,-2.3091,-2.3091,-2.3091,-2.3091,-2.3091,-2.3091,-2.3091,-2.3091,-2.3091,-2.3091,-2.3091,-2.3091,-2.3651,-2.4568,-2.5866,-2.6638,-2.6989,-2.6603,-2.6499,-2.6499,-2.6499,-2.6499,-2.6499,-2.6499,-2.6499,-2.6499,-2.6499,-2.6499,-2.6499,-2.6499,-2.6499,-2.6499,-2.6499,-2.6499,-2.6461,-2.6373,-2.5933,-2.5561,-2.5485,-2.5548,-2.5598,-2.5598,-2.616,-2.6097,-2.5134,-2.5071,-2.5272,-2.5711,-2.531,-2.5272,-2.5724,-2.6248,-2.6248,-2.5724,-2.6248,-2.6248,-2.5737,-2.6273,-2.6499,-0.8975,-0.9971,-1.0938,-1.098,-1.1907,-1.2846,0.0,0.0,0.0,0.0,0.0,0.0,0.0,0.0,0.0,0.0,0.0,0.0,0.0,0.0,0.0,0.0,0.0,0.0,0.0,0.0,0.0,0.0,0.0,0.0,0.0,-2.3091,-2.3091,-2.3091,-2.3091,-2.3091,-2.3091,-2.3091,-2.3091,-2.3091,-2.3091,-2.3091,-2.3091,-2.3091,-2.3091,0.0,0.0,-2.3091,-2.3091,-2.3091,-2.3091,-2.3091,-2.3091,-2.3091,-2.3091,-2.3091,-2.3091,-2.3091,-2.3091,-2.3091,-2.3091,-2.3091,-2.3091,-2.3091,-2.3091,-2.3836,-2.4769,-2.5004,-2.5547,-2.6118,-2.6417,-2.6499,-2.6499,-2.6499,-2.6499,-2.6499,-2.6499,-2.6499,-2.6499,-2.6499,-2.6499,-2.6499,-2.6499,-2.6499,-2.6499,-2.6499,-2.6499,-2.6311,-2.5787,-2.5649,-2.5423,-2.4983,-2.5335,-2.5598,-2.5598,-2.616,-2.6424,-2.6248,-2.6248,-2.6285,-2.6361,-2.6285,-2.6285,-2.6361,-2.6449,-2.6449,-2.6361,-2.6449,-2.6449,-2.6361,-2.6449,-2.6499,-0.8337,-0.9539,-1.0767,-1.1057,-1.2369,-1.3715,0.0,0.0,0.0,0.0,0.0,0.0,0.0,0.0,0.0,0.0,0.0,0.0,0.0,0.0,0.0,0.0,0.0,0.0,0.0,0.0,0.0,0.0,0.0,0.0,0.0,0.0,-2.3091,-2.3091,-2.3091,-2.3091,-2.3091,-2.3091,-2.3091,-2.3091,-2.3091,-2.3091,-2.3091,-2.3091,-2.3091,-2.3091,0.0,-2.3091,-2.3091,-2.3091,-2.3091,-2.3091,-2.3091,-2.3091,-2.3091,-2.3091,-2.3091,-2.3091,-2.3091,-2.3091,-2.3091,-2.3091,-2.2945,-2.276,-2.276,-2.3186,-2.3779,-2.4321,-2.5289,-2.6251,-2.6446,-2.6499,-2.6499,-2.6499,-2.6499,-2.6499,-2.6499,-2.6499,-2.6499,-2.6499,-2.6499,-2.6499,-2.6499,-2.6499,-2.6499,-2.6499,-2.6499,-2.6399,-2.6135,-2.6097,-2.5996,-2.5737,-2.5946,-2.6097,-2.6097,-2.6336,-2.6499,-2.6499,-2.6499,-2.6499,-2.6499,-2.6499,-2.6499,-2.6499,-2.6499,-2.6499,-2.6499,-2.6499,-2.6499,-2.6499,-2.6499,-2.6499,-0.8156,-0.9547,-1.0974,-1.1711,0.0,0.0,0.0,0.0,0.0,0.0,0.0,0.0,0.0,0.0,0.0,0.0,0.0,0.0,0.0,0.0,0.0,0.0,0.0,0.0,0.0,0.0,0.0,0.0,0.0,0.0,0.0,0.0,-2.3091,-2.3091,-2.3091,-2.3091,-2.3091,-2.3091,-2.3091,-2.3091,-2.3091,-2.3091,-2.3091,-2.3091,-2.3091,-2.3091,-2.3091,-2.3091,-2.3091,-2.3091,-2.3091,-2.3091,-2.3091,-2.3091,-2.3091,-2.3091,-2.3091,-2.3091,-2.3091,-2.3091,-2.3081,-2.2984,-2.273,-2.249,-2.2393,-2.2686,-2.3195,-2.4,-2.5313,-2.6499,-2.6499,-2.6499,-2.6499,-2.6499,-2.6499,-2.6499,-2.6499,-2.6499,-2.6499,-2.6499,-2.6499,-2.6499,-2.6499,-2.6499,-2.6499,-2.6499,-2.6499,-2.6499,-2.6499,-2.6499,-2.6499,-2.6499,-2.6499,-2.6499,-2.6499,-2.6499,-2.6499,-2.6499,-2.6499,-2.6499,-2.6499,-2.6499,-2.6499,-2.6499,-2.6499,-2.6499,-2.6499,-2.6499,-2.6499,-2.6499,-2.6499,-2.6499,-0.9418,-1.0542,-1.1656,-1.3003,0.0,0.0,0.0,0.0,0.0,0.0,0.0,0.0,0.0,0.0,0.0,0.0,0.0,0.0,0.0,0.0,0.0,0.0,0.0,0.0,0.0,0.0,0.0,0.0,0.0,0.0,0.0,0.0,0.0,-2.3091,-2.3091,-2.3091,-2.3091,-2.3091,-2.3091,-2.3091,-2.3091,-2.3091,-2.3091,-2.3091,-2.3091,-2.3091,-2.3091,-2.3091,-2.3091,-2.3091,-2.3091,-2.3091,-2.3091,-2.3091,-2.3091,-2.3091,-2.3091,-2.3091,-2.3091,-2.3091,-2.3033,-2.2643,-2.2539,-2.2441,-2.2051,-2.2962,-2.4113,-2.4189,-2.5313,-2.6499,-2.6499,-2.6499,-2.6499,-2.6499,-2.6499,-2.6499,-2.6499,-2.6499,-2.6499,-2.6499,-2.6499,-2.6499,-2.6499,-2.6499,-2.6499,-2.6499,-2.6499,-2.6499,-2.6499,-2.6499,-2.6499,-2.6499,-2.6499,-2.6499,-2.6499,-2.6499,-2.6499,-2.6499,-2.6499,-2.6499,-2.6499,-2.6499,-2.6499,-2.6499,-2.6499,-2.6499,-2.6499,-2.6499,-2.6499,-2.6499,-2.6499,-2.6499,-0.8921,-1.0433,-1.1935,-1.2551,0.0,0.0,0.0,0.0,0.0,0.0,0.0,0.0,0.0,0.0,0.0,0.0,0.0,0.0,0.0,0.0,0.0,0.0,0.0,0.0,0.0,0.0,0.0,0.0,0.0,0.0,0.0,0.0,0.0,-2.3091,-2.3091,-2.3091,-2.3091,-2.3091,-2.3091,-2.3091,-2.3091,-2.3091,-2.3091,-2.3091,-2.3091,-2.3091,-2.3091,-2.2945,-2.2711,-2.2711,-2.2598,-2.2353,-2.2353,-2.2353,-2.2353,-2.2353,-2.2353,-2.2353,-2.2353,-2.2353,-2.2334,-2.2178,-2.1943,-2.1648,-2.1533,-2.2543,-2.3769,-2.3769,-2.5099,-2.6499,-2.6499,-2.6499,-2.6499,-2.6499,-2.6499,-2.6499,-2.6499,-2.6499,-2.6499,-2.6499,-2.6499,-2.6499,-2.6499,-2.6499,-2.6499,-2.6499,-2.6499,-2.6499,-2.6499,-2.6499,-2.6499,-2.6499,-2.6499,-2.6499,-2.6499,-2.6499,-2.6499,-2.6499,-2.6499,-2.6499,-2.6499,-2.6499,-2.6499,-2.6499,-2.6499,-2.6499,-2.6499,-2.6499,-2.6499,-2.6499,-2.6499,-2.6499,-0.8985,-1.0575,-1.2156,0.0,0.0,0.0,0.0,0.0,0.0,0.0,0.0,0.0,0.0,0.0,0.0,0.0,0.0,0.0,0.0,0.0,0.0,0.0,0.0,0.0,0.0,0.0,0.0,0.0,0.0,0.0,0.0,0.0,0.0,0.0,-2.2701,-2.2701,-2.2701,-2.2701,-2.2701,-2.2701,-2.2701,-2.2838,-2.3091,-2.2955,-2.2896,-2.2886,-2.276,-2.2578,-2.2314,-2.2314,-2.2148,-2.1885,-2.1885,-2.1885,-2.1885,-2.1885,-2.1885,-2.1885,-2.1885,-2.1885,-2.1865,-2.1728,-2.1475,-2.1171,-2.1064,-2.1966,-2.311,-2.3404,-2.4731,-2.6094,-2.6418,-2.6499,-2.6499,-2.6499,-2.6499,-2.6499,-2.6499,-2.6499,-2.6499,-2.6499,-2.6499,-2.6499,-2.6499,-2.6499,-2.6499,-2.6499,-2.6499,-2.6499,-2.6499,-2.6499,-2.6499,-2.6499,-2.6499,-2.6499,-2.6499,-2.6499,-2.6499,-2.6499,-2.6499,-2.6499,-2.6499,-2.6499,-2.6499,-2.6499,-2.6499,-2.6499,-2.6499,-2.6499,-2.6499,-2.6499,-2.6499,-2.6499,-0.995,-1.1136,0.0,0.0,0.0,0.0,0.0,0.0,0.0,0.0,0.0,0.0,0.0,0.0,0.0,0.0,0.0,0.0,0.0,0.0,0.0,0.0,0.0,0.0,0.0,0.0,0.0,0.0,0.0,0.0,0.0,0.0,0.0,0.0,-2.1885,-2.1885,-2.1885,-2.1885,-2.1885,-2.1885,-2.1885,-2.2324,-2.3071,-2.2695,-2.251,-2.248,-2.207,-2.1885,-2.1875,-2.1875,-2.1875,-2.1875,-2.1875,-2.1875,-2.1875,-2.1875,-2.1875,-2.1875,-2.1875,-2.1875,-2.1807,-2.1327,-2.119,-2.1103,-2.0742,-2.126,-2.2215,-2.322,-2.4228,-2.5229,-2.6245,-2.6499,-2.6499,-2.6499,-2.6499,-2.6499,-2.6499,-2.6499,-2.6499,-2.6499,-2.6499,-2.6499,-2.6499,-2.6499,-2.6499,-2.6499,-2.6499,-2.6499,-2.6499,-2.6487,-2.6487,-2.6499,-2.6499,-2.6499,-2.6499,-2.6499,-2.6499,-2.6499,-2.6499,-2.6499,-2.6499,-2.6499,-2.6499,-2.6499,-2.6499,-2.6499,-2.6499,-2.6499,-2.6499,-2.6499,-2.6499,-2.6499,-1.0056,0.0,0.0,0.0,0.0,0.0,0.0,0.0,0.0,0.0,0.0,0.0,0.0,0.0,0.0,0.0,0.0,0.0,0.0,0.0,0.0,0.0,0.0,0.0,0.0,0.0,0.0,0.0,0.0,0.0,0.0,0.0,0.0,0.0,-2.1885,-2.1885,-2.1885,-2.1885,-2.1885,-2.1885,-2.1885,-2.2012,-2.2256,-2.2129,-2.207,-2.206,-2.1934,-2.1709,-2.1406,-2.1084,-2.0997,-2.0997,-2.0997,-2.0997,-2.0997,-2.0997,-2.0997,-2.0997,-2.0997,-2.0997,-2.0977,-2.081,-2.0762,-2.0781,-2.0644,-2.126,-2.2215,-2.322,-2.4228,-2.5229,-2.6245,-2.6499,-2.6499,-2.6499,-2.6499,-2.6499,-2.6499,-2.6499,-2.6499,-2.6499,-2.6499,-2.6499,-2.6499,-2.6499,-2.6499,-2.6499,-2.6499,-2.6499,-2.6499,-2.6135,-2.6047,-2.6449,-2.6499,-2.6499,-2.6499,-2.6499,-2.6499,-2.6499,-2.6499,-2.6499,-2.6499,-2.6499,-2.6499,-2.6499,-2.6499,-2.6499,-2.6499,-2.6499,-2.6499,-2.6499,-2.6499,-2.6499,-1.1006,0.0,0.0,0.0,0.0,0.0,0.0,0.0,0.0,0.0,0.0,0.0,0.0,0.0,0.0,0.0,0.0,0.0,0.0,0.0,0.0,0.0,0.0,0.0,0.0,0.0,0.0,0.0,0.0,0.0,0.0,0.0,0.0,0.0,-2.1357,-2.1357,-2.1357,-2.1357,-2.1357,-2.1357,-2.1357,-2.1357,-2.1407,-2.1543,-2.1621,-2.1621,-2.1435,-2.1211,-2.0947,-2.0713,-2.0605,-2.0605,-2.0605,-2.0605,-2.0605,-2.0605,-2.0605,-2.0605,-2.0605,-2.0605,-2.0605,-2.0605,-2.0605,-2.0605,-2.0605,-2.126,-2.2215,-2.322,-2.4228,-2.5229,-2.6245,-2.6499,-2.6499,-2.6499,-2.6499,-2.6499,-2.6499,-2.6499,-2.6499,-2.6499,-2.6499,-2.6499,-2.6499,-2.6499,-2.6499,-2.6499,-2.6499,-2.6499,-2.6499,-2.6185,-2.6109,-2.6461,-2.6499,-2.6499,-2.6499,-2.6499,-2.6499,-2.6499,-2.6499,-2.6499,-2.6499,-2.6499,-2.6499,-2.6499,-2.6499,-2.6499,-2.6499,-2.6499,-2.6499,-2.6487,-2.626,-2.6147,0.0,0.0,0.0,0.0,0.0,0.0,0.0,0.0,0.0,0.0,0.0,0.0,0.0,0.0,0.0,0.0,0.0,0.0,0.0,0.0,0.0,0.0,0.0,0.0,0.0,0.0,0.0,0.0,0.0,0.0,0.0,0.0,0.0,0.0,-2.0605,-2.0605,-2.0605,-2.0605,-2.0605,0.0,-2.0605,-2.0605,-2.0615,-2.0986,-2.1132,-2.1112,-2.0742,-2.0605,-2.0605,-2.0605,-2.0605,-2.0605,-2.0605,-2.0605,-2.0605,-2.0605,-2.0605,-2.0605,-2.0605,-2.0605,-2.0605,-2.0605,-2.0605,-2.0605,-2.0605,-2.1193,-2.2103,-2.3184,-2.4156,-2.5123,-2.6211,-2.6499,-2.6499,-2.6499,-2.6499,-2.6499,-2.6499,-2.6499,-2.6499,-2.6499,-2.6499,-2.6499,-2.6499,-2.6499,-2.6499,-2.6499,-2.6449,-2.6436,-2.6487,-2.6449,-2.6436,-2.6487,-2.6499,-2.6499,-2.6499,-2.6499,-2.6499,-2.6499,-2.6499,-2.6499,-2.6499,-2.6499,-2.6499,-2.6499,-2.6499,-2.6461,-2.6411,-2.6411,-2.6386,-2.6336,-2.5774,-2.5523,0.0,0.0,0.0,0.0,0.0,0.0,0.0,0.0,0.0,0.0,0.0,0.0,0.0,0.0,0.0,0.0,0.0,0.0,0.0,0.0,0.0,0.0,0.0,0.0,0.0,0.0,0.0,0.0,0.0,0.0,0.0,0.0,0.0,-2.0605,-2.0605,-2.0605,-2.0605,-2.0605,-2.0605,0.0,-2.0605,-2.0605,-2.0605,-2.0703,-2.0752,-2.0703,-2.0644,-2.0605,-2.0605,-2.0605,-2.0605,-2.0605,-2.0605,-2.0605,-2.0605,-2.0605,-2.0605,-2.0605,-2.0605,-2.0605,-2.0605,-2.0605,-2.0605,-2.0605,-2.0605,-2.075,-2.127,-2.2999,-2.3672,-2.4253,-2.6013,-2.6499,-2.6499,-2.6499,-2.6499,-2.6499,-2.6499,-2.6499,-2.6499,-2.6499,-2.6499,-2.6499,-2.6499,-2.6499,-2.6499,-2.6499,-2.6109,-2.595,-2.6436,-2.6097,-2.595,-2.6449,-2.6499,-2.6499,-2.6499,-2.6499,-2.6499,-2.6499,-2.6499,-2.6499,-2.6499,-2.6499,-2.6499,-2.6499,-2.6499,-2.6273,-2.5787,-2.5787,-2.5573,-2.5172,-2.5046,-2.4983,0.0,0.0,0.0,0.0,0.0,0.0,0.0,0.0,0.0,0.0,0.0,0.0,0.0,0.0,0.0,0.0,0.0,0.0,0.0,0.0,0.0,0.0,0.0,0.0,0.0,0.0,0.0,0.0,0.0,0.0,0.0,-2.0254,-2.0352,-2.0595,-2.0605,-2.0507,-2.0254,-2.0498,-2.0498,-2.0254,-2.0254,-2.0146,-2.0008,-2.0419,-2.0605,-2.0605,-2.0605,-2.0605,-2.0605,-2.0605,-2.0605,-2.0605,-2.0605,-2.0605,-2.0605,-2.0605,-2.0605,-2.0605,-2.0605,-2.0605,-2.0605,-2.0605,-2.0605,-2.0605,-2.0605,-2.0895,-2.1593,-2.3073,-2.3854,-2.4552,-2.6094,-2.6499,-2.6499,-2.6499,-2.6499,-2.6499,-2.6499,-2.6499,-2.6499,-2.6499,-2.6499,-2.6499,-2.6499,-2.6499,-2.6499,-2.6499,-2.6235,-2.6147,-2.6461,-2.6235,-2.616,-2.6461,-2.6499,-2.6499,-2.6499,-2.6499,-2.6499,-2.6499,-2.6499,-2.628,-2.5804,-2.6245,-2.628,-2.5804,-2.5971,-2.5685,-2.4915,-2.5104,-2.5084,-2.4775,-2.4556,-2.4431,0.0,0.0,0.0,0.0,0.0,0.0,0.0,0.0,0.0,0.0,0.0,0.0,0.0,0.0,0.0,0.0,0.0,0.0,0.0,0.0,0.0,0.0,0.0,0.0,0.0,0.0,0.0,0.0,0.0,0.0,-1.9785,-1.9805,-1.9971,-2.037,-2.038,-2.0176,-1.9814,-2.0166,-2.0166,-1.9805,-1.9805,-1.9619,-1.9307,-2.0057,-2.0419,-2.0488,-2.0488,-2.0488,-2.0488,-2.041,-2.038,-2.039,-2.0458,-2.0488,-2.0507,-2.0576,-2.0605,-2.0605,-2.0605,-2.0605,-2.0605,-2.0605,-2.0605,-2.0605,-2.0605,-2.1155,-2.2,-2.3184,-2.4108,-2.5004,-2.6198,-2.6499,-2.6499,-2.6499,-2.6499,-2.6499,-2.6499,-2.6499,-2.6499,-2.6499,-2.6499,-2.6499,-2.6499,-2.6499,-2.6499,-2.6499,-2.6499,-2.6499,-2.6499,-2.6499,-2.6499,-2.6499,-2.6499,-2.6499,-2.6499,-2.6349,-2.6245,-2.6245,-2.6094,-2.5616,-2.4791,-2.5546,-2.5545,-2.4614,-2.5271,-2.5102,-2.4055,-2.4464,-2.46,-2.4487,-2.4067,-2.3853,0.0,0.0,0.0,0.0,0.0,0.0,0.0,0.0,0.0,0.0,0.0,0.0,0.0,0.0,0.0,0.0,0.0,0.0,0.0,0.0,0.0,0.0,0.0,0.0,0.0,0.0,0.0,0.0,0.0,0.0,-1.9365,-1.9375,-1.9394,-1.9453,-1.9453,-1.9434,-1.9375,-1.9424,-1.9424,-1.9375,-1.9375,-1.9346,-1.9287,-1.9404,-1.9658,-2.0,-2.0,-2.0,-1.9971,-1.9609,-1.9453,-1.9492,-1.9863,-2.0,-2.0049,-2.0458,-2.0605,-2.0605,-2.0605,-2.0605,-2.0605,-2.0605,-2.0605,-2.0605,-2.0605,-2.0683,-2.1165,-2.2999,-2.3599,-2.4145,-2.6013,-2.6499,-2.6499,-2.6499,-2.6499,-2.6499,-2.6499,-2.6499,-2.6499,-2.6499,-2.6499,-2.6499,-2.6499,-2.6499,-2.6499,-2.6499,-2.6499,-2.6499,-2.6499,-2.6499,-2.6499,-2.6499,-2.6499,-2.6499,-2.6499,-2.5699,-2.5194,-2.5194,-2.4373,-2.3843,-2.3708,-2.3806,-2.3614,-2.3041,-2.4723,-2.4871,-2.3418,-2.3897,-2.3853,-2.3333,-2.3258,-2.3221,0.0,0.0,0.0,0.0,0.0,0.0,0.0,0.0,0.0,0.0,0.0,0.0,0.0,0.0,0.0,0.0,0.0,0.0,0.0,0.0,0.0,0.0,0.0,0.0,0.0,0.0,0.0,0.0,0.0,-1.8672,-1.8906,-1.8926,-1.9033,-1.9277,-1.9287,-1.917,-1.8926,-1.916,-1.916,-1.8926,-1.8926,-1.8799,-1.8584,-1.8818,-1.916,-1.9561,-1.9561,-1.9561,-1.9551,-1.9365,-1.9287,-1.9307,-1.9492,-1.9561,-1.9619,-2.0039,-2.0195,-2.0234,-2.0517,-2.0605,-2.0605,-2.0605,-2.0605,-2.0605,-2.0605,-2.0605,-2.1011,-2.2962,-2.3514,-2.3963,-2.5978,-2.6499,-2.6499,-2.6499,-2.6248,-2.6097,-2.6424,-2.6235,-2.6009,-2.6009,-2.6273,-2.6499,-2.6499,-2.6499,-2.6499,-2.6499,-2.6499,-2.6499,-2.6499,-2.6499,-2.6499,-2.6499,-2.6499,-2.628,-2.5699,-2.5264,-2.4743,-2.4192,-2.3745,-2.3257,-2.2702,-2.2966,-2.2506,-2.1146,-2.3236,-2.3839,-2.284,-2.3287,-2.3358,-2.3108,-2.3108,-2.3108,0.0,0.0,0.0,0.0,0.0,0.0,0.0,0.0,0.0,0.0,0.0,0.0,0.0,0.0,0.0,0.0,0.0,0.0,0.0,0.0,0.0,0.0,0.0,0.0,0.0,0.0,0.0,0.0,0.0,-1.8144,-1.8422,-1.8442,-1.8623,-1.8955,-1.8965,-1.8809,-1.8451,-1.8799,-1.8799,-1.8442,-1.8442,-1.8276,-1.8018,-1.8295,-1.8652,-1.8965,-1.9072,-1.9121,-1.9111,-1.9004,-1.8965,-1.8975,-1.9082,-1.9121,-1.917,-1.96,-1.9756,-1.9805,-2.0165,-2.0282,-2.0282,-2.0282,-2.0351,-2.0439,-2.0439,-2.0517,-2.0991,-2.2783,-2.3299,-2.3699,-2.5608,-2.6084,-2.6084,-2.6084,-2.5711,-2.5523,-2.5984,-2.5799,-2.5548,-2.5423,-2.585,-2.6273,-2.6273,-2.6399,-2.6499,-2.6499,-2.6499,-2.6499,-2.6499,-2.6499,-2.6499,-2.6499,-2.628,-2.5804,-2.504,-2.4528,-2.3927,-2.3184,-2.2888,-2.235,-2.1494,-2.1901,-2.1422,-1.9949,-2.1795,-2.2558,-2.2173,-2.2794,-2.3108,-2.3108,-2.3108,-2.3108,0.0,0.0,0.0,0.0,0.0,0.0,0.0,0.0,0.0,0.0,0.0,0.0,0.0,0.0,0.0,0.0,0.0,0.0,0.0,0.0,0.0,0.0,0.0,0.0,0.0,0.0,0.0,0.0,0.0,-1.8018,-1.8047,-1.8047,-1.8047,-1.8076,-1.8076,-1.8066,-1.8047,-1.8066,-1.8066,-1.8047,-1.8047,-1.8037,-1.8008,-1.8037,-1.8057,-1.8096,-1.8461,-1.8637,-1.8607,-1.8208,-1.8076,-1.8115,-1.8481,-1.8637,-1.8685,-1.916,-1.9316,-1.9316,-1.9346,-1.9355,-1.9355,-1.9355,-1.9629,-1.9951,-1.9951,-2.0244,-2.0893,-2.2342,-2.2749,-2.3072,-2.4517,-2.4876,-2.4876,-2.4876,-2.485,-2.4838,-2.4863,-2.5272,-2.5448,-2.4926,-2.5285,-2.5636,-2.5636,-2.6135,-2.6499,-2.6499,-2.6499,-2.6499,-2.6499,-2.6499,-2.6499,-2.6499,-2.5664,-2.5052,-2.5004,-2.3257,-2.214,-2.2065,-2.1221,-2.0525,-2.0036,-2.0035,-2.0025,-1.9893,-2.0828,-2.1297,-2.1274,-2.249,-2.3108,-2.3108,-2.3108,-2.3108,0.0,0.0,0.0,0.0,0.0,0.0,0.0,0.0,0.0,0.0,0.0,0.0,0.0,0.0,0.0,0.0,0.0,0.0,0.0,0.0,0.0,0.0,0.0,0.0,0.0,0.0,0.0,0.0,0.0,0.0,-1.7974,-1.7432,-1.7398,-1.7974,-1.8008,-1.8008,-1.8008,-1.8008,-1.8008,-1.8008,-1.8008,-1.8008,-1.8008,-1.8008,-1.8008,-1.8018,-1.813,-1.8198,-1.8188,-1.8076,-1.8008,-1.8027,-1.8174,-1.8198,-1.8281,-1.8676,-1.8867,-1.887,-1.9189,-1.9287,-1.9287,-1.9287,-1.9394,-1.9512,-1.9512,-1.9619,-2.0004,-2.1146,-2.1861,-2.2513,-2.3661,-2.4373,-2.47,-2.4381,-2.4336,-2.4286,-2.381,-2.4167,-2.4519,-2.433,-2.4275,-2.4532,-2.5436,-2.4822,-2.4507,-2.5392,-2.4992,-2.4803,-2.5441,-2.4957,-2.4803,-2.5476,-2.4636,-2.3682,-2.2753,-2.2039,-2.1348,-2.0685,-2.007,-1.9795,-1.9912,-1.9348,-1.9088,-1.9079,-1.9653,-2.0522,-2.1664,-2.2623,-2.3108,-2.3108,-2.3108,-2.3108,0.0,0.0,0.0,0.0,0.0,0.0,0.0,0.0,0.0,0.0,0.0,0.0,0.0,0.0,0.0,0.0,0.0,0.0,0.0,0.0,0.0,0.0,0.0,0.0,0.0,0.0,0.0,0.0,0.0,0.0,-1.7159,-1.6839,-1.6915,-1.7545,-1.7545,-1.7545,-1.7545,-1.7545,-1.7545,-1.7545,-1.7545,-1.7545,-1.7588,-1.7734,-1.7803,-1.7803,-1.7949,-1.8008,-1.8008,-1.8008,-1.8008,-1.8008,-1.8008,-1.8008,-1.8047,-1.8286,-1.8393,-1.8432,-1.876,-1.8857,-1.8857,-1.8857,-1.8955,-1.9072,-1.9072,-1.917,-1.9466,-2.0284,-2.0885,-2.1552,-2.2686,-2.3582,-2.4136,-2.3791,-2.376,-2.3697,-2.3208,-2.3559,-2.3879,-2.3387,-2.326,-2.3457,-2.4093,-2.3478,-2.3205,-2.4154,-2.3824,-2.3745,-2.4409,-2.3927,-2.3745,-2.4409,-2.3489,-2.2418,-2.1497,-2.0975,-2.0417,-1.9734,-1.9443,-1.9346,-1.9446,-1.89,-1.8539,-1.8393,-1.8998,-2.0009,-2.1459,-2.2279,-2.2823,-2.3108,-2.3108,-2.3108,0.0,0.0,0.0,0.0,0.0,0.0,0.0,0.0,0.0,0.0,0.0,0.0,0.0,0.0,0.0,0.0,0.0,0.0,0.0,0.0,0.0,0.0,0.0,0.0,0.0,0.0,0.0,0.0,0.0,-1.6265,-1.5547,-1.6256,-1.6697,-1.6697,-1.6697,-1.6697,-1.6697,-1.6697,-1.6697,-1.6697,-1.6697,-1.6697,-1.6716,-1.7168,-1.7363,-1.7393,-1.7812,-1.7988,-1.7988,-1.8008,-1.8008,-1.8008,-1.8008,-1.8008,-1.8008,-1.8008,-1.8008,-1.8008,-1.8008,-1.8008,-1.8008,-1.8008,-1.8247,-1.8588,-1.8588,-1.8916,-1.9331,-1.9741,-1.9847,-2.0183,-2.1556,-2.2476,-2.3078,-2.3095,-2.3108,-2.3095,-2.3078,-2.3516,-2.3511,-2.2171,-2.2282,-2.2336,-2.155,-2.2148,-2.2799,-2.2822,-2.3153,-2.3419,-2.3408,-2.3408,-2.3419,-2.3408,-2.2185,-2.1335,-2.1324,-2.0068,-1.9268,-1.9268,-1.9258,-1.9062,-1.8617,-1.8588,-1.8393,-1.8018,-1.8811,-1.9694,-2.0558,-2.1459,-2.2322,-2.3108,-2.3108,-2.3108,-0.654,0.0,0.0,0.0,0.0,0.0,0.0,0.0,0.0,0.0,0.0,0.0,0.0,0.0,0.0,0.0,0.0,0.0,0.0,0.0,0.0,0.0,0.0,0.0,0.0,0.0,0.0,0.0,-1.4493,-1.4386,-1.545,-1.6256,-1.6697,-1.6697,-1.6697,-1.6697,-1.6697,-1.6697,-1.6697,-1.6697,-1.6697,-1.6697,-1.6707,-1.6824,-1.6882,-1.6911,-1.7363,-1.7559,-1.7578,-1.7881,-1.8008,-1.8008,-1.8008,-1.8008,-1.8008,-1.8008,-1.8008,-1.8008,-1.8008,-1.8008,-1.8008,-1.8008,-1.8086,-1.8184,-1.8184,-1.8271,-1.8365,-1.8478,-1.8961,-1.9843,-2.1463,-2.2075,-2.2384,-2.2944,-2.3108,-2.2944,-2.2353,-2.2351,-2.238,-2.1975,-2.0992,-2.0479,-2.1263,-2.0501,-2.0133,-2.1211,-2.1115,-2.1061,-2.1489,-2.1162,-2.1061,-2.1489,-2.0561,-1.9753,-1.9397,-1.9019,-1.8783,-1.8783,-1.8525,-1.8447,-1.8598,-1.8315,-1.8091,-1.8008,-1.8236,-1.8787,-1.9661,-2.1175,-2.2322,-2.3108,-2.3108,-2.3108,0.0,0.0,0.0,0.0,0.0,0.0,0.0,0.0,0.0,0.0,0.0,0.0,0.0,0.0,0.0,0.0,0.0,0.0,0.0,0.0,0.0,0.0,0.0,0.0,0.0,0.0,0.0,-1.4118,-1.3394,-1.3388,-1.4388,-1.4908,-1.5175,-1.5175,-1.5804,-1.5988,-1.565,-1.5988,-1.5988,-1.565,-1.5988,-1.5988,-1.569,-1.6212,-1.6455,-1.6475,-1.6924,-1.7217,-1.7435,-1.7646,-1.7852,-1.8008,-1.8008,-1.8008,-1.8008,-1.8008,-1.8008,-1.8008,-1.8008,-1.8008,-1.8008,-1.8008,-1.8008,-1.8008,-1.8008,-1.8008,-1.8008,-1.8008,-1.863,-1.9529,-2.0558,-2.1101,-2.1491,-2.1959,-2.2051,-2.1928,-2.1459,-2.1069,-2.0814,-2.0814,-1.9977,-1.9449,-1.988,-1.9215,-1.8887,-1.9737,-1.9766,-1.9772,-2.0129,-1.9859,-1.9772,-2.0155,-1.9471,-1.8916,-1.8627,-1.8442,-1.8344,-1.8344,-1.8144,-1.8115,-1.8325,-1.81,-1.8008,-1.8008,-1.8008,-1.863,-1.9846,-2.0846,-2.197,-2.3108,-2.3108,-2.3108,0.0,0.0,0.0,0.0,0.0,0.0,-1.091,-1.0391,0.0,0.0,0.0,0.0,0.0,0.0,0.0,0.0,0.0,0.0,0.0,0.0,0.0,0.0,0.0,0.0,0.0,0.0,-1.3151,-1.28,-1.2764,-1.2781,-1.2821,-1.289,-1.2967,-1.3009,-1.4392,-1.4776,-1.4055,-1.4776,-1.4776,-1.4085,-1.4874,-1.4894,-1.4252,-1.5471,-1.6016,-1.6046,-1.6465,-1.6875,-1.7269,-1.7285,-1.7588,-1.8008,-1.8008,-1.8008,-1.8008,-1.8008,-1.8008,-1.8008,-1.8008,-1.8008,-1.8008,-1.8008,-1.8008,-1.8008,-1.8008,-1.8008,-1.8008,-1.8008,-1.8563,-1.9177,-1.9266,-1.9879,-2.0494,-2.059,-2.059,-2.0558,-2.0462,-1.9846,-1.9266,-1.9177,-1.9177,-1.8911,-1.8144,-1.8286,-1.8529,-1.8529,-1.8936,-1.9199,-1.915,-1.9189,-1.9199,-1.915,-1.8763,-1.8529,-1.8529,-1.8223,-1.8008,-1.8008,-1.8008,-1.8008,-1.8008,-1.8008,-1.8008,-1.8008,-1.8008,-1.8821,-2.0462,-2.0655,-2.1542,-2.3108,-2.3108,-2.3108,-1.0048,-1.0215,-1.039,0.0,0.0,0.0,0.0,-0.9307,0.0,0.0,0.0,0.0,0.0,0.0,0.0,0.0,0.0,0.0,0.0,0.0,0.0,0.0,0.0,0.0,0.0,0.0,-1.1391,-1.1318,-1.1297,-1.1412,-1.1622,-1.2306,-1.2771,-1.3,-1.3312,-1.3394,-1.3252,-1.3403,-1.3403,-1.3252,-1.4064,-1.4353,-1.4243,-1.5136,-1.5537,-1.5566,-1.6036,-1.6271,-1.6378,-1.6709,-1.7314,-1.8008,-1.8008,-1.8008,-1.8008,-1.8008,-1.8008,-1.8008,-1.8008,-1.8008,-1.8008,-1.8008,-1.8008,-1.8008,-1.8008,-1.8008,-1.8008,-1.8008,-1.811,-1.8428,-1.911,-1.9431,-1.9716,-2.043,-2.059,-2.0398,-1.9726,-1.9431,-1.9077,-1.8395,-1.8269,-1.8202,-1.8042,-1.8076,-1.8135,-1.8135,-1.8461,-1.8607,-1.8311,-1.8555,-1.8598,-1.8291,-1.8184,-1.8135,-1.8135,-1.8057,-1.8008,-1.8008,-1.8008,-1.8008,-1.8008,-1.8008,-1.8008,-1.8008,-1.8008,-1.8496,-1.9562,-2.0942,-2.2156,-2.3108,-2.3108,-2.3108,0.0,-1.1095,-1.1154,-1.0703,0.0,0.0,0.0,0.0,0.0,0.0,0.0,0.0,0.0,0.0,0.0,0.0,0.0,0.0,0.0,0.0,0.0,0.0,0.0,0.0,0.0,0.0,-1.0509,-1.0315,-1.0293,-1.0365,-1.0485,-1.1301,-1.1618,-1.1353,-1.2113,-1.2408,-1.216,-1.2587,-1.2677,-1.242,-1.3213,-1.3606,-1.3644,-1.4421,-1.5021,-1.542,-1.5644,-1.5889,-1.6114,-1.6309,-1.6787,-1.734,-1.734,-1.734,-1.734,-1.734,-1.734,-1.734,-1.734,-1.751,-1.7695,-1.7695,-1.7842,-1.8008,-1.8008,-1.8008,-1.8008,-1.8008,-1.8008,-1.811,-1.8529,-1.8654,-1.8754,-1.921,-1.9299,-1.9177,-1.8754,-1.8654,-1.8529,-1.8076,-1.8008,-1.8008,-1.8008,-1.8008,-1.8008,-1.8008,-1.8184,-1.8217,-1.8037,-1.8193,-1.8208,-1.8037,-1.8008,-1.8008,-1.8008,-1.8008,-1.8008,-1.8008,-1.8008,-1.8008,-1.8008,-1.8008,-1.8008,-1.8008,-1.8008,-1.8428,-1.9299,-2.0171,-2.1259,-2.2506,-2.2914,-2.3108,0.0,0.0,0.0,0.0,0.0,-1.0654,0.0,0.0,0.0,-1.0291,0.0,0.0,0.0,0.0,0.0,0.0,0.0,0.0,0.0,0.0,0.0,0.0,0.0,0.0,0.0,0.0,-0.9744,-0.9543,-0.9412,-0.9419,-0.9586,-1.0229,-1.0315,-0.9708,-1.095,-1.1435,-1.1012,-1.1696,-1.1838,-1.1497,-1.2287,-1.2692,-1.2787,-1.3756,-1.454,-1.5167,-1.5323,-1.5615,-1.5968,-1.5968,-1.6152,-1.6463,-1.6629,-1.6697,-1.6697,-1.6697,-1.6697,-1.6697,-1.6697,-1.6963,-1.7256,-1.7256,-1.749,-1.7783,-1.7871,-1.7891,-1.791,-1.7988,-1.8008,-1.8008,-1.8008,-1.8008,-1.8008,-1.8008,-1.8008,-1.8008,-1.8008,-1.8008,-1.8008,-1.8008,-1.8008,-1.8008,-1.8008,-1.8008,-1.8008,-1.8008,-1.8008,-1.8008,-1.8008,-1.8008,-1.8008,-1.8008,-1.8008,-1.8008,-1.8008,-1.8008,-1.8008,-1.8008,-1.8008,-1.8008,-1.8008,-1.8008,-1.8008,-1.8008,-1.8008,-1.8337,-1.9044,-1.921,-2.0107,-2.1659,-2.2506,-2.2884,0.0,0.0,0.0,0.0,-1.1787,0.0,0.0,0.0,-0.9906,-0.8739,0.0,0.0,0.0,0.0,0.0,0.0,0.0,0.0,0.0,0.0,0.0,0.0,0.0,0.0,0.0,0.0,0.0,-0.8864,-0.8398,-0.8445,-0.9217,-0.9341,-0.949,-0.9708,-0.9882,-0.9954,-0.9872,-0.9988,-1.0109,-1.0312,-1.1099,-1.1662,-1.1989,-1.3507,-1.4243,-1.4392,-1.5079,-1.5439,-1.5488,-1.5488,-1.5518,-1.5615,-1.6395,-1.6697,-1.6697,-1.6697,-1.6697,-1.6697,-1.6697,-1.6726,-1.6775,-1.6775,-1.6804,-1.6921,-1.7334,-1.7484,-1.7529,-1.791,-1.8008,-1.8008,-1.8008,-1.8008,-1.8008,-1.8008,-1.8008,-1.8008,-1.8008,-1.8008,-1.8008,-1.8008,-1.8008,-1.8008,-1.8008,-1.8008,-1.8008,-1.8008,-1.8008,-1.8008,-1.8008,-1.8008,-1.8008,-1.8008,-1.8008,-1.8008,-1.8008,-1.8008,-1.8008,-1.8008,-1.8008,-1.8008,-1.8008,-1.8008,-1.8008,-1.8008,-1.8008,-1.8042,-1.8144,-1.8911,-1.9814,-2.0782,-2.1616,-2.2044,0.0,0.0,0.0,0.0,0.0,0.0,0.0,0.0,-0.9273,0.0,0.0,0.0,0.0,0.0,0.0,0.0,0.0,0.0,0.0,0.0,0.0,0.0,0.0,0.0,0.0,0.0,0.0,0.0,0.0,-0.8218,-0.8924,-0.8958,-0.9018,-0.9172,-0.9178,-0.9259,-0.9397,-0.9397,-0.9573,-0.9866,-1.0207,-1.0761,-1.1541,-1.2224,-1.3114,-1.4213,-1.4569,-1.4962,-1.541,-1.541,-1.541,-1.5449,-1.579,-1.5937,-1.5937,-1.5937,-1.5937,-1.5937,-1.5937,-1.6133,-1.6387,-1.6619,-1.6697,-1.6785,-1.7256,-1.7383,-1.7471,-1.7891,-1.8008,-1.8008,-1.8008,-1.8008,-1.8008,-1.8008,-1.8008,-1.8008,-1.8008,-1.8008,-1.8008,-1.8008,-1.8008,-1.8008,-1.8008,-1.8008,-1.8008,-1.8008,-1.8008,-1.8008,-1.8008,-1.8008,-1.8008,-1.8008,-1.8008,-1.8008,-1.8008,-1.8008,-1.8008,-1.8008,-1.8008,-1.8008,-1.8008,-1.8008,-1.8008,-1.8008,-1.8008,-1.8008,-1.8008,-1.8371,-1.8721,-1.911,-2.0494,-2.1144,-1.2608,0.0,0.0,0.0,0.0,0.0,0.0,0.0,0.0,0.0,0.0,0.0,0.0,0.0,0.0,0.0,0.0,0.0,0.0,0.0,0.0,0.0,0.0,0.0,0.0,0.0,0.0,0.0,0.0,0.0,-0.8651,-0.8691,-0.8724,-0.8804,-0.8804,-0.8884,-0.9091,-0.9091,-0.9237,-0.9559,-0.9559,-1.0019,-1.0887,-1.1085,-1.2116,-1.3785,-1.3992,-1.4585,-1.541,-1.541,-1.541,-1.541,-1.541,-1.541,-1.541,-1.541,-1.541,-1.541,-1.541,-1.5615,-1.5968,-1.6269,-1.6336,-1.6424,-1.6894,-1.7109,-1.7295,-1.7715,-1.792,-1.8008,-1.8008,-1.8008,-1.8008,-1.8008,-1.8008,-1.8008,-1.8008,-1.8008,-1.8008,-1.8008,-1.8008,-1.8008,-1.8008,-1.8008,-1.8008,-1.8008,-1.8008,-1.8008,-1.8008,-1.8008,-1.8008,-1.8008,-1.8008,-1.8008,-1.8008,-1.8008,-1.8008,-1.8008,-1.8008,-1.8008,-1.8008,-1.8008,-1.8008,-1.8008,-1.8008,-1.8008,-1.8008,-1.8008,-1.8008,-1.8042,-1.9529,-2.0236,0.0,0.0,0.0,-0.993,0.0,0.0,0.0,0.0,-0.8936,0.0,0.0,0.0,0.0,0.0,0.0,0.0,0.0,0.0,0.0,0.0,0.0,0.0,0.0,0.0,0.0,0.0,0.0,0.0,0.0,0.0,-0.8355,-0.8415,-0.8543,-0.8798,-0.8804,-0.8811,-0.8824,-0.8824,-0.8938,-0.9224,-0.9224,-0.9406,-0.9787,-1.0558,-1.1535,-1.2701,-1.3473,-1.442,-1.541,-1.541,-1.541,-1.541,-1.541,-1.541,-1.541,-1.541,-1.541,-1.541,-1.541,-1.542,-1.543,-1.5449,-1.5449,-1.5537,-1.6007,-1.6406,-1.6814,-1.7285,-1.7695,-1.8008,-1.8008,-1.8008,-1.8008,-1.8008,-1.8008,-1.8008,-1.8008,-1.8008,-1.8008,-1.8008,-1.8008,-1.8008,-1.8008,-1.8008,-1.8008,-1.8008,-1.8008,-1.8008,-1.8008,-1.8008,-1.8008,-1.8008,-1.8008,-1.8008,-1.8008,-1.8008,-1.8008,-1.8008,-1.8008,-1.8008,-1.8008,-1.8008,-1.8008,-1.8008,-1.8008,-1.8008,-1.8008,-1.8008,-1.8008,-1.8008,-1.8911,-1.9332,0.0,0.0,-1.0033,-0.9601,0.0,0.0,0.0,0.0,0.0,0.0,0.0,0.0,0.0,0.0,0.0,0.0,0.0,0.0,0.0,0.0,0.0,0.0,0.0,0.0,0.0,0.0,0.0,0.0,0.0,0.0,0.0,-0.8583,-0.8704,-0.8804,-0.8804,-0.8804,-0.8804,-0.8804,-0.8858,-0.8931,-0.8931,-0.9078,-0.9392,-0.9659,-1.0651,-1.2149,-1.2422,-1.3475,-1.5,-1.5,-1.5156,-1.541,-1.541,-1.541,-1.541,-1.541,-1.541,-1.541,-1.541,-1.541,-1.541,-1.541,-1.541,-1.5498,-1.5958,-1.6377,-1.6794,-1.7256,-1.7686,-1.8008,-1.8008,-1.8008,-1.8008,-1.8008,-1.8008,-1.8008,-1.8008,-1.8008,-1.8008,-1.8008,-1.8008,-1.8008,-1.8008,-1.8008,-1.8008,-1.8008,-1.8008,-1.8008,-1.8008,-1.8008,-1.8008,-1.8008,-1.8008,-1.8008,-1.8008,-1.8008,-1.8008,-1.8008,-1.8008,-1.8008,-1.8008,-1.8008,-1.8008,-1.8008,-1.8008,-1.8008,-1.8008,-1.8008,-1.8008,-1.8008,-1.8303,-1.8428,-1.044,-0.9961,0.0,-0.9101,-0.856,0.0,-0.7584,0.0,0.0,0.0,0.0,0.0,0.0,0.0,0.0,0.0,0.0,0.0,0.0,0.0,0.0,0.0,0.0,0.0,0.0,0.0,-0.6472,-0.727,0.0,0.0,0.0,0.0,-0.8565,-0.8798,-0.8804,-0.8804,-0.8804,-0.8804,-0.8804,-0.8804,-0.8804,-0.8878,-0.9058,-0.9058,-1.0042,-1.1759,-1.1759,-1.2831,-1.4551,-1.4551,-1.4805,-1.5186,-1.5186,-1.5283,-1.541,-1.541,-1.541,-1.541,-1.541,-1.541,-1.541,-1.541,-1.541,-1.5469,-1.5772,-1.6143,-1.6553,-1.6836,-1.7334,-1.7793,-1.7793,-1.79,-1.7906,-1.7579,-1.7501,-1.7501,-1.7501,-1.7501,-1.7613,-1.794,-1.8008,-1.8008,-1.8008,-1.8008,-1.8008,-1.8008,-1.8008,-1.8008,-1.8008,-1.8008,-1.8008,-1.8008,-1.8008,-1.8008,-1.8008,-1.8008,-1.8008,-1.8008,-1.8008,-1.8008,-1.8008,-1.8008,-1.8008,-1.8008,-1.8008,-1.8008,-1.8008,-1.8008,-1.8008,-1.8008,-1.8008,-1.8008]}]]